     2.11           OBSERVATION DATA    G (GPS)             RINEX VERSION / TYPE
teqc 2010Oct21 OPUS Account 20111025 14:36:08UTC            PGM / RUN BY / DATE
E 1521                                                      MARKER NAME
1112                                                        MARKER NUMBER
CSMIDDLETON NGS                                             OBSERVER / AGENCY
4624K01590 TRIMBLE NETR5 4.41                               REC # / TYPE / VERS
12236910 TRM41249.00 NONE                                   ANT # / TYPE
  -739954.4284 -5464438.6213  3194639.6948                  APPROX POSITION XYZ
        2.0010        0.0000        0.0000                  ANTENNA: DELTA H/E/N
     1     1                                                WAVELENGTH FACT L1/2
     5    L1    L2    C1    P1    P2                        # / TYPES OF OBSERV
    15                                                      LEAP SECONDS
  2011     7    24     0     0    0.0000000     GPS         TIME OF FIRST OBS
                                                            END OF HEADER
 11  7 24  0  0  0.0000000  0  8G17G10G04G09G20G28G02G27
 111320249.973 8                  21183528.422
 127096559.00646  99036396.84242  24185677.3054                   24185689.8794
 105524138.54748  82226648.85846  20080538.8524                   20080547.0314
 117789427.94647  91784075.67144  22414596.1644                   22414604.2154
 126297479.32946  98413520.92143  24033574.5944                   24033582.0164
 113197187.24348  88205682.44545  21540700.3834                   21540707.1644
 120238559.93247  93692521.95345  22880638.3674                   22880646.9964
 118411182.07547  92268519.75145  22532902.5394                   22532911.3674
 11  7 24  0  0 30.0000000  0  8G17G10G04G09G20G28G02G27
 111348059.638 7                  21188820.203
 127002836.47746  98963366.56243  24167843.0634                   24167853.7234
 105489630.77648  82199759.72246  20073972.1724                   20073979.8634
 117741318.61947  91746587.88944  22405440.8594                   22405449.6954
 126314706.66147  98426944.82543  24036852.4384                   24036860.5234
 113235912.89448  88235858.25245  21548069.6414                   21548076.3594
 120149665.56846  93623253.68645  22863722.2344                   22863730.5004
 118384548.21547  92247766.09245  22527834.6804                   22527842.5904
 11  7 24  0  1  0.0000000  0  8G17G10G04G09G20G28G02G27
 111375983.058 7                  21194134.227
 126909054.21846  98890289.77143  24149996.8444                   24150006.1334
 105455691.05848  82173313.21846  20067513.7344                   20067521.4224
 117693806.99547  91709565.86244  22396400.0554                   22396408.0824
 126332438.40046  98440761.72643  24040226.9454                   24040234.9414
 113275000.41748  88266316.03345  21555507.5704                   21555514.4654
 120061009.81347  93554171.35945  22846851.2894                   22846859.9304
 118358396.99447  92227388.51345  22522857.6884                   22522866.2584
 11  7 24  0  1 30.0000000  0  8G17G10G04G09G20G28G02G27
 111404018.905 7                  21199469.102
 126815215.14546  98817168.73443  24132139.5164                   24132150.4454
 105422319.79948  82147309.66846  20061163.4384                   20061171.7664
 117646894.96047  91673011.04144  22387473.0084                   22387481.8364
 126350674.44947  98454971.65143  24043696.5474                   24043704.8524
 113314450.62548  88297056.44945  21563014.4844                   21563021.3714
 119972594.50047  93485276.39345  22830026.7114                   22830034.4024
 118332728.91348  92207387.38245  22517973.5314                   22517981.6884
 11  7 24  0  2  0.0000000  0  8G17G10G04G09G20G28G02G27
 111432166.704 7                  21204825.672
 126721322.41746  98744005.83543  24114271.1024                   24114282.8984
 105389517.55548  82121749.50746  20054921.6414                   20054929.0164
 117600583.91147  91636924.52944  22378660.5634                   22378669.2664
 126369415.01947  98469574.71743  24047262.6024                   24047271.5824
 113354264.09148  88328079.89945  21570590.4844                   21570597.6414
 119884421.13047  93416569.95045  22813248.3524                   22813254.6844
 118307544.59648  92187763.23345  22513181.2504                   22513189.5664
 11  7 24  0  2 30.0000000  0  8G17G10G04G09G20G28G02G27
 111460426.066 7                  21210202.891
 126627378.54746  98670803.12243  24096393.8914                   24096406.1214
 105357284.86948  82096633.15046  20048787.3444                   20048795.4144
 117554875.41047  91601307.52044  22369962.5864                   22369970.2464
 126388660.20147  98484570.97843  24050925.5004                   24050932.8874
 113394440.91548  88359386.50645  21578236.2424                   21578243.0744
 119796491.68047  93348053.59045  22796515.9774                   22796522.3404
 118282844.59647  92168516.45845  22508480.5394                   22508489.1334
 11  7 24  0  3  0.0000000  0  8G17G10G04G09G20G28G02G27
 111488796.267 7                  21215602.023
 126533386.68446  98597562.97043  24078507.1954                   24078519.8364
 105325622.28348  82071961.02946  20042762.2194                   20042770.0904
 117509771.09247  91566161.31444  22361379.2974                   22361388.1914
 126408410.02347  98499960.49543  24054684.0634                   24054692.0634
 113434981.92448  88390976.88045  21585950.2814                   21585957.9304
 119708807.72047  93279728.53445  22779830.2034                   22779835.9774
 118258629.63247  92149647.64245  22503872.7504                   22503881.1174
 11  7 24  0  3 30.0000000  0  8G17G10G04G09G20G28G02G27
 111517276.699 7                  21221021.852
 126439349.74946  98524287.64243  24060612.8134                   24060625.1604
 105294530.19248  82047733.44946  20036845.7584                   20036853.7704
 117465272.39347  91531487.01344  22352911.9844                   22352919.7734
 126428664.56547  98515743.24543  24058537.6804                   24058546.3204
 113475887.38148  88422851.23445  21593734.8364                   21593741.9264
 119621370.70047  93211595.86645  22763191.1804                   22763197.9774
 118234900.23747  92131157.17945  22499357.0944                   22499365.5744
 11  7 24  0  4  0.0000000  0  8G17G10G04G09G20G28G02G27
 111545866.748 7                  21226462.203
 126345270.63546  98450979.48543  24042710.2424                   24042722.3834
 105264008.99647  82023950.72246  20031037.7504                   20031045.2854
 117421380.65747  91497285.66444  22344558.9304                   22344567.6764
 126449423.76146  98531919.28543  24062488.5004                   24062496.3834
 113517157.71048  88455009.91645  21601588.1804                   21601595.4024
 119534182.41147  93143657.07345  22746599.7194                   22746605.8914
 118211656.74247  92113045.35445  22494934.3674                   22494942.3554
 11  7 24  0  4 30.0000000  0  8G17G10G04G09G20G28G02G27
 111574565.870 7                  21231923.289
 126251152.04545  98377640.59443  24024799.7814                   24024812.2814
 105234059.08047  82000613.14246  20025338.4064                   20025346.1094
 117378097.25347  91463558.37444  22336322.2664                   22336331.4844
 126470687.70946  98548488.58343  24066534.0554                   24066542.5594
 113558793.27748  88487453.17845  21609511.8364                   21609518.5904
 119447244.26147  93075913.14345  22730055.2114                   22730062.5474
 118188899.72847  92095312.59845  22490603.7584                   22490611.9734
 11  7 24  0  5  0.0000000  0  8G17G10G04G09G20G28G02G27
 111603373.486 7                  21237405.273
 126156996.73346  98304273.07143  24006881.8594                   24006895.1604
 105204680.93648  81977721.10846  20019748.0944                   20019755.7504
 117335423.89547  91430306.45944  22328202.0864                   22328210.3484
 126492456.27547  98565451.07243  24070677.7734                   24070684.9494
 113600794.43448  88520181.33245  21617503.6884                   21617510.9414
 119360558.06147  93008365.50345  22713559.9224                   22713567.3324
 118166630.00747  92077959.55345  22486365.8134                   22486374.1914
 11  7 24  0  5 30.0000000  0  8G17G10G04G09G20G28G02G27
 111632289.502 7                  21242907.500
 126062808.09746  98230879.57243  23988958.7344                   23988971.3954
 105175875.11647  81955275.03746  20014266.3444                   20014273.7814
 117293361.69747  91397530.75044  22320197.8364                   22320206.0554
 126514729.49246  98582806.85943  24074915.1804                   24074923.3364
 113643161.85048  88553194.87945  21625566.4454                   21625573.7424
 119274125.29447  92941015.42845  22697111.7504                   22697118.9024
 118144848.04347  92060986.55645  22482220.8914                   22482229.4964
 11  7 24  0  6  0.0000000  0  8G17G10G04G09G20G28G02G27
 111661312.917 7                  21248430.734
 125968588.90746  98157462.19543  23971029.5784                   23971041.3164
 105147641.41248  81933274.76646  20008893.7194                   20008901.4774
 117251911.70447  91365232.11844  22312310.8364                   22312318.5474
 126537507.13746  98600555.72543  24079249.1884                   24079257.8714
 113685895.67648  88586493.93846  21633698.3674                   21633705.6724
 119187947.48747  92873864.00945  22680712.8444                   22680719.8014
 118123553.96047  92044393.76545  22478169.0634                   22478177.3594
 11  7 24  0  6 30.0000000  0  8G17G10G04G09G20G28G02G27
 111690443.303 8                  21253974.164
 125874342.17146  98084023.43344  23953094.8674                   23953106.3674
 105119980.57848  81911720.88646  20003629.8594                   20003637.8984
 117211075.66047  91333411.86144  22304539.5084                   22304547.8204
 126560789.11746  98618697.57743  24083679.5314                   24083688.3484
 113728996.00548  88620078.59045  21641899.8674                   21641907.1804
 119102026.28846  92806912.49945  22664361.3594                   22664369.1374
 118102748.55547  92028181.74545  22474209.5944                   22474217.4344
 11  7 24  0  7  0.0000000  0  8G17G10G04G09G20G28G02G27
 111719679.704 8                  21259537.305
 125780070.64347  98010565.33444  23935155.7344                   23935167.1174
 105092892.37548  81890613.21746  19998475.5164                   19998482.9574
 117170854.32947  91302070.61944  22296885.7344                   22296894.5084
 126584575.26446  98637232.25743  24088206.3594                   24088215.1954
 113772463.55248  88653949.37745  21650171.7974                   21650179.0204
 119016362.96347  92740161.93345  22648060.9144                   22648068.5354
 118082431.74247  92012350.45845  22470344.0164                   22470351.6644
 11  7 24  0  7 30.0000000  0  8G17G10G04G09G20G28G02G27
 111749021.849 8                  21265121.344
 125685777.42546  97937090.30043  23917212.1174                   23917223.4104
 105066377.51648  81869952.31046  19993429.6484                   19993437.7194
 117131249.28147  91271209.59044  22289348.6094                   22289357.0824
 126608865.64545  98656159.79842  24092827.4844                   24092837.9184
 113816298.82148  88688106.69246  21658513.0394                   21658520.5514
 118930959.38747  92673613.82345  22631808.7664                   22631816.9924
 118062604.07747  91996900.33345  22466570.1954                   22466578.4654
 11  7 24  0  8  0.0000000  0  8G17G10G04G09G20G28G02G27
 111778469.391 8                  21270724.820
 125591465.47546  97863600.66243  23899265.0084                   23899276.5044
 105040436.22648  81849738.34246  19988493.3364                   19988500.7704
 117092261.88047  91240829.82544  22281929.8984                   22281938.1094
 126633660.09746  98675480.21743  24097545.6024                   24097555.9104
 113860501.68248  88722550.45445  21666924.8054                   21666931.9774
 118845817.19347  92607269.35545  22615607.4694                   22615614.3404
 118043266.04547  91981831.74845  22462890.4454                   22462898.5704
 11  7 24  0  8 30.0000000  0  8G17G10G04G09G20G28G02G27
 111808021.963 8                  21276348.461
 125497137.81346  97790098.77043  23881315.0314                   23881325.2774
 105015068.77848  81829971.51846  19983665.8674                   19983673.5354
 117053893.18247  91210932.17544  22274628.0394                   22274637.1374
 126658958.54556  98695193.30052  24102360.3984                   24102369.5704
 113905072.77648  88757281.14945  21675406.2114                   21675413.3054
 118760938.17948  92541129.95145  22599455.9614                   22599462.5824
 118024418.31647  91967145.22345  22459304.3594                   22459312.3204
 11  7 24  0  9  0.0000000  0  8G17G10G04G09G20G28G02G27
 111837679.142 8                  21281992.508
 125402797.44947  97716586.97443  23863361.8984                   23863371.2304
 104990275.42348  81810652.04046  19978947.5554                   19978955.6644
 117016144.50747  91181517.67144  22267445.0234                   22267453.2344
 126684760.80346  98715298.97142  24107270.2274                   24107279.6804
 113950012.21448  88792298.87546  21683958.4064                   21683965.2974
 118676323.16847  92475196.27545  22583353.9304                   22583360.8524
 118006061.06947  91952840.88345  22455810.4144                   22455819.5824
 11  7 24  0  9 30.0000000  0  8G17G10G04G09G20G28G02G27
 111867439.999 8                  21287655.547
 125308447.27646  97643067.51143  23845407.5634                   23845416.8914
 104966055.88848  81791779.69846  19974339.0164                   19974346.6254
 116979016.50047  91152586.79844  22260379.3364                   22260387.8054
 126711066.23346  98735796.71143  24112276.5704                   24112284.9534
 113995320.21248  88827603.78945  21692579.9774                   21692586.6024
 118591974.02547  92409469.77345  22567302.7194                   22567309.5904
 117988194.29047  91938918.72545  22452410.8364                   22452418.6334
 11  7 24  0 10  0.0000000  0  8G17G10G04G09G20G28G02G27
 111897304.049 8                  21293338.672
 125214090.50346  97569542.90843  23827451.9144                   23827462.1174
 104942410.70448  81773354.88746  19969839.9064                   19969847.1254
 116942510.64847  91124140.66144  22253433.2734                   22253440.6484
 126737874.74146  98756686.44743  24117378.0394                   24117387.0274
 114040997.33848  88863196.32146  21701272.1804                   21701279.1684
 118507892.26747  92343951.61845  22551302.2814                   22551308.9804
 117970818.51447  91925379.18045  22449104.4694                   22449112.1374
 11  7 24  0 10 30.0000000  0  8G17G10G04G09G20G28G02G27
 111927270.800 8                  21299040.766
 125119729.81047  97496015.28143  23809495.8984                   23809506.6954
 104919339.65248  81755377.46146  19965449.2274                   19965457.2274
 116906627.84747  91096180.07444  22246604.1954                   22246612.8444
 126765186.13246  98777968.09743  24122575.4924                   24122583.1024
 114087043.42448  88899076.37946  21710034.8444                   21710041.4844
 118424079.11147  92278642.75345  22535353.1414                   22535359.2974
 117953933.74447  91912222.21045  22445891.3204                   22445899.3754
 11  7 24  0 11  0.0000000  0  8G17G10G04G09G20G28G02G27
 111957339.704 8                  21304762.750
 125025368.21147  97422486.94243  23791540.2974                   23791550.4804
 104896842.70248  81737847.39246  19961168.1024                   19961175.8014
 116871369.06947  91068705.66544  22239894.8754                   22239903.9144
 126792999.93746  98799641.14543  24127867.7664                   24127876.1374
 114133458.93148  88935244.28845  21718866.9064                   21718874.0704
 118340536.19047  92213544.45545  22519454.8364                   22519461.8524
 117937540.29547  91899448.11345  22442771.6334                   22442779.4534
 11  7 24  0 11 30.0000000  0  8G17G10G04G09G20G28G02G27
 111987510.477 8                  21310504.172
 124931009.30147  97348960.70743  23773583.5164                   23773594.0434
 104874920.27448  81720764.99946  19956996.3524                   19957004.3164
 116836735.35447  91041718.35244  22233304.8364                   22233313.2774
 126821315.63846  98821705.31143  24133256.7344                   24133264.6374
 114180243.76848  88971699.99446  21727770.0004                   21727777.0084
 118257265.00747  92148657.93545  22503608.0084                   22503615.9144
 117921638.50647  91887057.10345  22439745.6024                   22439754.1724
 11  7 24  0 12  0.0000000  0  8G17G10G04G09G20G28G02G27
 112017782.606 8                  21316264.820
 124836655.67546  97275438.61743  23755628.8984                   23755638.7814
 104853572.23948  81704130.18146  19952934.1414                   19952941.8634
 116802727.70447  91015218.84644  22226833.9064                   22226841.5594
 126850133.30146  98844160.61143  24138740.5784                   24138748.5234
 114227398.23348  89008443.71145  21736743.1484                   21736750.2584
 118174267.18947  92083984.38145  22487814.6484                   22487821.7464
 117906228.63247  91875049.40745  22436813.1644                   22436821.2974
 11  7 24  0 12 30.0000000  0  8G17G10G04G09G20G28G02G27
 112048155.588 7                  21322045.023
 124742310.42346  97201922.98143  23737674.2274                   23737685.3674
 104832798.72548  81687943.04946  19948981.0944                   19948988.7114
 116769347.47647  90989208.23844  22220481.3834                   22220489.4884
 126879452.54646  98867006.75443  24144319.7974                   24144327.4144
 114274922.90448  89045475.88845  21745786.8054                   21745794.4774
 118091544.08247  92019524.90845  22472073.4304                   22472080.1914
 117891310.72947  91863425.05745  22433974.3134                   22433982.3954
 11  7 24  0 13  0.0000000  0  8G17G10G04G09G20G28G02G27
 112078629.305 8                  21327843.273
 124647976.60446  97128416.26543  23719724.0164                   23719734.8594
 104812599.91348  81672203.72146  19945137.2424                   19945145.1764
 116736595.51447  90963687.22044  22214248.5394                   22214257.0004
 126909272.90746  98890243.38643  24149994.9304                   24150002.7194
 114322817.95648  89082796.67846  21754900.9844                   21754908.0434
 118009097.53447  91955280.92245  22456384.6414                   22456391.2934
 117876885.15648  91852184.33945  22431229.7584                   22431237.4924
 11  7 24  0 13 30.0000000  0  8G17G10G04G09G20G28G02G27
 112109202.942 8                  21333661.344
 124553657.39246  97054920.95343  23701774.9774                   23701786.7664
 104792975.58148  81656912.05546  19941403.0084                   19941410.7894
 116704472.58847  90938656.33544  22208136.7814                   22208144.5274
 126939594.18256  98913870.33353  24155764.2664                   24155772.8674
 114371083.30148  89120406.01545  21764085.8524                   21764092.3714
 117926928.51247  91891253.23045  22440748.0784                   22440754.4414
 117862951.94148  91841327.27645  22428578.1484                   22428586.4884
 11  7 24  0 14  0.0000000  0  8G17G10G04G09G20G28G02G27
 112139876.736 8                  21339498.281
 124459356.18546  96981439.66144  23683829.6884                   23683841.1374
 104773925.99748  81642068.23446  19937777.8984                   19937785.8134
 116672979.70947  90914116.42644  22202142.7504                   22202151.1884
 126970415.73747  98937887.21943  24161630.1024                   24161637.2114
 114419719.18148  89158304.07445  21773340.6174                   21773347.1334
 117845038.83947  91827443.19545  22425164.7584                   22425171.5474
 117849511.47347  91830854.16145  22426020.3754                   22426028.7344
 11  7 24  0 14 30.0000000  0  8G17G10G04G09G20G28G02G27
 112170649.701 7                  21345354.102
 124365075.43647  96907974.30844  23665888.5704                   23665899.2194
 104755450.47248  81627671.73346  19934262.3204                   19934269.6914
 116642117.39147  90890067.85844  22196270.3594                   22196278.1094
 127001737.09946  98962293.49043  24167590.2504                   24167597.3834
 114468725.44448  89196490.74246  21782666.3834                   21782673.3134
 117763429.64547  91763851.69645  22409634.7894                   22409641.7624
 117836563.58248  91820764.89245  22423556.6334                   22423564.9884
 11  7 24  0 15  0.0000000  0  8G17G10G04G09G20G28G02G27
 112201521.592 8                  21351229.391
 124270818.77847  96834527.74844  23647952.2424                   23647962.5664
 104737549.58648  81613723.00146  19930855.9614                   19930863.3134
 116611887.02147  90866511.73544  22190517.1724                   22190525.5704
 127033557.70946  98987088.76643  24173645.3134                   24173652.2074
 114518102.64448  89234966.45045  21792062.4844                   21792069.3914
 117682102.54147  91700480.00145  22394158.5554                   22394165.4574
 117824108.62948  91811059.73145  22421186.7114                   22421194.7734
 11  7 24  0 15 30.0000000  0  8G17G10G04G09G20G28G02G27
 112232491.761 8                  21357122.703
 124176588.55247  96761101.77344  23630020.9924                   23630030.4614
 104720222.39948  81600221.30446  19927558.1804                   19927565.5864
 116582289.01047  90843448.36544  22184884.8754                   22184892.6764
 127065877.28746  99012272.95743  24179794.9384                   24179802.8484
 114567850.55348  89273731.03845  21801529.1724                   21801536.5744
 117601058.70547  91637329.06545  22378736.1484                   22378743.9104
 117812146.19648  91801738.35045  22418910.0474                   22418918.3794
 11  7 24  0 16  0.0000000  0  8G17G10G04G09G20G28G02G27
 112263559.939 8                  21363034.906
 124082388.37147  96687699.25044  23612095.4534                   23612105.1604
 104703469.35048  81587166.99446  19924370.3524                   19924378.4454
 116553324.20847  90820878.42744  22179372.7734                   22179381.3244
 127098694.95445  99037845.22742  24186039.2664                   24186047.6804
 114617969.80847  89312784.95145  21811065.9614                   21811073.6994
 117520299.86447  91574400.17545  22363368.7114                   22363375.0394
 117800676.74647  91792801.10645  22416728.0164                   22416735.6764
 11  7 24  0 16 30.0000000  0  8G17G10G04G09G20G28G02G27
 112294726.005 8                  21368965.953
 123988221.59847  96614322.73444  23594175.3444                   23594185.3834
 104687290.04648  81574559.75746  19921291.5704                   19921298.8914
 116524993.22347  90798802.38044  22173981.7274                   22173990.2504
 127132010.71446  99063805.50243  24192379.8054                   24192387.4224
 114668459.68348  89352127.68345  21820674.2274                   21820682.0904
 117439827.24347  91511694.31845  22348055.2504                   22348061.9654
 117789700.07348  91784247.85445  22414638.4614                   22414646.9574
 11  7 24  0 17  0.0000000  0  8G17G10G04G09G20G28G02G27
 112325989.642 8                  21374914.406
 123894090.89147  96540974.29544  23576263.1024                   23576272.9384
 104671684.30548  81562399.44946  19918322.2274                   19918329.6414
 116497296.85847  90777220.84044  22168711.7664                   22168719.9104
 127165823.68846  99090153.31942  24198813.9454                   24198822.1254
 114719320.82548  89391759.71645  21830352.8754                   21830360.1914
 117359642.10347  91449212.47245  22332796.0474                   22332802.8914
 117779216.34648  91776078.72445  22412643.7504                   22412652.1684
 11  7 24  0 17 30.0000000  0  8G17G10G04G09G20G28G02G27
 112357349.996 8                  21380882.367
 123799999.79547  96467656.74244  23558357.8364                   23558367.9734
 104656652.17748  81550686.11746  19915460.8834                   19915469.0744
 116470235.90247  90756134.44144  22163561.4924                   22163570.0744
 127200133.44246  99116888.27243  24205344.0394                   24205350.8054
 114770553.21447  89431681.02545  21840102.4534                   21840109.3164
 117279746.17647  91386955.97745  22317592.1724                   22317599.5274
 117769225.73748  91768293.83945  22410742.2894                   22410751.1334
 11  7 24  0 18  0.0000000  0  8G17G10G04G09G20G28G02G27
 112388807.166 8                  21386868.680
 123705951.00146  96394372.12743  23540461.0554                   23540470.8054
 104642193.25348  81539419.44346  19912709.5944                   19912717.6804
 116443810.99147  90735543.61344  22158533.0474                   22158541.1024
 127234939.43746  99144009.78743  24211966.3054                   24211975.1524
 114822156.86647  89471891.63645  21849921.7734                   21849929.5394
 117200140.78848  91324925.86445  22302443.8914                   22302450.5864
 117759728.05048  91760893.06545  22408935.2344                   22408943.0314
 11  7 24  0 18 30.0000000  0  8G17G10G04G09G20G28G02G27
 112420360.448 8                  21392872.289
 123611947.86346  96321123.11043  23522572.2734                   23522582.6884
 104628307.16548  81528599.12746  19910067.7034                   19910074.9844
 116418022.54647  90715448.72244  22153625.9384                   22153634.0864
 127270240.84246  99171517.46242  24218683.5784                   24218692.3404
 114874131.70047  89512391.50445  21859812.2894                   21859820.0044
 117120826.96348  91263122.95945  22287351.4064                   22287358.0394
 117750723.07447  91753876.21445  22407221.6724                   22407229.8364
 11  7 24  0 19  0.0000000  0  8G17G10G04G09G20G28G02G27
 112452009.836 8                  21398895.289
 123517993.84846  96247912.36243  23504692.9694                   23504703.8404
 104614994.08048  81518225.31846  19907534.0234                   19907541.6564
 116392871.35047  90695850.42144  22148839.7664                   22148848.5084
 127306037.29046  99199410.76943  24225495.6414                   24225504.0634
 114926477.93747  89553180.75545  21869773.9304                   21869781.0004
 117041806.47448  91201548.62246  22272313.9224                   22272320.7504
 117742210.87947  91747243.33245  22405601.8284                   22405609.6604
 11  7 24  0 19 30.0000000  0  8G17G10G04G09G20G28G02G27
 112483754.635 8                  21404936.086
 123424091.44346  96174741.82743  23486822.9774                   23486834.8204
 104602252.95648  81508297.18546  19905109.3914                   19905117.1174
 116368357.81347  90676748.92844  22144175.7274                   22144183.3634
 127342327.69246  99227688.99943  24232401.3284                   24232409.3874
 114979195.19147  89594259.12045  21879805.7664                   21879813.0004
 116963080.38448  91140203.68945  22257332.8674                   22257339.6604
 117734191.13247  91740994.20045  22404075.4144                   22404083.6054
 11  7 24  0 20  0.0000000  0  8G17G10G04G09G20G28G02G27
 112515594.598 7                  21410995.352
 123330244.22546  96101614.27843  23468964.5004                   23468975.2814
 104590083.79248  81498814.74246  19902793.6884                   19902801.5944
 116344482.51447  90658144.82144  22139631.9694                   22139640.2114
 127379111.76846  99256351.99843  24239401.6024                   24239409.5314
 115032283.72547  89635626.80745  21889907.6414                   21889915.1914
 116884650.01248  91079089.18045  22242408.1884                   22242414.8284
 117726663.80847  91735128.75145  22402643.6174                   22402651.2114
 11  7 24  0 20 30.0000000  0  8G17G10G04G09G20G28G02G27
 112547529.822 8                  21417072.445
 123236455.40446  96028532.19043  23451117.5944                   23451127.4884
 104578486.52648  81489777.92946  19900586.8284                   19900594.8484
 116321246.24847  90640038.59444  22135209.5704                   22135217.4924
 127416388.60346  99285398.88543  24246494.4924                   24246502.9384
 115085743.60147  89677283.83145  21900081.1954                   21900088.3164
 116806516.86948  91018206.28645  22227539.6024                   22227545.8914
 117719629.06847  91729647.13645  22401304.9224                   22401312.6134
 11  7 24  0 21  0.0000000  0  8G17G10G04G09G20G28G02G27
 112579559.432 8                  21423167.719
 123142727.95646  95955497.91744  23433282.6254                   23433291.5234
 104567460.05348  81481185.89846  19898488.6564                   19898496.5474
 116298649.17847  90622430.46044  22130909.8524                   22130918.3594
 127454157.24946  99314829.07343  24253681.4924                   24253689.7814
 115139574.26747  89719229.78145  21910324.6174                   21910331.4534
 116728681.82348  90957555.67045  22212728.6174                   22212734.6804
 117713086.36147  91724548.92045  22400059.6564                   22400067.7664
 11  7 24  0 21 30.0000000  0  8G17G10G04G09G20G28G02G27
 112611683.220 8                  21429280.188
 123049064.92846  95882513.85444  23415458.8364                   23415468.8364
 104557004.11248  81473038.43446  19896499.0234                   19896506.5204
 116276691.55747  90605320.58145  22126731.6724                   22126739.9344
 127492417.08846  99344641.90043  24260962.3524                   24260970.4804
 115193775.86347  89761464.76245  21920638.6954                   21920645.8204
 116651146.37848  90897138.51945  22197974.0394                   22197979.6684
 117707035.32247  91719833.82445  22398908.0784                   22398915.4654
 11  7 24  0 22  0.0000000  0  8G17G10G04G09G20G28G02G27
 112643900.798 7                  21435411.023
 122955469.55347  95809582.49044  23397648.1644                   23397658.0744
 104547118.59648  81465335.45646  19894617.8134                   19894625.2384
 116255374.00047  90588709.45345  22122675.6414                   22122683.3484
 127531167.47746  99374837.03643  24268336.8984                   24268345.1804
 115248348.34047  89803988.75645  21931024.0474                   21931031.2344
 116573911.89648  90836955.88445  22183276.0634                   22183282.2974
 117701476.11147  91715501.95345  22397850.3054                   22397858.3874
 11  7 24  0 22 30.0000000  0  8G17G10G04G09G20G28G02G27
 112676212.012 8                  21441560.070
 122861944.86247  95736706.18944  23379850.7504                   23379860.9924
 104537802.77748  81458076.40246  19892844.8914                   19892852.8244
 116234696.81347  90572597.32045  22118740.2584                   22118748.6884
 127570407.45446  99405413.63143  24275803.5704                   24275811.7584
 115303291.43947  89846801.54245  21941479.2894                   21941486.4884
 116496979.55648  90777008.66045  22168636.2424                   22168642.7934
 117696408.33547  91711553.01845  22396886.2274                   22396893.4844
 11  7 24  0 23  0.0000000  0  8G17G10G04G09G20G28G02G27
 112708616.855 8                  21447726.672
 122768494.45347  95663887.76144  23362068.8204                   23362077.6914
 104529056.51147  81451261.16446  19891180.8594                   19891188.3324
 116214660.54647  90556984.59945  22114927.7974                   22114936.2234
 127610136.37846  99436371.20443  24283364.0634                   24283372.4224
 115358605.41647  89889903.31545  21952005.1804                   21952011.5274
 116420350.70548  90717297.95645  22154054.3914                   22154060.4844
 117691832.00848  91707987.02345  22396015.0164                   22396023.3404
 11  7 24  0 23 30.0000000  0  8G17G10G04G09G20G28G02G27
 112741114.577 8                  21453910.930
 122675121.32047  95591129.59244  23344299.6564                   23344309.5704
 104520878.59948  81444888.78646  19889624.2814                   19889632.0904
 116195265.01247  90541871.18645  22111236.6174                   22111245.2664
 127650353.14346  99467708.94443  24291016.9534                   24291025.3324
 115414289.61347  89933293.58545  21962601.1564                   21962608.5394
 116344026.51648  90657824.64545  22139530.2974                   22139536.5554
 117687746.41247  91704803.43045  22395237.5634                   22395245.5084
 11  7 24  0 24  0.0000000  0  8G17G10G04G09G20G28G02G27
 112773704.994 8                  21460112.234
 122581828.81147  95518434.21644  23326546.2734                   23326556.3914
 104513268.99747  81438959.25746  19888176.3594                   19888184.0554
 116176511.07447  90527257.69745  22107668.1174                   22107677.1524
 127691056.99746  99499426.23943  24298763.1254                   24298770.8754
 115470343.96347  89976972.26345  21973268.0634                   21973275.1644
 116268008.22647  90598589.67145  22125063.9304                   22125070.5234
 117684151.55247  91702002.21845  22394553.6174                   22394561.7464
 11  7 24  0 24 30.0000000  0  8G17G10G04G09G20G28G02G27
 112806388.054 8                  21466331.422
 122488620.02146  95445804.09744  23308808.7194                   23308818.5634
 104506227.27647  81433472.22146  19886836.3134                   19886843.8054
 116158398.79847  90513144.23645  22104221.5784                   22104229.7854
 127732247.21846  99531522.54543  24306600.5084                   24306608.9184
 115526768.75847  90020939.60245  21984005.8594                   21984012.9964
 116192297.12948  90539594.06545  22110657.4304                   22110663.6374
 117681047.02247  91699583.08545  22393962.1024                   22393970.5234
 11  7 24  0 25  0.0000000  0  8G17G10G04G09G20G28G02G27
 112839163.429 8                  21472568.422
 122395498.36347  95373241.85944  23291088.1804                   23291098.2034
 104499752.74648  81428427.15146  19885604.5474                   19885611.8594
 116140928.52247  90499531.04345  22100896.6724                   22100905.2934
 127773922.82846  99563997.08243  24314530.9064                   24314539.2974
 115583563.74747  90065195.41145  21994812.7734                   21994820.1884
 116116894.48948  90480838.83845  22096308.2344                   22096314.7034
 117678432.52747  91697545.79145  22393465.2424                   22393473.4414
 11  7 24  0 25 30.0000000  0  8G17G10G04G09G20G28G02G27
 112872030.704 8                  21478823.273
 122302466.86946  95300749.91244  23273384.8444                   23273394.8554
 104493844.61448  81423823.42646  19884479.8134                   19884487.3204
 116124100.23647  90486418.10245  22097694.8594                   22097702.8054
 127816082.91046  99596849.10243  24322554.3674                   24322562.5514
 115640728.54247  90109739.36845  22005691.4064                   22005698.7734
 116041801.50147  90422324.87045  22082018.7974                   22082024.7344
 117676307.60748  91695889.98745  22393060.7274                   22393068.9844
 11  7 24  0 26  0.0000000  0  8G17G10G04G09G20G28G02G27
 112904990.170 8                  21485094.391
 122209528.62246  95228330.60043  23255699.1414                   23255709.0744
 104488502.24248  81419660.55846  19883463.2194                   19883470.9494
 116107914.26647  90473805.68045  22094614.3054                   22094622.7304
 127858726.66247  99630078.08943  24330668.2424                   24330676.9734
 115698262.97847  90154571.34945  22016639.7504                   22016646.9734
 115967019.31548  90364053.09445  22067788.5164                   22067794.0164
 117674671.94047  91694615.42845  22392749.3364                   22392758.0664
 11  7 24  0 26 30.0000000  0  8G17G10G04G09G20G28G02G27
 112938041.269 8                  21491384.219
 122116687.38346  95155986.84943  23238032.3524                   23238041.7854
 104483725.50947  81415938.43446  19882554.4144                   19882561.6804
 116092370.78647  90461693.88845  22091656.7664                   22091664.9024
 127901853.02746  99663683.04843  24338876.2584                   24338883.8284
 115756167.23847  90199691.49245  22027658.7344                   22027666.4184
 115892549.32548  90306024.61446  22053616.9064                   22053623.4884
 117673525.31047  91693721.91645  22392531.3674                   22392539.6564
 11  7 24  0 27  0.0000000  0  8G17G10G04G09G20G28G02G27
 112971183.643 8                  21497691.180
 122023945.96346  95083720.88743  23220383.6724                   23220394.2584
 104479513.44248  81412656.31646  19881752.4144                   19881760.6334
 116077469.69548  90450082.67745  22088821.6804                   22088829.3054
 127945461.13947  99697663.40543  24347174.7504                   24347181.7424
 115814440.71047  90245099.36445  22038747.6564                   22038755.0944
 115818392.75848  90248240.34546  22039505.3054                   22039511.5704
 117672867.21047  91693209.10445  22392405.8754                   22392414.4844
 11  7 24  0 27 30.0000000  0  8G17G10G04G09G20G28G02G27
 113004416.838 8                  21504015.180
 121931307.75146  95011535.33243  23202755.9694                   23202765.1454
 104475864.96247  81409813.35446  19881058.3984                   19881065.9534
 116063210.94448  90438971.98745  22086108.0944                   22086116.3204
 127989549.61646  99732018.11443  24355564.1954                   24355572.1334
 115873082.97547  90290794.59145  22049907.3444                   22049914.4494
 115744550.20848  90190700.76546  22025453.3444                   22025459.6764
 117672696.79147  91693076.28845  22392373.9534                   22392381.5904
 11  7 24  0 28  0.0000000  0  8G17G10G04G09G20G28G02G27
 113037741.225 8                  21510356.258
 121838775.85746  94939432.67444  23185148.1174                   23185157.2304
 104472779.47747  81407409.08646  19880471.2034                   19880478.6954
 116049594.84948  90428362.05445  22083516.6414                   22083524.9924
 128034117.48646  99766746.31143  24364044.5474                   24364053.1524
 115932093.66847  90336776.90245  22061136.6024                   22061143.5314
 115671023.01148  90133406.90946  22011461.7584                   22011468.0354
 117673013.85047  91693323.32545  22392434.2424                   22392442.4574
 11  7 24  0 28 30.0000000  0  8G17G10G04G09G20G28G02G27
 113071156.296 8                  21516715.203
 121746353.46746  94867415.33744  23167559.9694                   23167569.6764
 104470256.60448  81405443.21446  19879991.0164                   19879999.0354
 116036621.35648  90418252.86545  22081047.9924                   22081056.2384
 128079164.14846  99801847.59943  24372616.6884                   24372625.0124
 115991472.85147  90383046.35945  22072436.2274                   22072443.3204
 115597812.58448  90076359.88046  21997530.3754                   21997536.7544
 117673817.87747  91693949.81345  22392586.8914                   22392595.5044
 11  7 24  0 29  0.0000000  0  9G17G10G12G04G09G20G28G02G27
 113104662.083 8                  21523091.195
 121654044.35146  94795486.24644  23149994.2114                   23150003.3364
 129467814.11017                  24636921.383
 104468295.45348  81403915.05146  19879618.3134                   19879625.4304
 116024290.61948  90408644.50445  22078701.5944                   22078709.9804
 128124688.20746  99837320.90843  24381279.6024                   24381288.1174
 116051220.30047  90429602.77145  22083805.4224                   22083813.1604
 115524920.14848  90019560.63546  21983659.2114                   21983665.5274
 117675108.47347  91694955.45945  22392832.3984                   22392841.1954
 11  7 24  0 29 30.0000000  0  9G17G10G12G04G09G20G28G02G27
 113138258.294 8                  21529484.328
 121561851.61247  94723647.83644  23132450.6334                   23132459.8244
 129370937.042 7                  24618486.023
 104466895.16147  81402823.91646  19879351.6414                   19879359.1644
 116012602.53347  90399536.93545  22076477.4534                   22076485.7304
 128170688.94345  99873165.61242  24390033.4534                   24390041.8054
 116111335.70547  90476445.91345  22095245.2974                   22095252.9384
 115452346.97548  89963010.16046  21969849.0554                   21969855.4804
 117676885.23647  91696339.94145  22393171.0164                   22393179.3834
 11  7 24  0 30  0.0000000  0  9G17G10G12G04G09G20G28G02G27
 113171945.214 8                  21535894.977
 121469778.37947  94651902.58644  23114929.1024                   23114938.5634
 129274039.768 6                  24600047.922
 104466055.28348  81402169.47146  19879191.7034                   19879199.4414
 116001557.13847  90390930.15445  22074375.4384                   22074383.8324
 128217165.31246  99909380.95842  24398877.5474                   24398885.7194
 116171818.64347  90523575.45145  22106754.7734                   22106762.2344
 115380093.77648  89906709.03646  21956099.4694                   21956106.2034
 117679147.71147  91698102.89245  22393601.2734                   22393610.2814
 11  7 24  0 30 30.0000000  0  9G17G10G12G04G09G20G28G02G27
 113205721.974 8                  21542322.570
 121377827.89547  94580252.95544  23097431.6254                   23097439.9924
 129177123.937 6                  24581604.398
 104465774.66948  81401950.82046  19879138.2894                   19879145.6374
 115991154.04047  90382823.84745  22072395.5704                   22072403.7894
 128264115.56946  99945965.64342  24407812.0704                   24407819.8444
 116232668.84747  90570991.14345  22118334.2664                   22118341.6524
 115308161.76248  89850658.17546  21942411.0474                   21942417.0634
 117681894.93847  91700243.56445  22394123.8364                   22394132.3134
 11  7 24  0 31  0.0000000  0  9G17G10G12G04G09G20G28G02G27
 113239588.850 7                  21548767.211
 121286003.31747  94508701.45344  23079958.2894                   23079966.7894
 129080191.124 6                  24563159.383
 104466052.41747  81402167.25746  19879190.8444                   19879198.5124
 115981393.03147  90375217.87945  22070538.1174                   22070546.4654
 128311539.31745  99982919.12542  24416836.6024                   24416844.8794
 116293885.93047  90618692.74345  22129983.5084                   22129990.2894
 115236552.08348  89794858.47645  21928784.0084                   21928790.0164
 117685126.66547  91702761.78245  22394739.4454                   22394747.5044
 11  7 24  0 31 30.0000000  0  9G17G10G12G04G09G20G28G02G27
 113273545.052 7                  21555228.086
 121194308.11546  94437250.74244  23062508.5554                   23062517.4224
 128983242.818 6                  24544710.188
 104466887.53448  81402818.00346  19879350.1884                   19879357.6954
 115972273.88447  90368112.05745  22068802.7424                   22068811.5944
 128359434.72345 100020240.15042  24425950.1024                   24425959.1174
 116355469.40347  90666679.81645  22141702.4924                   22141709.9734
 115165265.65347  89739310.64845  21915218.4144                   21915224.9574
 117688842.01347  91705656.84045  22395446.2894                   22395454.6094
 11  7 24  0 32  0.0000000  0  9G17G10G12G04G09G20G28G02G27
 113307591.044 8                  21561707.898
 121102745.51946  94365903.34844  23045083.9774                   23045094.2154
 128886280.888 6                  24526258.305
 104468279.49448  81403902.65846  19879615.0164                   19879622.1054
 115963796.68847  90361506.46445  22067190.0474                   22067198.0784
 128407800.81654 100057928.07352  24435151.6334                   24435163.0824
 116417418.92247  90714952.14845  22153491.1724                   22153498.7814
 115094303.68747  89684015.64445  21901715.2034                   21901721.0044
 117693040.40047  91708928.29845  22396245.2734                   22396254.1914
 11  7 24  0 32 30.0000000  0  9G17G10G12G04G09G20G28G02G27
 113341727.059 7                  21568203.414
 121011319.24546  94294662.20144  23027686.8834                   23027696.5824
 128789307.759 6                  24507804.398
 104470227.71048  81405420.75646  19879985.4304                   19879992.7504
 115955961.73047  90355401.31445  22065699.1884                   22065706.9344
 128456635.20115                  24444447.383
 116479734.66247  90763509.86245  22165349.1334                   22165356.3984
 115023667.96447  89628974.86145  21888273.8834                   21888279.9884
 117697721.88447  91712576.19245  22397135.4924                   22397144.6374
 11  7 24  0 33  0.0000000  0  9G17G10G12G04G09G20G28G02G27
 113375951.824 8                  21574716.234
 120920031.63746  94223529.09744  23010315.2734                   23010324.7504
 128692323.420 6                  24489349.617
 104472730.10848  81407370.69746  19880461.8984                   19880469.3134
 115948767.34547  90349795.31945  22064329.9384                   22064338.3404
 128505939.529 5                  24453830.539
 116542414.86447  90812351.53345  22177276.8834                   22177284.4224
 114953358.01848  89574187.94145  21874894.0784                   21874900.4454
 117702884.46647  91716598.96145  22398118.2194                   22398126.9064
 11  7 24  0 33 30.0000000  0  9G17G10G12G04G09G20G28G02G27
 113410265.887 7                  21581245.594
 120828886.47347  94152507.03744  22992970.4774                   22992980.6564
 128595330.602 6                  24470892.906
 104475786.37048  81409752.20246  19881043.5474                   19881051.1684
 115942214.01747  90344688.81545  22063083.1644                   22063091.0634
 128555710.72615                  24463300.625
 116605460.05547  90861477.61645  22189274.2664                   22189281.6094
 114883375.61248  89519656.24645  21861577.0634                   21861583.1294
 117708528.09347  91720996.60445  22399192.4694                   22399201.1884
 11  7 24  0 34  0.0000000  0  9G17G10G12G04G09G20G28G02G27
 113444668.603 7                  21587792.648
 120737886.63946  94081598.19444  22975654.0474                   22975663.5944
 128498330.596 6                  24452434.086
 104479394.92648  81412564.07346  19881730.0864                   19881737.9104
 115936301.04047  90340081.31945  22061957.4534                   22061965.9534
 128605947.670 5                  24472860.328
 116668869.19747  90910887.31745  22201340.8444                   22201347.9454
 114813721.39948  89465380.27546  21848322.6564                   21848328.4964
 117714651.48147  91725768.06045  22400357.9614                   22400366.3794
 11  7 24  0 34 30.0000000  0  9G17G10G12G04G09G20G28G02G27
 113479160.465 7                  21594356.250
 120647035.73646  94010805.38544  22958365.8444                   22958375.7544
 128401325.502 6                  24433973.977
 104483555.55048  81415806.12946  19882521.7344                   19882529.5784
 115931028.59447  90335972.91045  22060954.1564                   22060962.3284
 128656649.364 5                  24482510.016
 116732642.33047  90960580.62445  22213476.1174                   22213483.3554
 114744396.97448  89411361.29246  21835130.2894                   21835136.6054
 117721254.59347  91730913.33445  22401613.9064                   22401622.6094
 11  7 24  0 35  0.0000000  0  9G17G10G12G04G09G20G28G02G27
 113513740.859 7                  21600936.789
 120556336.94246  93940131.09344  22941106.6804                   22941115.8164
 128304316.669 6                  24415514.539
 104488266.57548  81419477.06946  19883418.0944                   19883425.5904
 115926395.77547  90332362.91545  22060072.8524                   22060080.9024
 128707814.43615                  24492246.781
 116796778.66347  91010556.96445  22225680.4614                   22225688.0474
 114675402.94348  89357599.77146  21822001.1884                   21822007.3794
 117728336.33047  91736431.57745  22402961.7894                   22402970.2424
 11  7 24  0 35 30.0000000  0  9G17G10G12G04G09G20G28G02G27
 113548411.034 7                  21607534.109
 120465794.70847  93869578.81644  22923876.8594                   22923885.8714
 128207306.940 6                  24397054.023
 104493528.48948  81423577.26846  19884419.9384                   19884426.6994
 115922403.37147  90329251.93845  22059313.1724                   22059321.6804
                                  24502068.063
 116861279.05547  91060816.98945  22237954.7814                   22237962.8984
 114606741.34248  89304097.26446  21808935.0394                   21808941.4574
 117735897.14347  91742323.12345  22404400.3594                   22404408.8674
 11  7 24  0 36  0.0000000  0  9G17G10G12G04G09G20G28G02G27
 113583168.758 7                  21614148.953
 120375410.29147  93799149.50644  22906677.1954                   22906685.8594
 128110296.141 7                  24378593.555
 104499338.00248  81428104.17346  19885525.3284                   19885532.2424
 115919048.96247  90326638.10545  22058674.6954                   22058682.8324
 128811261.85515                  24511982.477
 116926140.65847  91111358.46445  22250297.1484                   22250305.3484
 114538411.30748  89250853.12746  21795932.6954                   21795938.6054
 117743934.16247  91748585.73045  22405929.9534                   22405938.4344
 11  7 24  0 36 30.0000000  0  8G17G10G12G04G09G28G02G27
 113618015.745 7                  21620779.875
 120285188.82647  93728847.16544  22889508.4384                   22889516.8364
 128013287.687 7                  24360133.500
 104505695.80948  81433058.30646  19886734.9064                   19886742.0354
 115916333.80847  90324522.38145  22058158.5234                   22058166.6564
 116991365.04447  91162182.63045  22262709.3984                   22262716.8914
 114470415.55048  89197869.46446  21782993.0634                   21782999.2974
 117752448.36747  91755220.15845  22407550.0944                   22407558.0664
 11  7 24  0 37  0.0000000  0  9G17G10G12G04G09G20G28G02G27
 113652947.926 7                  21627426.992
 120195129.87347  93658671.46244  22872370.7584                   22872379.0634
 127916279.149 6                  24341673.031
 104512596.69548  81438435.63446  19888048.0314                   19888055.3014
 115914253.49247  90322901.31145  22057762.3524                   22057770.0314
 128916817.35115                  24532095.391
 117056947.47047  91213285.77645  22275189.6644                   22275197.1174
 114402750.86948  89145143.80146  21770116.9144                   21770122.7814
 117761434.61747  91762222.44345  22409259.7584                   22409268.6254
 11  7 24  0 37 30.0000000  0  8G17G10G12G04G09G28G02G27
 113687969.667 7                  21634091.688
 120105240.76647  93588628.10144  22855265.3134                   22855273.7274
 127819277.099 7                  24323214.047
 104520044.00448  81444238.74346  19889465.3674                   19889472.6374
 115912811.37147  90321777.54545  22057487.6094                   22057495.9494
 117122891.79147  91264670.92845  22287738.3284                   22287745.9774
 114335422.37048  89092680.08846  21757304.6174                   21757310.6884
 117770896.37547  91769595.22145  22411060.6564                   22411069.0474
 11  7 24  0 38  0.0000000  0  8G17G10G12G04G09G28G02G27
 113723083.386 7                  21640773.352
 120015527.19747  93518721.51444  22838193.0394                   22838201.1054
 127722285.836 7                  24304757.148
 104528038.78348  81450468.44746  19890986.8984                   19890994.3714
 115912009.76947  90321152.90545  22057334.5234                   22057343.6414
 117189199.73847  91316339.44845  22300356.2974                   22300363.9184
 114268433.82248  89040481.26646  21744557.2034                   21744562.8754
 117780835.33847  91777339.86745  22412951.7274                   22412960.4734
 11  7 24  0 38 30.0000000  0  9G17G10G12G04G09G20G28G02G27
 113758285.322 7                  21647471.992
 119925988.90647  93448951.48844  22821154.5004                   22821162.8094
 127625303.300 7                  24286302.344
 104536576.56148  81457121.27746  19892610.9844                   19892618.5274
 115911844.47847  90321024.07145  22057303.6644                   22057311.9344
 129078951.25915                  24562890.313
 117255867.13047  91368288.04545  22313042.7194                   22313050.1644
 114201782.61948  88988545.30546  21731873.5084                   21731879.3094
 117791247.02247  91785452.86845  22414933.1884                   22414942.0004
 11  7 24  0 39  0.0000000  0  8G17G10G12G04G09G28G02G27
 113793573.440 7                  21654187.305
 119836627.46347  93379319.29444  22804150.0164                   22804158.2304
 127528329.166 7                  24267849.398
 104545654.20648  81464194.77946  19894338.8364                   19894346.1524
 115912313.06547  90321389.17145  22057392.7344                   22057400.9734
 117322891.51947  91420514.82445  22325797.1564                   22325804.6484
 114135467.32748  88936871.11346  21719254.1564                   21719260.1914
 117802128.57247  91793931.98645  22417003.5704                   22417012.8284
 11  7 24  0 39 30.0000000  0  8G17G10G12G04G09G28G02G27
 113828952.146 7                  21660919.563
 119747450.39847  93309830.74244  22787179.4384                   22787188.5164
 127431369.581 7                  24249397.719
 104555274.55948  81471691.17446  19896169.3054                   19896176.9224
 115913418.66847  90322250.66845  22057603.4774                   22057611.8484
 117390276.54747  91473022.60645  22338619.8914                   22338627.1454
 114069493.20148  88885462.74446  21706699.3444                   21706705.3524
 117813483.26647  91802779.77445  22419164.6254                   22419173.1054
 11  7 24  0 40  0.0000000  0  8G17G10G12G04G09G28G02G27
 113864418.760 7                  21667668.031
 119658458.48447  93240486.45644  22770245.7894                   22770254.3674
 127334423.980 7                  24230949.617
 104565433.77748  81479607.45846  19898102.8364                   19898110.1844
 115915157.95047  90323605.93045  22057934.9384                   22057943.4494
 117458018.91247  91525808.84745  22351511.0084                   22351519.1174
 114003858.52848  88834318.88046  21694209.9844                   21694216.0594
 117825307.49547  91811993.44745  22421414.7734                   22421423.4884
 11  7 24  0 40 30.0000000  0  8G17G10G12G04G09G28G02G27
 113899973.243 7                  21674434.477
 119569655.02147  93171289.03644  22753346.4454                   22753356.0864
 127237494.488 6                  24212504.477
 104576130.96448  81487942.94246  19900138.1954                   19900145.3164
 115917530.75347  90325454.84645  22058386.2734                   22058393.9964
 117526118.27547  91578873.25545  22364469.8054                   22364477.2544
 113938564.40848  88783440.42146  21681784.0554                   21681790.7624
 117837600.58847  91821572.45545  22423753.8594                   22423763.0394
 11  7 24  0 41  0.0000000  0  8G17G10G12G04G09G28G02G27
 113935615.877 7                  21681217.094
 119481043.64846  93102241.30144  22736483.8834                   22736493.0514
 127140582.586 6                  24194062.734
 104587364.84348  81496696.63146  19902275.6954                   19902283.2424
 115920536.31947  90327796.83445  22058957.8134                   22058966.0314
 117594574.22247  91632215.51845  22377497.0164                   22377504.2894
 113873611.80448  88732828.01146  21669424.4844                   21669430.7114
 117850361.60047  91831516.06945  22426182.1884                   22426190.6564
 11  7 24  0 41 30.0000000  0  8G17G10G12G04G09G28G02G27
 113971346.489 7                  21688016.266
 119392627.62446  93033345.80444  22719658.4224                   22719668.0704
 127043690.747 6                  24175625.234
 104599134.09448  81505867.48146  19904515.8594                   19904523.0944
 115924173.67347  90330631.14145  22059650.1724                   22059658.1294
 117663385.78047  91685834.86845  22390590.9064                   22390598.7774
 113809001.42848  88682482.30246  21657129.5944                   21657135.7304
 117863589.27747  91841823.31745  22428699.5704                   22428708.2814
 11  7 24  0 42  0.0000000  0  8G17G10G12G04G09G28G02G27
 114007165.350 7                  21694832.086
 119304410.59646  92964605.39044  22702871.0004                   22702880.3594
 126946820.722 6                  24157191.031
 104611438.03348  81515454.98946  19906857.1414                   19906864.1844
 115928442.32447  90333957.32945  22060462.7344                   22060471.0514
 117732552.71747  91739731.15145  22403753.0784                   22403760.6174
 113744734.71848  88632404.38446  21644900.0864                   21644906.3834
 117877283.26747  91852493.91345  22431305.2274                   22431314.3094
 11  7 24  0 42 30.0000000  0  8G17G10G12G04G09G28G02G27
 114043072.393 7                  21701665.188
 119216395.86347  92896022.56144  22686121.8594                   22686132.0164
 126849974.089 6                  24138761.211
 104624274.98948  81525457.82246  19909299.6804                   19909307.0984
 115933341.42947  90337774.81145  22061394.6564                   22061403.0904
 117802074.14847  91793903.65645  22416983.3914                   22416990.5664
 113680812.12448  88582594.62046  21632736.2894                   21632742.4964
 117891442.11348  91863526.72845  22433999.9844                   22434008.6724
 11  7 24  0 43  0.0000000  0  8G17G10G12G04G09G28G02G27
 114079067.608 7                  21708515.281
 119128586.47547  92827599.77244  22669412.8134                   22669422.7304
 126753152.734 6                  24120336.289
 104637643.31148  81535874.70946  19911843.7274                   19911850.5124
 115938870.08647  90342082.86145  22062446.4694                   22062455.3134
 117871949.25347  91848351.72044  22430279.3834                   22430287.1414
 113617234.26148  88533053.47746  21620637.5554                   21620644.0274
 117906064.60247  91874920.83745  22436782.4224                   22436791.3054
 11  7 24  0 43 30.0000000  0  8G17G10G12G04G09G28G02G27
 114115151.010 7                  21715381.398
 119040985.71947  92759339.53244  22652743.2504                   22652752.0274
 126656358.663 7                  24101918.094
 104651541.56048  81546704.51746  19914488.7034                   19914495.8054
 115945027.09547  90346880.52145  22063618.4844                   22063626.9024
 117942177.28047  91903074.84344  22443643.2894                   22443650.4264
 113554002.13148  88483781.73346  21608604.9774                   21608611.0904
 117921149.65147  91886675.37345  22439653.1024                   22439662.1804
 11  7 24  0 44  0.0000000  0  8G17G10G12G04G09G28G02G27
 114151322.957 7                  21722264.680
 118953597.11747  92691244.61845  22636113.6724                   22636123.0004
 126559593.913 7                  24083504.180
 104665968.92348  81557946.63946  19917233.6254                   19917240.9494
 115951811.95347  90352167.42245  22064909.8594                   22064917.8054
 118012757.70347  91958072.52844  22457074.0394                   22457082.0474
 113491116.53248  88434780.01646  21596637.9694                   21596644.1294
 117936696.45747  91898789.71545  22442611.8134                   22442620.3404
 11  7 24  0 44 30.0000000  0  8G17G10G12G04G09G28G02G27
 114187582.848 7                  21729164.977
 118866423.79947  92623317.45545  22619524.8054                   22619534.0784
 126462860.023 7                  24065096.477
 104680923.39748  81569599.47246  19920079.8444                   19920087.0864
 115959223.22747  90357942.45045  22066319.8134                   22066327.9494
 118083689.51647  92013344.01844  22470573.1484                   22470579.4774
 113428577.86148  88386048.63046  21584737.7034                   21584742.9304
 117952703.30147  91911262.53845  22445657.5164                   22445666.3014
 11  7 24  0 45  0.0000000  0  8G17G10G12G04G09G28G02G27
 114223930.933 7                  21736081.492
 118779469.38147  92555560.85244  22602978.5784                   22602986.8674
 126366159.320 7                  24046695.227
 104696403.77248  81581662.11146  19923025.4924                   19923032.5904
 115967260.28047  90364205.08745  22067849.4534                   22067857.3014
 118154971.76547  92068888.59744  22484137.2114                   22484144.3674
 113366387.15348  88337588.39046  21572903.1484                   21572908.4574
 117969169.21348  91924093.07145  22448790.8594                   22448799.8164
 11  7 24  0 45 30.0000000  0  8G17G10G12G04G09G28G02G27
 114260367.325 7                  21743014.844
 118692737.10747  92487977.33844  22586473.6024                   22586481.9534
 126269493.508 7                  24028299.398
 104712408.72348  81594133.49546  19926071.3134                   19926078.4534
 115975922.17147  90370954.63245  22069497.0864                   22069505.6214
 118226603.98147  92124705.84944  22497768.3284                   22497775.8244
 113304545.35448  88289400.03546  21561134.5944                   21561139.7854
 117986093.35748  91937280.65345  22452012.0944                   22452020.5204
 11  7 24  0 46  0.0000000  0  8G17G10G12G04G09G28G02G27
 114296891.940 7                  21749965.641
 118606230.08747  92420569.35745  22570011.7424                   22570020.4694
 126172864.305 7                  24009912.055
 104728936.30148  81607012.12646  19929216.0944                   19929223.3984
 115985207.32647  90378189.79845  22071264.5634                   22071272.7584
 118298585.40347  92180795.23144  22511466.0004                   22511473.3874
 113243052.94048  88241483.92646  21549433.1174                   21549438.2814
 118003474.10048  91950824.03845  22455319.4144                   22455327.3554
 11  7 24  0 46 30.0000000  0  8G17G10G12G04G09G28G02G27
 114333505.289 7                  21756932.758
 118519952.05947  92353339.79944  22553594.1484                   22553601.9534
 126076274.421 6                  23991531.359
 104745986.11648  81620297.68946  19932460.5634                   19932467.9964
 115995115.19547  90385910.22545  22073149.8444                   22073157.8594
 118370915.29747  92237156.15544  22525230.4224                   22525237.1954
 113181910.70048  88193840.68946  21537797.8674                   21537803.3674
 118021310.63948  91964722.59845  22458714.0164                   22458722.1254
 11  7 24  0 47  0.0000000  0  8G17G10G12G04G09G28G02G27
 114370207.195 8                  21763916.938
 118433906.18947  92286291.16644  22537219.6334                   22537228.2304
 125979725.360 6                  23973159.016
 104763555.95548  81633988.47846  19935803.6644                   19935811.3874
 116005644.40947  90394114.80545  22075153.3834                   22075161.8484
 118443592.60047  92293787.78144  22539059.8834                   22539067.4064
 113121119.27548  88146470.77745  21526229.5864                   21526235.1724
 118039601.39248  91978975.07445  22462194.3674                   22462202.6604
 11  7 24  0 47 30.0000000  0  8G17G10G12G04G09G28G02G27
 114406997.561 7                  21770918.016
 118348095.75747  92219425.97644  22520890.1954                   22520898.4774
 125883219.226 6                  23954793.492
 104781644.23248  81648083.23746  19939246.2114                   19939253.4574
 116016793.72947  90402802.57045  22077275.7034                   22077283.1134
 118516616.42647  92350689.42344  22552956.4614                   22552963.4534
 113060679.30148  88099374.75946  21514728.1484                   21514733.4454
 118058345.28047  91993580.67445  22465760.5084                   22465769.2194
 11  7 24  0 48  0.0000000  0  8G17G10G12G04G09G28G02G27
 114443877.012 8                  21777936.422
 118262524.11347  92152746.85744  22504606.1094                   22504614.7304
 125786757.790 6                  23936437.844
 104800249.72148  81662581.01346  19942786.6174                   19942794.0944
 116028562.25547  90411972.84445  22079514.5634                   22079523.1604
 118589986.46047  92407860.84544  22566917.8834                   22566925.1764
 113000591.83448  88052553.39846  21503293.8834                   21503299.7194
 118077541.18047  92008538.48645  22469414.1724                   22469422.5044
 11  7 24  0 48 30.0000000  0  8G17G10G12G04G09G28G02G27
 114480845.141 8                  21784970.766
 118177194.77847  92086256.56144  22488368.4534                   22488377.5664
 125690343.264 7                  23918090.992
 104819370.73948  81677480.50046  19946424.9144                   19946432.2704
 116040948.50247  90421624.45645  22081871.4774                   22081880.0234
 118663701.26547  92465300.93044  22580945.1174                   22580952.8714
 112940857.40848  88006007.13546  21491926.9144                   21491932.8364
 118097187.72047  92023847.46345  22473152.7344                   22473160.9734
 11  7 24  0 49  0.0000000  0  8G17G10G12G04G09G28G02G27
 114517902.216 8                  21792022.000
 118092111.06247  92019957.64644  22472177.4534                   22472185.9454
 125593977.651 7                  23899752.750
 104839005.75248  81692780.50646  19950161.5164                   19950168.8524
 116053951.72447  90431756.80145  22084345.8204                   22084354.2584
 118737759.98047  92523008.98444  22595037.7504                   22595045.7344
 112881476.74448  87959736.54046  21480627.0784                   21480633.3874
 118117283.47347  92039506.46645  22476976.6954                   22476984.9104
 11  7 24  0 49 30.0000000  0  8G17G10G12G04G09G28G02G27
 114555048.458 8                  21799090.914
 118007276.14247  91953852.59644  22456033.8204                   22456043.0704
 125497663.042 7                  23881424.805
 104859153.43848  81708479.99346  19953995.7344                   19954002.9574
 116067570.48447  90442368.79345  22086937.3364                   22086946.0274
 118812162.11047  92580984.61544  22609195.7584                   22609204.0984
 112822450.52948  87913742.13546  21469394.6094                   21469400.4804
 118137827.01747  92055514.41545  22480885.8524                   22480894.1764
 11  7 24  0 50  0.0000000  0  8G17G10G12G04G09G28G02G27
 114592283.447 8                  21806177.055
 117922693.13547  91887943.82644  22439938.0864                   22439946.7854
 125401401.115 7                  23863107.008
 104879811.58048  81724577.25946  19957926.5784                   19957933.7504
 116081802.94947  90453458.99745  22089645.8524                   22089654.7274
 118886906.32047  92639226.81644  22623419.7504                   22623427.7774
 112763778.63348  87868023.82746  21458229.6024                   21458235.9614
 118158816.68647  92071869.99045  22484879.9384                   22484888.7504
 11  7 24  0 50 30.0000000  0  8G17G10G12G04G09G28G02G27
 114629608.096 8                  21813279.273
 117838365.95847  91822234.39944  22423891.5164                   22423900.0864
 125305193.939 7                  23844798.781
 104900979.22348  81741071.53046  19961954.4384                   19961962.0164
 116096648.30248  90465026.75945  22092471.2664                   22092479.4064
 118961992.19647  92697735.23944  22637707.5554                   22637716.1604
 112705462.58048  87822582.79446  21447132.8524                   21447138.6414
 118180251.60947  92088572.51745  22488958.5394                   22488967.7584
 11  7 24  0 51  0.0000000  0  8G17G10G12G04G09G28G02G27
 114667022.134 7                  21820398.633
 117754297.69847  91756726.71945  22407893.2664                   22407902.1024
 125209043.881 7                  23826501.961
 104922654.54148  81757961.38546  19966079.2664                   19966087.0554
 116112105.23547  90477071.07745  22095412.2424                   22095420.5554
 119037418.45747  92756508.87945  22652061.7034                   22652069.2734
 112647502.96848  87777419.49746  21436103.2584                   21436109.0824
 118202130.35347  92105620.88045  22493122.5164                   22493130.9844
 11  7 24  0 51 30.0000000  0  8G17G10G12G04G09G28G02G27
 114704525.476 7                  21827535.844
 117670491.53747  91691423.26844  22391946.0394                   22391954.2664
 125112952.679 7                  23808217.000
 104944835.82648  81775245.50246  19970300.3754                   19970307.4024
 116128172.42447  90489590.92945  22098469.6024                   22098477.9024
 119113184.06747  92815546.97245  22666479.3364                   22666486.5514
 112589899.97848  87732534.10846  21425141.5084                   21425147.3054
 118224451.62647  92123014.06745  22497369.7194                   22497378.4304
 11  7 24  0 52  0.0000000  0  8G17G10G12G04G09G28G02G27
 114742118.657 7                  21834689.883
 117586950.67847  91626326.58745  22376048.3364                   22376057.2074
 125016922.497 7                  23789942.594
 104967521.43948  81792922.60846  19974617.5554                   19974624.4064
 116144848.31547  90502585.08045  22101643.5004                   22101651.6454
 119189288.21147  92874848.86944  22680961.1024                   22680968.8834
 112532654.34148  87687927.16746  21414248.1954                   21414254.2544
 118247213.57847  92140750.62245  22501701.2974                   22501710.0664
 11  7 24  0 52 30.0000000  0  8G17G10G12G04G09G28G02G27
 114779801.210 7                  21841860.289
 117503678.41847  91561439.17445  22360202.2424                   22360210.8754
 124920955.262 7                  23771680.961
 104990709.36848  81810991.13046  19979029.5864                   19979036.8244
 116162131.19947  90516052.20345  22104931.6564                   22104940.7664
 119265729.62947  92934413.58944  22695507.6414                   22695515.1214
 112475766.39748  87643598.94946  21403422.6414                   21403428.8714
 118270414.96347  92158829.62345  22506116.8524                   22506125.6524
 11  7 24  0 53  0.0000000  0  8G17G10G12G04G09G28G02G27
 114817573.824 8                  21849048.633
 117420678.21047  91496763.76145  22344407.6254                   22344416.7664
 124825053.078 7                  23753430.469
 105014398.27048  81829450.00946  19983537.6254                   19983544.8874
 116180019.86947  90529991.37645  22108335.8594                   22108344.9804
 119342507.88747  92994240.78544  22710117.3134                   22710125.6214
 112419236.73348  87599549.90546  21392665.3834                   21392671.6254
 118294054.11447  92177249.71845  22510615.3054                   22510624.2974
 11  7 24  0 53 30.0000000  0  8G17G10G12G04G09G28G02G27
 114855436.613 7                  21856253.305
 117337953.72547  91432303.21545  22328665.5784                   22328674.9804
 124729218.290 7                  23735193.477
 105038586.33848  81848297.87146  19988140.2424                   19988148.0164
 116198512.79047  90544401.40345  22111855.3594                   22111863.7304
 119419621.28047  93054329.10944  22724791.8054                   22724800.1644
 112363066.13448  87555780.64946  21381976.1484                   21381982.3594
 118318129.76648  92196009.94845  22515196.2974                   22515204.8524
 11  7 24  0 54  0.0000000  0  8G17G10G12G04G09G28G02G27
 114893390.006 7                  21863475.953
 117255508.10247  91368059.92645  22312977.1954                   22312985.8444
 124633452.922 7                  23716970.891
 105063272.41748  81867533.78146  19992838.2114                   19992845.5664
 116217608.79647  90559281.37845  22115489.1954                   22115497.5664
 119497069.54247  93114678.39144  22739530.8524                   22739537.9144
 112307255.32648  87512291.74346  21371356.0864                   21371361.8954
 118342640.64447  92215109.32445  22519860.4924                   22519869.3444
 11  7 24  0 54 30.0000000  0  8G17G10G12G04G09G28G02G27
 114931433.804 7                  21870715.625
 117173344.49047  91304036.43145  22297341.5704                   22297350.3204
 124537759.005 7                  23698760.320
 105088454.14848  81887155.91046  19997630.0784                   19997637.4454
 116237306.17447  90574629.95045  22119237.6804                   22119245.4884
 119574850.99747  93175287.27144  22754331.9774                   22754339.4734
 112251804.64748  87469083.47346  21360803.8914                   21360809.9024
 118367585.04847  92234546.52045  22524607.4064                   22524615.6724
 11  7 24  0 55  0.0000000  0  8G17G10G12G04G09G28G02G27
 114969567.822 7                  21877971.773
 117091466.15047  91240235.17945  22281760.7664                   22281768.9734
 124442138.534 7                  23680564.750
 105114129.82048  81907162.92846  20002516.2584                   20002523.3554
 116257603.10347  90590445.70245  22123099.7814                   22123107.7774
 119652964.80047  93236155.15244  22769196.1094                   22769203.3164
 112196714.52648  87426156.15246  21350320.9454                   21350326.3714
 118392961.31347  92254320.23445  22529436.3594                   22529445.0234
 11  7 24  0 55 30.0000000  0  8G17G10G12G04G09G28G02G27
 115007792.729 7                  21885246.031
 117009876.65147  91176659.04545  22266234.2194                   22266243.9494
 124346593.756 7                  23662383.484
 105140297.88248  81927553.63646  20007495.4924                   20007503.1174
 116278498.28747  90606727.63745  22127076.1644                   22127084.1994
 119731410.02147  93297281.24244  22784124.0634                   22784131.7584
 112141985.56548  87383510.26346  21339906.0234                   21339911.6844
 118418767.94247  92274429.29945  22534347.2274                   22534355.9774
 11  7 24  0 56  0.0000000  0  8G17G10G12G04G09G28G02G27
 115046108.397 7                  21892536.945
 116928579.01547  91113310.29445  22250764.5314                   22250772.4694
 124251126.533 7                  23644215.977
 105166956.18448  81948326.33946  20012568.5704                   20012575.9694
 116299989.73747  90623474.21145  22131165.7664                   22131173.6994
 119810185.15547  93358664.41944  22799114.1954                   22799121.7814
 112087617.70048  87341145.75846  21329559.8594                   21329566.2664
 118445003.07747  92294872.25145  22539339.5634                   22539347.7274
 11  7 24  0 56 30.0000000  0  8G17G10G12G04G09G28G02G27
 115084515.000 7                  21899845.313
 116847576.33647  91050191.39345  22235349.8134                   22235358.4264
 124155739.252 7                  23626064.398
 105194102.90248  81969479.63546  20017734.0314                   20017741.4264
 116322075.81447  90640684.12045  22135368.8834                   22135376.6724
 119889289.28947  93420303.98344  22814167.3054                   22814174.3834
 112033611.53748  87299063.09246  21319282.7034                   21319288.3674
 118471665.14147  92315647.89845  22544412.9844                   22544422.0274
 11  7 24  0 57  0.0000000  0  8G17G10G12G04G09G28G02G27
 115123012.836 7                  21907171.219
 116766872.35247  90987305.19844  22219991.8594                   22220000.5164
 124060433.976 7                  23607928.797
 105221736.45748  81991012.28846  20022992.6644                   20023000.3984
 116344754.99647  90658356.20845  22139684.7194                   22139692.4024
 119968721.41946  93482199.12444  22829282.7504                   22829290.2704
 111979967.94548  87257262.92046  21309075.0474                   21309080.8094
 118498752.79047  92336755.15945  22549567.2974                   22549576.5864
 11  7 24  0 57 30.0000000  0  8G17G10G12G04G09G28G02G27
 115161602.328 7                  21914514.570
 116686470.18147  90924654.19844  22204692.3594                   22204700.5354
 123965212.765 6                  23589808.414
 105249855.09548  82012922.92146  20028343.4144                   20028350.9534
 116368025.68547  90676489.21345  22144112.6414                   22144120.8054
 120048480.61846  93544349.12944  22844460.2584                   22844468.1764
 111926687.28048  87215745.55546  21298935.9384                   21298941.7814
 118526264.39847  92358192.78345  22554802.9064                   22554811.8284
 11  7 24  0 58  0.0000000  0  8G17G10G12G04G09G28G02G27
 115200283.855 7                  21921874.953
 116606373.26747  90862241.06044  22189450.0944                   22189458.1884
 123870077.979 6                  23571705.172
 105278457.13748  82035210.23346  20033786.5474                   20033793.4774
 116391886.30047  90695081.91445  22148653.2274                   22148661.1604
 120128565.59846  93606752.98944  22859700.0394                   22859708.4264
 111873770.16648  87174511.46946  21288866.1954                   21288872.0314
 118554198.53247  92379959.63545  22560118.7504                   22560127.2194
 11  7 24  0 58 30.0000000  0  8G17G10G12G04G09G28G02G27
 115239057.461 7                  21929253.148
 116526584.70047  90800068.21045  22174267.3284                   22174275.2974
 123775031.884 7                  23553618.188
 105307540.50348  82057872.59846  20039320.5394                   20039328.1804
 116416334.74047  90714132.64845  22153305.4614                   22153314.0204
 120208974.92147  93669409.58844  22875002.0234                   22875010.2734
 111821216.64447  87133560.69746  21278865.3594                   21278871.1294
 118582553.03847  92402054.04145  22565514.8914                   22565523.0204
 11  7 24  0 59  0.0000000  0  8G17G10G12G04G09G28G02G27
 115277923.308 7                  21936649.969
 116447108.11547  90738138.45545  22159143.0944                   22159151.2274
 123680076.371 6                  23535548.141
 105337103.59648  82080908.77546  20044946.4454                   20044953.3164
 116441369.51847  90733640.26845  22158069.5634                   22158077.5944
 120289707.95647  93732318.42944  22890364.7034                   22890372.5864
 111769027.28248  87092893.68946  21268934.3054                   21268939.5904
 118611326.77047  92424475.11945  22570990.3524                   22570998.7664
 11  7 24  0 59 30.0000000  0  8G17G10G12G04G09G28G02G27
 115316881.001 7                  21944063.367
 116367946.34947  90676454.02745  22144078.6954                   22144087.2774
 123585213.652 6                  23517496.586
 105367143.87448  82104316.79446  20050662.9924                   20050670.4104
 116466988.68747  90753603.27345  22162944.2504                   22162953.0234
 120370763.05946  93795478.21644  22905788.1954                   22905797.5204
 111717202.28548  87052510.59646  21259072.0474                   21259077.8164
 118640517.48147  92447221.09445  22576545.3914                   22576553.2194
 11  7 24  1  0  0.0000000  0  8G17G10G12G04G09G28G02G27
 115355931.290 7                  21951494.148
 116289102.95047  90615017.70345  22129074.9454                   22129083.7504
 123490446.101 6                  23499462.781
 105397659.97548  82128095.57746  20056469.8364                   20056477.1564
 116493190.43047  90774020.22645  22167930.5704                   22167938.9844
 120452139.09647  93858888.09244  22921274.2894                   22921282.1994
 111665742.00048  87012411.69846  21249279.6564                   21249285.1254
 118670123.67047  92470290.82245  22582178.8594                   22582187.0864
 11  7 24  1  0 30.0000000  0  8G17G10G12G04G09G28G02G27
 115395074.821 7                  21958942.703
 116210581.20247  90553831.98145  22114133.3054                   22114141.5784
 123395775.864 7                  23481447.570
 105428650.24348  82152243.83646  20062366.9844                   20062375.0004
 116519973.06147  90794889.80345  22173027.4304                   22173035.6954
 120533835.20547  93922547.36844  22936820.5394                   22936828.9884
 111614647.36348  86972597.72446  21239556.5234                   21239562.2074
 118700143.88947  92493683.15945  22587891.7034                   22587899.6954
 11  7 24  1  1  0.0000000  0  8G17G10G12G04G09G28G02G27
 115434311.534 7                  21966410.063
 116132384.25747  90492899.35745  22099253.0084                   22099260.9414
 123301205.272 6                  23463451.352
 105460112.57948  82176759.93846  20068354.3594                   20068361.6724
 116547334.53547  90816210.44645  22178234.0314                   22178242.0394
 120615850.13747  93986455.07444  22952427.2194                   22952435.2814
 111563918.16348  86933068.50646  21229903.2974                   21229908.7034
 118730576.16447  92517396.58745  22593682.7974                   22593691.2074
 11  7 24  1  1 30.0000000  0  8G17G10G12G04G09G28G02G27
 115473641.447 7                  21973893.563
 116054514.95547  90432222.04345  22084434.7504                   22084442.7384
 123206736.311 7                  23445474.563
 105492044.51848  82201641.97446  20074430.9454                   20074438.2114
 116575272.61547  90837980.39945  22183550.6024                   22183558.7464
 120698182.22947  94050609.90944  22968095.0864                   22968102.5864
 111513554.76748  86893824.33246  21220319.3674                   21220324.8204
 118761418.43747  92541429.49545  22599552.1644                   22599560.3404
 11  7 24  1  2  0.0000000  0  8G17G10G12G04G09G28G02G27
 115513065.063 7                  21981396.063
 115976976.89747  90371802.84545  22069680.0164                   22069687.8284
 123112371.480 7                  23427517.109
 105524444.66348  82226888.84546  20080596.3284                   20080603.7974
 116603785.67247  90860198.38945  22188976.6884                   22188984.5394
 120780830.62547  94115011.25544  22983822.7344                   22983829.2734
 111463557.82048  86854865.70446  21210805.1884                   21210810.9384
 118792669.18847  92565780.71045  22605498.3134                   22605507.0634
 11  7 24  1  2 30.0000000  0  8G17G10G12G04G09G28G02G27
 115552582.562 7                  21988915.680
 115899773.52947  90311644.46145  22054988.5704                   22054996.5984
 123018112.836 7                  23409580.438
 105557311.05648  82252499.01946  20086850.7504                   20086858.3874
 116632871.74747  90882862.86545  22194511.1724                   22194519.5984
 120863793.94947  94179657.99644  22999609.3754                   22999616.9884
 111413927.52848  86816192.76746  21201361.1414                   21201366.4534
 118824326.70947  92590448.86045  22611522.5864                   22611531.3284
 11  7 24  1  3  0.0000000  0  8G17G10G12G04G09G28G02G27
 115592194.313 7                  21996453.141
 115822907.87847  90251749.22945  22040361.2274                   22040369.3674
 122923962.277 7                  23391664.055
 105590641.35648  82278470.68446  20093193.1254                   20093200.1334
 116662528.90347  90905972.35645  22200154.7814                   22200163.5984
 120947070.89247  94244549.11344  23015456.8594                   23015464.3054
 111364663.88948  86777805.54346  21191986.1174                   21191991.7664
 118856388.88747  92615432.36645  22617623.7734                   22617632.3914
 11  7 24  1  3 30.0000000  0  8G17G10G12G04G09G28G02G27
 115631900.170 7                  22004009.758
 115746383.29847  90192119.76245  22025799.3524                   22025807.0554
 122829922.184 7                  23373768.844
 105624433.54748  82304802.26246  20099623.7034                   20099630.6174
 116692755.01047  90929525.19845  22205906.1724                   22205914.8834
 121030660.10747  94309683.56144  23031363.3754                   23031370.2504
 111315767.00448  86739704.11246  21182681.7974                   21182687.3054
 118888853.93847  92640729.77745  22623801.5634                   22623810.6214
 11  7 24  1  4  0.0000000  0  8G17G10G12G04G09G28G02G27
 115671700.752 7                  22011583.703
 115670202.75747  90132758.38045  22011302.8054                   22011310.5394
 122735995.154 7                  23355896.117
 105658686.04248  82331492.51546  20106141.3284                   20106148.7424
 116723548.24347  90953519.92145  22211766.3054                   22211774.1054
 121114560.45347  94375060.42844  23047328.2504                   23047336.5354
 111267237.88048  86701889.23646  21173446.9924                   21173452.5704
 118921720.22947  92666339.83445  22630055.6414                   22630065.1884
 11  7 24  1  4 30.0000000  0  8G17G10G12G04G09G28G02G27
 115711596.585 7                  22019175.891
 115594369.59047  90073667.67045  21996871.6724                   21996880.0664
 122642183.327 7                  23338043.602
 105693396.74948  82358539.82446  20112746.6174                   20112753.9734
 116754906.13947  90977954.65545  22217733.2344                   22217742.0744
 121198770.67747  94440678.75644  23063353.5634                   23063361.2384
 111219076.61148  86664361.00746  21164282.0784                   21164287.9414
 118954985.87547  92692261.10045  22636386.9454                   22636394.9884
 11  7 24  1  5  0.0000000  0  8G17G10G12G04G09G28G02G27
 115751587.420 7                  22026785.617
 115518887.15147  90014850.26945  21982507.4924                   21982515.9654
 122548489.073 7                  23320214.359
 105728563.90748  82385942.80446  20119438.6174                   20119446.2344
 116786826.86947  91002827.96345  22223807.4774                   22223816.2304
 121283289.59447  94506537.62143  23079437.2814                   23079445.0474
 111171283.27948  86627119.47646  21155186.9224                   21155193.1174
 118988649.17847  92718492.20745  22642792.4534                   22642801.3914
 11  7 24  1  5 30.0000000  0  9G17G10G12G05G04G09G28G02G27
 115791673.862 7                  22034414.125
 115443758.50247  89956308.53445  21968211.3754                   21968219.6334
 122454914.266 7                  23302407.586
 129576443.49716                  24657590.250
 105764184.98748  82413699.48846  20126217.0474                   20126224.3914
 116819308.14547  91028138.04445  22229989.0474                   22229997.2854
 121368115.39847  94572635.61044  23095578.9454                   23095586.9184
 111123858.03548  86590164.75646  21146162.4774                   21146168.3484
 119022707.88947  92745031.43845  22649273.8054                   22649282.3404
 11  7 24  1  6  0.0000000  0  9G17G10G12G05G04G09G28G02G27
 115831855.975 7                  22042060.180
 115368986.81747  89898044.96045  21953982.3134                   21953991.2074
 122361461.407 7                  23284623.883
 129471410.659 6                  24637602.070
 105800257.97147  82441808.30546  20133081.4384                   20133089.4844
 116852348.03347  91053883.40245  22236276.6334                   22236284.5824
 121453246.89547  94638971.81044  23111778.6884                   23111787.4104
 111076801.11948  86553497.06146  21137207.5944                   21137214.3164
 119057160.08447  92771877.30145  22655830.1174                   22655838.5864
 11  7 24  1  6 30.0000000  0  9G17G10G12G05G04G09G28G02G27
 115872134.118 7                  22049724.539
 115294575.19847  89840061.91345  21939822.4694                   21939830.9884
 122268132.956 6                  23266863.992
 129366295.351 6                  24617599.734
 105836780.98148  82470267.78946  20140031.8134                   20140039.2154
 116885944.37047  91080062.37045  22242668.8134                   22242677.6564
 121538682.82247  94705545.20544  23128036.5634                   23128045.1414
 111030112.81948  86517116.59846  21128322.8054                   21128328.6884
 119092004.09447  92799028.45045  22662460.5084                   22662469.5434
 11  7 24  1  7  0.0000000  0  9G17G10G12G05G04G09G28G02G27
 115912508.830 7                  22057406.789
 115220526.91447  89782361.98545  21925731.6254                   21925739.9884
 122174930.968 6                  23249128.250
 129261100.215 6                  24597581.414
 105873752.22948  82499076.55246  20147067.2344                   20147074.2974
 116920095.24447  91106673.42945  22249167.7504                   22249176.0984
 121624421.86047  94772354.77643  23144352.7814                   23144360.1954
 110983793.28348  86481023.47946  21119508.8204                   21119514.6954
 119127237.78547  92826483.26545  22669164.9144                   22669173.7274
 11  7 24  1  7 30.0000000  0  9G17G10G12G05G04G09G28G02G27
 115952980.468 7                  22065108.781
 115146845.02847  89724947.56645  21911710.5314                   21911718.3754
 122081857.977 7                  23231417.500
 129155827.709 6                  24577549.109
 105911169.42848  82528232.81246  20154187.3984                   20154194.9024
 116954798.19447  91133714.68245  22255771.8364                   22255779.9344
 121710462.75447  94839399.57644  23160725.5084                   23160733.5984
 110937843.00648  86445218.10146  21110764.2034                   21110770.2584
 119162859.58847  92854240.48245  22675943.6954                   22675952.2734
 11  7 24  1  8  0.0000000  0  9G17G10G12G05G04G09G28G02G27
 115993549.097 7                  22072828.469
 115073532.64147  89667821.05745  21897759.5944                   21897767.6024
 121988916.302 7                  23213731.055
 129050480.346 6                  24557501.984
 105949030.53648  82557734.97746  20161392.0704                   20161399.7154
 116990051.04647  91161184.43145  22262480.3594                   22262488.3404
 121796803.87247  94906678.35244  23177155.6174                   23177163.3914
 110892261.86948  86409700.35146  21102090.9064                   21102096.4774
 119198867.31947  92882298.41545  22682795.1254                   22682804.8674
 11  7 24  1  8 30.0000000  0  9G17G10G12G05G04G09G28G02G27
 116034214.862 7                  22080567.641
 115000592.82347  89610984.85645  21883879.6024                   21883887.4774
 121896108.229 7                  23196070.477
 128945060.209 6                  24537439.547
 105987333.05948  82587581.10446  20168680.8984                   20168688.6484
 117025851.27647  91189080.69045  22269292.9614                   22269300.9344
 121883443.50647  94974189.71544  23193642.5704                   23193651.1764
 110847049.50948  86374469.98546  21093487.1094                   21093492.4224
 119235258.53547  92910655.16845  22689721.1954                   22689729.7234
 11  7 24  1  9  0.0000000  0  9G17G10G12G05G04G09G28G02G27
 116074978.859 7                  22088324.688
 114928029.01347  89554441.67445  21870071.2114                   21870078.8984
 121803435.835 7                  23178435.164
 128839570.567 6                  24517367.930
 106026075.50948  82617770.03146  20176053.4384                   20176060.6524
 117062196.87647  91217401.91345  22276208.5704                   22276216.8754
 121970380.85247  95041933.05044  23210186.5704                   23210194.7854
 110802206.72348  86339527.59746  21084953.8364                   21084959.0824
 119272031.59947  92939309.47145  22696718.7114                   22696727.1764
 11  7 24  1  9 30.0000000  0  9G17G10G12G05G04G09G28G02G27
 116115840.694 7                  22096100.445
 114855844.09847  89498193.73545  21856334.6644                   21856342.5044
 121710901.473 7                  23160825.930
 128734013.692 6                  24497281.484
 106065255.38247  82648299.79646  20183509.3674                   20183516.6254
 117099085.45947  91246146.23845  22283228.6094                   22283236.5594
 122057614.12247  95109907.00444  23226786.7274                   23226794.7504
 110757733.39448  86304873.09646  21076491.1484                   21076496.2304
 119309184.40947  92968259.69745  22703788.4694                   22703797.2274
 11  7 24  1 10  0.0000000  0  9G17G10G12G05G04G09G28G02G27
 116156800.605 7                  22103894.594
 114784041.48047  89442243.68745  21842670.8444                   21842678.6644
 121618507.522 7                  23143244.477
 128628392.198 7                  24477182.117
 106104870.55948  82679168.77446  20191047.1954                   20191054.8014
 117136514.60848  91275311.77845  22290350.8284                   22290359.1334
 122145141.99847  95178110.48944  23243442.8754                   23243451.0474
 110713629.59848  86270506.53646  21068098.3834                   21068103.4534
 119346714.92747  92997504.22845  22710930.9224                   22710939.3674
 11  7 24  1 10 30.0000000  0  9G17G10G12G05G04G09G28G02G27
 116197859.328 7                  22111707.930
 114712624.03247  89386593.76945  21829079.6724                   21829088.2424
 121526256.710 7                  23125690.117
 128522708.555 7                  24457070.422
 106144919.00548  82710375.36346  20198668.3914                   20198675.9804
 117174482.20647  91304896.89845  22297576.6254                   22297584.4104
 122232962.71647  95246542.19444  23260154.2424                   23260162.0474
 110669895.62448  86236428.15346  21059775.9614                   21059781.1334
 119384621.08647  93027041.48445  22718143.7584                   22718152.3874
 11  7 24  1 11  0.0000000  0  9G17G10G12G05G04G09G28G02G27
 116239017.057 7                  22119540.445
 114641595.49647  89331246.92145  21815564.3914                   21815572.6764
 121434151.339 7                  23108162.797
 128416966.182 7                  24436946.836
 106185399.02848  82741918.24046  20206371.3674                   20206378.9304
 117212985.98247  91334899.82645  22304903.2584                   22304911.1294
 122321075.33346  95315201.33243  23276921.4694                   23276929.4804
 110626531.65248  86202638.08846  21051524.0084                   21051529.2664
 119422901.26847  93056870.16045  22725428.1954                   22725436.7424
 11  7 24  1 11 30.0000000  0  9G17G10G12G05G04G09G28G02G27
 116280274.186 7                  22127391.156
 114570958.28547  89276204.99045  21802122.3284                   21802131.4064
 121342193.511 7                  23090663.859
 128311167.255 7                  24416813.859
 106226307.97648  82773795.34246  20214156.0084                   20214163.2664
 117252023.35947  91365318.53245  22312331.7894                   22312340.2734
 122409478.14347  95384086.57743  23293744.2194                   23293752.1994
 110583537.55448  86169136.22846  21043342.3834                   21043347.8204
 119461552.90647  93086988.29245  22732783.5164                   22732792.1994
 11  7 24  1 12  0.0000000  0  9G17G10G12G05G04G09G28G02G27
 116321631.278 7                  22135260.500
 114500715.80447  89221470.62945  21788755.2734                   21788763.6564
 121250385.634 7                  23073193.328
 128205314.511 6                  24396671.773
 106267643.90248  82806005.16046  20222021.8134                   20222029.5314
 117291591.90547  91396151.14644  22319861.9304                   22319869.9344
 122498169.83646  95453196.97343  23310620.5394                   23310628.6454
 110540913.45448  86135922.65046  21035231.3284                   21035236.5514
 119500574.15247  93117394.43345  22740209.1724                   22740217.8714
 11  7 24  1 12 30.0000000  0  9G17G10G12G05G04G09G28G02G27
 116363088.601 7                  22143149.688
 114430871.51147  89167046.54945  21775464.6724                   21775472.7704
 121158730.491 7                  23055751.016
 128099410.588 6                  24376517.625
 106309404.99148  82838546.27546  20229968.8524                   20229976.6174
 117331689.70447  91427396.15944  22327491.2584                   22327500.0314
 122587149.11946  95522531.43443  23327553.5704                   23327560.9184
 110498660.06748  86102997.96746  21027190.6334                   21027196.1414
 119539963.27747  93148087.23045  22747704.3914                   22747713.0354
 11  7 24  1 13  0.0000000  0  9G17G10G12G05G04G09G28G02G27
 116404646.572 7                  22151058.359
 114361427.57647  89112934.43445  21762250.0164                   21762258.0904
 121067229.847 7                  23038339.320
 127993457.733 6                  24356354.414
 106351588.37148  82871416.44546  20237996.6024                   20238004.1644
 117372313.59247  91459051.12044  22335222.3134                   22335230.7734
 122676414.06747  95592088.43843  23344540.3754                   23344548.1804
 110456776.57348  86070361.49746  21019220.7734                   21019226.3914
 119579717.76947  93179064.74345  22755269.2034                   22755278.0904
 11  7 24  1 13 30.0000000  0  9G17G10G12G05G04G09G28G02G27
 116446305.460 7                  22158985.992
 114292387.50948  89059137.03545  21749111.6094                   21749120.2544
 120975886.192 7                  23020957.055
 127887458.831 6                  24336184.086
 106394192.24048  82904614.27046  20246103.4844                   20246111.0984
 117413461.58347  91491114.47644  22343052.5394                   22343060.6214
 122765963.20247  95661866.98543  23361581.7344                   23361588.4774
 110415263.09948  86038013.35246  21011320.9224                   21011326.4064
 119619835.48347  93210325.28744  22762903.1884                   22762912.6254
 11  7 24  1 14  0.0000000  0  9G17G10G12G05G04G09G28G02G27
 116488065.350 7                  22166931.945
 114223754.22948  89005656.58445  21736052.0634                   21736059.3674
 120884702.255 7                  23003605.813
 127781416.783 6                  24316003.398
 106437214.42648  82938138.06446  20254289.9844                   20254297.8554
 117455131.06747  91523584.18544  22350982.2664                   22350990.2664
 122855795.04747  95731865.76744  23378675.2034                   23378683.7154
 110374119.76648  86005953.63746  21003491.6564                   21003497.0314
 119660314.23347  93241867.15644  22770606.2974                   22770615.0984
 11  7 24  1 14 30.0000000  0  9G17G10G12G05G04G09G28G02G27
 116529926.882 7                  22174897.977
 114155530.88548  88952495.58945  21723069.3594                   21723076.6214
 120793680.469 7                  22986284.500
 127675334.112 5                  24295816.289
 106480652.67248  82971986.05946  20262556.4304                   20262563.7034
 117497319.58847  91556458.33144  22359010.0634                   22359018.5744
 122945907.94346  95802083.60644  23395823.7814                   23395831.7584
 110333346.83648  85974182.55746  20995732.5704                   20995738.2894
 119701151.92247  93273688.70244  22778377.6254                   22778386.3404
 11  7 24  1 15  0.0000000  0  9G17G10G12G05G04G09G28G02G27
 116571890.893 7                  22182883.961
 114087720.79047  88899656.59745  21710165.6644                   21710173.1524
 120702823.302 7                  22968995.125
 127569213.601 6                  24275623.102
 106524505.27548  83006156.91446  20270901.5864                   20270908.5944
 117540024.82947  91589735.11945  22367137.4064                   22367145.3754
 123036300.69147  95872519.48043  23413024.9774                   23413033.3554
 110292944.47048  85942700.22046  20988044.4534                   20988049.5904
 119742346.86747  93305788.63744  22786216.6174                   22786225.5234
 11  7 24  1 15 30.0000000  0  9G17G10G12G05G04G09G28G02G27
 116613957.077 7                  22190889.023
 114020326.51447  88847141.61245  21697340.5164                   21697348.3634
 120612132.828 7                  22951737.094
 127463057.733 6                  24255421.180
 106568769.51348  83040648.53446  20279324.3914                   20279331.9024
 117583243.85047  91623412.22245  22375361.3834                   22375369.8754
 123126971.34547  95943171.91444  23430278.6484                   23430286.8324
 110252912.13548  85911506.22446  20980426.4304                   20980432.3364
 119783896.35746  93338164.87144  22794122.8054                   22794131.8444
 11  7 24  1 16  0.0000000  0  9G17G10G12G05G04G09G28G02G27
 116656125.571 7                  22198913.508
 113953350.77947  88794952.77945  21684595.5474                   21684603.4224
 120521611.379 7                  22934511.570
 127356869.129 6                  24235215.445
 106613442.89048  83075458.95646  20287825.9384                   20287832.7154
 117626973.89747  91657487.57145  22383682.8984                   22383691.0514
 123217918.29746  96014039.63143  23447585.3914                   23447593.9494
 110213249.61848  85880600.38746  20972878.7194                   20972884.2974
 119825797.97846  93370815.44344  22802096.4304                   22802105.8364
 11  7 24  1 16 30.0000000  0  9G17G10G12G05G04G09G28G02G27
 116698397.231 7                  22206957.383
 113886796.61947  88743092.43945  21671930.2114                   21671938.1054
 120431261.344 7                  22917317.742
 127250650.312 6                  24215002.883
 106658523.31148  83110586.55046  20296404.2664                   20296411.5944
 117671212.70947  91691959.31345  22392101.4304                   22392109.1414
 123309139.97247  96085121.42444  23464944.2814                   23464952.8954
 110173957.02448  85849982.79846  20965401.6724                   20965407.4414
 119868049.58746  93403738.75944  22810136.8134                   22810146.0634
 11  7 24  1 17  0.0000000  0  9G17G10G12G05G04G09G28G02G27
 116740772.448 7                  22215021.109
 113820667.43147  88691563.23545  21659346.7504                   21659354.7624
 120341085.357 7                  22900158.305
 127144404.061 7                  24194784.641
 106704008.83848  83146029.81746  20305059.7274                   20305066.9654
 117715957.42347  91726825.27745  22400616.6174                   22400624.1764
 123400635.05747  96156416.24944  23482355.3054                   23482363.6604
 110135034.25248  85819653.39146  20957995.1094                   20958000.5234
 119910649.23646  93436933.26644  22818243.1644                   22818252.5904
 11  7 24  1 17 30.0000000  0  9G17G10G12G05G04G09G28G02G27
 116783251.639 7                  22223104.547
 113754966.15247  88640367.48545  21646843.1724                   21646851.7584
 120251085.784 7                  22883032.078
 127038133.671 7                  24174561.773
 106749897.25348  83181787.01846  20313792.4534                   20313799.4224
 117761205.96948  91762083.86245  22409226.3834                   22409234.8954
 123492401.71146  96227922.68443  23499818.1954                   23499826.4494
 110096481.71248  85789612.47446  20950658.6724                   20950664.2814
 119953594.75147  93470397.26045  22826416.1644                   22826424.9344
 11  7 24  1 18  0.0000000  0  9G17G10G12G05G04G09G28G02G27
 116825835.313 7                  22231207.852
 113689695.50647  88589507.27945  21634423.3594                   21634431.4064
 120161264.985 7                  22865939.789
 126931841.263 6                  24154335.023
 106796185.94248  83217856.12346  20322600.4304                   20322607.8284
 117806955.24047  91797732.61845  22417932.2584                   22417940.8364
 123584438.20046  96299639.39043  23517331.6334                   23517341.0274
 110058298.85548  85759859.60746  20943392.7664                   20943398.3404
 119996883.53047  93504128.73744  22834653.7344                   22834662.4494
 11  7 24  1 18 30.0000000  0  9G17G10G12G05G04G09G28G02G27
 116868523.554 7                  22239331.250
 113624858.89047  88538985.26245  21622085.8834                   21622092.8164
 120071625.821 7                  22848881.305
 126825529.792 6                  24134104.469
 106842873.10248  83254235.73446  20331484.2194                   20331492.0784
 117853202.93047  91833769.74945  22426732.9774                   22426741.3794
 123676743.16546  96371565.29243  23534896.8984                   23534905.0944
 110020485.86848  85730394.96746  20936197.1094                   20936202.6764
 120040513.65647  93538126.20044  22842956.1804                   22842965.0634
 11  7 24  1 19  0.0000000  0  9G17G10G12G05G04G09G28G02G27
 116911316.961 7                  22247474.055
 113560458.44847  88488803.13645  21609830.1804                   21609837.7544
 119982170.128 7                  22831859.227
 126719202.150 6                  24113869.477
 106889956.32448  83290923.94046  20340444.8834                   20340451.6214
 117899946.15147  91870193.00945  22435627.7584                   22435636.4344
 123769314.97846  96443699.14343  23552512.5634                   23552520.7304
 109983042.29248  85701218.17246  20929071.6954                   20929077.0234
 120084482.75247  93572387.79145  22851323.2424                   22851331.9064
 11  7 24  1 19 30.0000000  0  9G17G10G12G05G04G09G28G02G27
 116954216.181 7                  22255638.188
 113496497.49147  88438963.46445  21597659.6484                   21597666.7504
 119892900.741 7                  22814871.258
 126612860.898 6                  24093633.344
 106937433.36348  83327919.04946  20349479.0394                   20349486.4804
 117947182.02247  91907000.14445  22444616.6884                   22444625.5004
 123862151.86747  96516039.56243  23570179.4224                   23570186.6644
 109945968.26248  85672329.34446  20922016.3594                   20922022.5004
 120128788.60947  93606911.77845  22859755.1644                   22859762.7384
 11  7 24  1 20  0.0000000  0  9G17G10G12G05G04G09G28G02G27
 116997221.531 7                  22263821.344
 113432979.27747  88389468.78545  21585572.4064                   21585579.7734
 119803820.094 7                  22797919.844
 126506509.088 6                  24073395.883
 106985302.18548  83365219.41046  20358588.1564                   20358596.0634
 117994908.30847  91944189.44845  22453698.9774                   22453707.1334
 123955252.17946  96588585.20743  23587895.4144                   23587903.0944
 109909263.75148  85643728.44546  20915031.9694                   20915037.6564
 120173429.07547  93641696.53844  22868249.6954                   22868257.8014
 11  7 24  1 20 30.0000000  0  9G17G10G12G05G04G09G28G02G27
 117040333.238 7                  22272025.039
 113369906.33047  88340321.06345  21573569.4924                   21573577.5044
 119714930.852 7                  22781005.320
 126400148.962 6                  24053156.016
 107033560.20848  83402823.06046  20367771.3054                   20367778.9964
 118043121.98147  91981758.53045  22462872.7194                   22462881.9384
 124048614.25246  96661334.84743  23605661.5004                   23605670.0044
 109872928.60848  85615415.36846  20908117.4064                   20908123.1804
 120218401.51846  93676739.98044  22876807.3754                   22876815.4304
 11  7 24  1 21  0.0000000  0  9G17G10G12G05G04G09G28G02G27
 117083551.635 7                  22280249.375
 113307281.67647  88291522.67345  21561652.8364                   21561660.2424
 119626235.419 7                  22764126.750
 126293783.676 6                  24032915.211
 107082205.51248  83440728.47646  20377028.1024                   20377035.6524
 118091820.70247  92019705.56045  22472140.7344                   22472149.4774
 124142236.66646  96734287.39943  23623477.5634                   23623485.9884
 109836962.70148  85587390.01246  20901273.3524                   20901279.1374
 120263703.80947  93712040.42544  22885427.7974                   22885436.5984
 11  7 24  1 21 30.0000000  0  9G17G10G12G05G04G09G28G02G27
 117126877.523 7                  22288493.797
 113245107.79447  88243075.53445  21549821.2344                   21549829.0204
 119537735.704 7                  22747285.898
 126187415.597 7                  24012674.109
 107131235.14048  83478933.36346  20386358.6564                   20386366.1094
 118141001.15847  92058027.96844  22481499.4534                   22481507.6174
 124236117.28746  96807441.13843  23641341.9224                   23641351.2704
 109801365.38548  85559651.88046  20894499.6024                   20894504.9774
 120309333.31147  93747595.86544  22894110.9454                   22894119.6254
 11  7 24  1 22  0.0000000  0  9G17G10G12G05G04G09G28G02G27
 117170310.949 7                  22296759.367
 113183388.18747  88194982.37345  21538076.1724                   21538083.9494
 119449435.017 7                  22730482.711
 126081048.345 7                  23992433.383
 107180647.57748  83517436.55746  20395761.3054                   20395768.7814
 118190661.00147  92096723.93345  22490949.2734                   22490957.9024
 124330254.91746  96880795.12244  23659256.6724                   23659264.9414
 109766137.53448  85532201.63946  20887795.9304                   20887801.5904
 120355288.51846  93783405.10744  22902855.9924                   22902864.4964
 11  7 24  1 22 30.0000000  0  9G17G10G12G05G04G09G28G02G27
 117213852.362 7                  22305045.367
 113122125.08047  88147244.92845  21526418.3054                   21526425.4264
 119361335.266 7                  22713718.320
 125974683.741 7                  23972192.625
 107230439.87048  83556235.74146  20405236.3834                   20405243.7934
 118240796.88247  92135790.80445  22500489.4384                   22500498.2624
 124424647.18247  96954347.50844  23677218.7894                   23677227.0354
 109731277.64048  85505038.12746  20881162.2814                   20881167.4144
 120401566.36546  93819465.73944  22911662.4384                   22911670.8484
 11  7 24  1 23  0.0000000  0  9G17G10G12G05G04G09G28G02G27
 117257502.242 7                  22313352.125
 113061321.18447  88099865.30645  21514847.2194                   21514855.2464
 119273438.946 7                  22696991.781
 125868324.758 7                  23951952.750
 107280610.10348  83595329.42546  20414783.4064                   20414790.9574
 118291406.10247  92175226.52644  22510120.5784                   22510128.5554
 124519292.61046  97028097.15844  23695228.6174                   23695236.9184
 109696785.86748  85478161.46646  20874599.0704                   20874604.3954
 120448164.56146  93855775.99844  22920529.7894                   22920538.1294
 11  7 24  1 23 30.0000000  0  9G17G10G12G05G04G09G28G02G27
 117301261.330 7                  22321677.828
 113000979.81447  88052846.09045  21503365.0084                   21503372.5314
 119185749.015 7                  22680304.867
 125761974.531 7                  23931714.984
 107331156.16648  83634715.96246  20424402.0554                   20424409.4144
 118342486.38647  92215029.32544  22519840.5164                   22519848.8754
 124614189.73746  97102042.93743  23713287.3284                   23713295.2624
 109662662.63848  85451571.97246  20868105.4144                   20868110.9184
 120495081.03247  93892334.27244  22929457.6484                   22929466.5784
 11  7 24  1 24  0.0000000  0  9G17G10G12G05G04G09G28G02G27
 117345129.868 7                  22330026.664
 112941103.52147  88006189.27445  21491970.7504                   21491978.7154
 119098267.660 7                  22663657.805
 125655635.796 6                  23911478.977
 107382075.58048  83674393.41646  20434091.6414                   20434099.2704
 118394034.46347  92255196.60045  22529649.7034                   22529658.6094
 124709336.67146  97176183.36343  23731393.3754                   23731401.6134
 109628907.26448  85425269.12746  20861681.7974                   20861687.4264
 120542313.31647  93929138.60544  22938445.7344                   22938454.0904
 11  7 24  1 24 30.0000000  0  9G17G10G12G05G04G09G28G02G27
 117389108.188 7                  22338395.203
 112881694.73248  87959896.74945  21480665.6724                   21480673.2154
 119010997.368 7                  22647050.953
 125549311.062 6                  23891246.578
 107433365.73948  83714359.76946  20443851.9224                   20443859.3094
 118446047.40847  92295726.13745  22539547.7664                   22539556.0744
 124804731.57046  97250516.98443  23749545.4774                   23749554.7274
 109595519.31848  85399252.58046  20855328.1024                   20855334.1214
 120589858.71047  93966186.92645  22947493.8594                   22947501.5274
 11  7 24  1 25  0.0000000  0  9G17G10G12G05G04G09G28G02G27
 117433196.909 7                  22346784.688
 112822756.90847  87913971.20045  21469450.2894                   21469457.9184
 118923940.852 7                  22630484.344
 125443003.341 7                  23871016.922
 107485024.86448  83754613.62446  20453682.2974                   20453690.2304
 118498522.52147  92336615.81645  22549533.4384                   22549542.0164
 124900372.92246  97325042.65143  23767746.0164                   23767754.5124
 109562498.97548  85373522.47746  20849044.6884                   20849050.0634
 120637715.02447  94003477.54344  22956600.5004                   22956608.5554
 11  7 24  1 25 30.0000000  0  9G17G10G12G05G04G09G28G02G27
 117477396.404 7                  22355196.164
 112764292.22248  87868414.32745  21458324.9534                   21458331.8204
 118837100.298 7                  22613959.375
 125336715.534 7                  23850791.141
 107537050.23148  83795152.86146  20463582.3444                   20463589.7704
 118551456.68147  92377863.17945  22559606.5784                   22559615.3284
 124996258.60046  97399758.72943  23785992.9144                   23786001.1214
 109529845.74748  85348078.44346  20842830.8204                   20842836.4694
 120685879.78747  94041008.46644  22965765.5004                   22965774.1374
 11  7 24  1 26  0.0000000  0  9G17G10G12G05G04G09G28G02G27
 117521707.421 7                  22363627.516
 112706303.45747  87823228.31245  21447289.7114                   21447297.3524
 118750478.086 7                  22597475.344
 125230450.274 7                  23830569.078
 107589439.73048  83835975.82946  20473551.6484                   20473559.5824
 118604847.25847  92419466.18345  22569766.4144                   22569774.7074
 125092387.01846  97474663.94043  23804285.6724                   23804293.8714
 109497559.20148  85322920.13046  20836686.8134                   20836692.1884
 120734350.53046  94078777.83144  22974988.8594                   22974998.4534
 11  7 24  1 26 30.0000000  0  9G17G10G12G05G04G09G28G02G27
 117566130.125 7                  22372081.156
 112648793.49747  87778415.39745  21436345.9534                   21436353.7504
 118664077.207 7                  22581033.398
 125124210.415 6                  23810352.227
 107642191.06548  83877080.74546  20483589.7504                   20483597.7234
 118658691.31047  92461422.57245  22580012.2664                   22580021.5004
 125188756.64546  97549757.10843  23822623.9694                   23822632.4264
 109465639.46148  85298047.63446  20830613.1804                   20830618.5354
 120783124.86047  94116783.74144  22984270.7734                   22984280.0554
 11  7 24  1 27  0.0000000  0  9G17G10G12G05G04G09G28G02G27
 117610665.087 7                  22380556.914
 112591765.09847  87733977.70845  21425493.5164                   21425501.3984
 118577900.373 7                  22564634.891
 125017999.188 6                  23790140.953
 107695302.09148  83918465.95146  20493696.3594                   20493704.2774
 118712985.73747  92503729.86645  22590344.2504                   22590353.3054
 125285365.41147  97625036.67643  23841008.0554                   23841016.9144
 109434086.25948  85273460.75446  20824608.2194                   20824613.6414
 120832200.60047  94155024.49945  22993610.1094                   22993618.1484
 11  7 24  1 27 30.0000000  0  9G17G10G12G05G04G09G28G02G27
 117655312.777 7                  22389052.578
 112535220.59747  87689917.10445  21414733.3524                   21414742.2544
 118491949.521 7                  22548278.586
 124911818.914 7                  23769934.930
 107748770.06648  83960129.29246  20503871.2274                   20503878.5704
 118767727.38847  92546385.66845  22600761.3984                   22600769.6994
 125382211.57946  97700501.23143  23859436.8594                   23859445.6954
 109402898.86648  85249158.91546  20818674.0784                   20818678.8444
 120881575.10947  94193498.05545  23003005.5944                   23003013.9494
 11  7 24  1 28  0.0000000  0  9G17G10G12G05G04G09G28G02G27
 117700073.587 7                  22397570.281
 112479162.98148  87646235.88146  21404066.1644                   21404073.8674
 118406227.427 7                  22531966.617
 124805672.601 7                  23749736.609
 107802592.95948  84002069.20946  20514113.3524                   20514120.3794
 118822913.83846  92589388.08544  22611263.1954                   22611272.0084
 125479293.22546  97776149.21943  23877911.4384                   23877919.5164
 109372077.06848  85225141.96146  20812808.4774                   20812814.0704
 120931245.95447  94232202.49844  23012457.4384                   23012465.7464
 11  7 24  1 28 30.0000000  0  9G17G10G12G05G04G09G28G02G27
 117744947.881 7                  22406108.695
 112423594.84047  87602936.06245  21393492.1954                   21393500.3324
 118320736.674 7                  22515698.023
 124699563.072 7                  23729544.406
 107856768.26048  84044283.72846  20524422.5004                   20524430.2464
 118878541.87447  92632734.56245  22621848.6954                   22621857.6804
 125576608.29946  97851979.15143  23896429.4694                   23896437.2344
 109341620.29048  85201409.44646  20807012.6564                   20807017.8244
 120981210.49247  94271135.82444  23021965.3594                   23021973.7344
 11  7 24  1 29  0.0000000  0  9G17G10G12G05G04G09G28G02G27
 117789936.154 7                  22414670.289
 112368518.79647  87560019.70945  21383011.0704                   21383018.8754
 118235479.637 7                  22499474.047
 124593493.323 7                  23709359.070
 107911293.70448  84086771.07546  20534798.7584                   20534806.5664
 118934608.44847  92676422.76744  22632517.8364                   22632526.5354
 125674155.43846  97927989.94843  23914992.5634                   23914999.7234
 109311528.49448  85177961.32146  20801286.3284                   20801291.6254
 121031466.38146  94310296.22444  23031527.6724                   23031537.5434
 11  7 24  1 29 30.0000000  0  9G17G10G12G05G04G09G28G02G27
 117835039.113 7                  22423253.797
 112313937.67948  87517489.00845  21372624.7274                   21372632.4614
 118150459.232 7                  22483295.055
 124487466.223 7                  23689183.508
 107966167.20648  84129529.63546  20545240.6334                   20545248.0084
 118991110.91047  92720450.65144  22643270.5864                   22643278.2424
 125771932.79146  98004180.04343  23933599.3834                   23933607.0394
 109281801.52748  85154797.47846  20795629.6334                   20795634.7894
 121082011.39146  94349681.89844  23041146.1564                   23041156.7854
 11  7 24  1 30  0.0000000  0  9G17G10G12G05G04G09G28G02G27
 117880257.453 7                  22431857.461
 112259853.93148  87475345.86745  21362332.4384                   21362340.2974
 118065677.595 7                  22467162.039
 124381484.434 7                  23669015.883
 108021386.20848  84172557.43046  20555748.4844                   20555756.3874
 119048045.98847  92764815.62844  22654104.5394                   22654113.4454
 125869938.31346  98080547.95143  23952248.7034                   23952257.3524
 109252439.02948  85131917.63946  20790042.0704                   20790047.6214
 121132843.05547  94389290.92744  23050819.6414                   23050829.6844
 11  7 24  1 30 30.0000000  0  9G17G10G12G05G04G09G28G02G27
 117925591.107 7                  22440484.016
 112206269.63847  87433591.91045  21352136.0234                   21352143.4224
 117981137.371 8                  22451074.156
 124275550.888 7                  23648857.273
 108076948.51748  84215852.73446  20566321.2194                   20566328.9694
 119105410.60347  92809515.27944  22665020.6724                   22665028.8054
 125968170.12446  98157092.23243  23970942.1094                   23970950.1764
 109223440.34148  85109321.28846  20784523.7974                   20784529.4024
 121183958.63047  94429121.18844  23060547.4304                   23060557.0004
 11  7 24  1 31  0.0000000  0  9G17G10G12G05G04G09G28G02G27
 117971040.753 7                  22449133.438
 112153187.68048  87392229.38645  21342035.0004                   21342042.8284
 117896841.204 8                  22435033.828
 124169668.490 7                  23628707.797
 108132851.72148  84259413.66046  20576959.4694                   20576967.2384
 119163201.78047  92854547.38944  22676018.1564                   22676026.4844
 126066626.67146  98233811.49643  23989677.3594                   23989686.1374
 109194805.32648  85087008.30946  20779074.3204                   20779079.9924
 121235355.78547  94469170.86144  23070327.4384                   23070337.0394
 11  7 24  1 31 30.0000000  0  9G17G10G12G05G04G09G28G02G27
 118016606.901 7                  22457804.242
 112100610.61248  87351260.27445  21332029.3524                   21332037.1524
 117812791.596 7                  22419038.914
 124063839.977 6                  23608568.305
 108189093.24048  84303238.22346  20587662.3834                   20587669.2234
 119221416.11647  92899909.19044  22687096.0164                   22687104.6644
 126165305.72746  98310704.16143  24008455.6414                   24008463.8404
 109166533.19248  85064978.10846  20773694.7344                   20773699.9614
 121287031.66947  94509437.73344  23080161.5084                   23080170.9804
 11  7 24  1 32  0.0000000  0  9G17G10G12G05G04G09G28G02G27
 118062290.060 7                  22466497.906
 112048540.82448  87310686.44945  21322121.2894                   21322128.6604
 117728991.315 7                  22403092.109
 123958068.236 6                  23588439.156
 108245671.14648  84347324.91646  20598428.8284                   20598436.2304
 119280051.03547  92945598.72144  22698253.6414                   22698262.4304
 126264205.57946  98387768.94843  24027274.3364                   24027282.9734
 109138623.85848  85043230.60146  20768383.9774                   20768389.1724
 121338983.99947  94549920.01744  23090047.7194                   23090056.7854
 11  7 24  1 32 30.0000000  0  9G17G10G12G05G04G09G28G02G27
 118108090.954 7                  22475212.711
 111996981.23548  87270510.19145  21312309.7274                   21312317.2034
 117645442.630 7                  22387193.602
 123852356.462 6                  23568324.148
 108302583.11248  84391671.90646  20609258.6644                   20609265.4144
 119339103.47647  92991613.59144  22709491.1564                   22709499.3324
 126363324.46246  98465004.32543  24046136.4144                   24046145.5554
 109111076.91848  85021765.48146  20763141.6024                   20763147.4964
 121391210.34947  94590615.83644  23099986.0864                   23099996.0204
 11  7 24  1 33  0.0000000  0  9G17G10G12G05G04G09G28G02G27
 118154010.044 7                  22483950.898
 111945934.19548  87230733.29945  21302595.9454                   21302603.1604
 117562148.260 7                  22371342.789
 123746707.656 7                  23548220.570
 108359826.76048  84436277.34746  20620151.4774                   20620158.8554
 119398570.08447  93037951.20545  22720807.7114                   22720815.2704
 126462660.37546  98542408.97043  24065038.8134                   24065049.3714
 109083892.20348  85000582.61146  20757968.3134                   20757973.7974
 121443708.29547  94631523.30744  23109976.4534                   23109985.8954
 11  7 24  1 33 30.0000000  0  9G17G10G12G05G04G09G28G02G27
 118200047.312 7                  22492711.836
 111895401.79648  87191357.43345  21292979.8204                   21292987.5904
 117479110.600 7                  22355541.289
 123641124.451 7                  23528129.313
 108417399.45548  84481139.18446  20631107.4304                   20631114.2774
 119458447.50547  93084608.89445  22732201.3284                   22732210.0904
 126562211.31346  98619981.02543  24083982.9144                   24083993.0864
 109057068.68348  84979681.18646  20752863.9534                   20752869.1644
 121496474.95147  94672640.15245  23120017.3674                   23120027.1334
 11  7 24  1 34  0.0000000  0  9G17G10G12G05G04G09G28G02G27
 118246203.549 7                  22501495.047
 111845386.36048  87152384.41146  21283462.0634                   21283469.6724
 117396332.078 7                  22339789.508
 123535609.369 7                  23508050.352
 108475298.81948  84526255.57446  20642125.3054                   20642132.6374
 119518732.57447  93131584.21945  22743673.5394                   22743681.6994
 126661974.96946  98697718.85742  24102969.3914                   24102977.6914
 109030605.71848  84959060.72746  20747828.7034                   20747833.5744
 121549507.51447  94713964.20945  23130109.1484                   23130119.7464
 11  7 24  1 34 30.0000000  0  9G17G10G12G05G04G09G28G02G27
 118292479.109 7                  22510300.555
 111795890.42548  87113816.17045  21274043.4774                   21274050.7974
 117313815.449 7                  22324086.344
 123430165.678 7                  23487984.813
 108533522.57248  84571624.73846  20653204.8834                   20653212.1054
 119579422.56647  93178875.11344  22755222.4614                   22755230.9694
 126761950.09947  98775621.53742  24121994.4384                   24122000.6884
 109004503.33848  84938721.23646  20742861.3594                   20742866.8754
 121602803.55847  94755493.57545  23140251.3524                   23140261.4964
 11  7 24  1 35  0.0000000  0  9G17G10G12G05G04G09G28G02G27
 118338874.518 7                  22519129.273
 111746916.19548  87075654.47045  21264723.7584                   21264731.5044
 117231563.144 7                  22308434.625
 123324795.926 7                  23467933.961
 108592068.40948  84617244.86946  20664345.6884                   20664353.1684
 119640514.27347  93226478.96845  22766847.8444                   22766856.2814
 126862134.35746  98853687.22542  24141057.7504                   24141065.1334
 108978760.89948  84918662.22346  20737962.7034                   20737967.4264
 121656360.73147  94797226.40844  23150443.0234                   23150452.6214
 11  7 24  1 35 30.0000000  0  9G17G10G12G05G04G09G28G02G27
 118385390.286 7                  22527981.508
 111698466.31048  87037901.33046  21255503.9224                   21255511.8324
 117149577.744 7                  22292833.906
 123219503.239 7                  23447896.516
 108650934.03248  84663114.19046  20675547.2424                   20675555.2344
 119702004.41947  93274393.30644  22778548.9224                   22778557.3094
 126962525.82646  98931914.33743  24160161.9534                   24160169.7194
 108953377.59348  84898883.05446  20733132.9384                   20733137.5784
 121710176.07147  94839160.41944  23160683.4844                   23160693.3164
 11  7 24  1 36  0.0000000  0  9G17G10G12G05G04G09G28G02G27
 118432026.903 7                  22536855.719
 111650543.00548  87000558.52946  21246384.2584                   21246392.3094
 117067861.924 7                  22277283.563
 123114290.385 7                  23427873.813
 108710116.96448  84709230.75046  20686809.3984                   20686817.5394
 119763889.76847  93322615.58044  22790325.7424                   22790334.4844
 127063122.69745  99010301.44542  24179303.6644                   24179313.3984
 108928353.01448  84879383.40546  20728370.4454                   20728375.2074
 121764246.99647  94881293.58144  23170972.7274                   23170982.2504
 11  7 24  1 36 30.0000000  0  9G17G10G12G05G04G09G28G02G27
 118478785.205 7                  22545753.906
 111603149.16048  86963628.29346  21237365.6174                   21237373.7154
 116986418.698 7                  22261785.781
 123009160.820 7                  23407869.375
 108769615.31348  84755593.09846  20698131.6884                   20698139.5204
 119826167.63547  93371143.74444  22802176.5394                   22802185.1214
 127163923.33655  99088847.22352  24198484.3984                   24198495.6254
 108903687.52848  84860163.55946  20723676.7344                   20723681.6454
 121818571.81847  94923624.56344  23181310.8594                   23181319.6914
 11  7 24  1 37  0.0000000  0  9G17G10G12G05G04G09G28G02G27
 118525665.644 7                  22554674.773
 111556286.69748  86927112.13145  21228447.6334                   21228455.7304
 116905250.156 7                  22246339.539
 122904117.297 6                  23387879.148
 108829426.64548  84802199.32846  20709512.6644                   20709521.2854
 119888834.53247  93419974.99944  22814101.2274                   22814110.9064
 127264925.68746  99167550.30543  24217707.2894                   24217715.0704
 108879380.17048  84841222.79046  20719050.5164                   20719056.2544
 121873147.57647  94966151.09444  23191695.8444                   23191704.3754
 11  7 24  1 37 30.0000000  0  9G17G10G12G05G04G09G28G02G27
 118572668.973 7                  22563619.102
 111509958.28648  86891012.08446  21219632.2814                   21219640.0474
 116824358.814 7                  22230946.305
 122799162.635 7                  23367908.250
 108889548.62648  84849047.62046  20720954.1484                   20720961.4964
 119951887.27847  93469106.95045  22826100.3054                   22826109.6564
 127366127.43846  99246408.75043  24236964.6644                   24236973.5664
 108855430.46548  84822560.70546  20714493.5784                   20714498.9224
 121927971.42047  95008870.90144  23202129.2114                   23202136.9964
 11  7 24  1 38  0.0000000  0  9G17G10G12G05G04G09G28G02G27
 118619794.698 7                  22572587.148
 111464165.36848  86855329.33645  21210917.9304                   21210925.6914
 116743747.151 7                  22215606.578
 122694299.573 7                  23347953.578
 108949978.10848  84896135.54146  20732453.2974                   20732461.2424
 120015322.43547  93518536.89145  22838172.1804                   22838181.0274
 127467526.63646  99325421.02043  24256260.6094                   24256269.2894
 108831837.34048  84804176.47846  20710003.7734                   20710009.2114
 121983040.45047  95051781.75944  23212608.1884                   23212616.2734
 11  7 24  1 38 30.0000000  0  9G17G10G12G05G04G09G28G02G27
 118667043.679 7                  22581577.789
 111418910.36548  86820065.71945  21202306.8594                   21202314.2664
 116663417.739 7                  22200320.383
 122589530.819 6                  23328016.797
 109010713.15748  84943461.55946  20744010.9614                   20744018.7074
 120079136.77747  93568262.28845  22850315.4224                   22850323.9454
 127569121.17547  99404585.53944  24275594.0634                   24275602.2584
 108808600.23748  84786069.66446  20705582.0784                   20705587.6414
 122038351.98747  95094881.58044  23223133.2814                   23223142.4184
 11  7 24  1 39  0.0000000  0  9G17G10G12G05G04G09G28G02G27
 118714416.537 7                  22590592.938
 111374195.46648  86785222.98345  21193797.1884                   21193804.4694
 116583373.455 7                  22185088.344
 122484859.503 6                  23308097.148
 109071751.54548  84991023.92946  20755626.2504                   20755634.0904
 120143327.31047  93618280.80645  22862530.6174                   22862539.1024
 127670909.08647  99483900.74244  24294963.6174                   24294971.6564
 108785718.89648  84768240.06146  20701228.3834                   20701232.9064
 122093903.64347  95138168.53244  23233704.5944                   23233713.1454
 11  7 24  1 39 30.0000000  0  9G17G10G12G05G04G09G28G02G27
 118761914.355 7                  22599631.406
 111330023.74148  86750803.47845  21185391.8674                   21185399.5164
 116503616.908 7                  22169910.922
 122380289.013 7                  23288196.633
 109133091.45448  85038821.27546  20767299.3204                   20767306.6524
 120207891.06647  93668590.18344  22874816.9454                   22874824.9534
 127772888.76746  99563365.34743  24314368.9304                   24314377.5554
 108763193.16148  84750687.56246  20696941.1024                   20696946.6994
 122149693.12547  95181640.78944  23244320.6484                   23244329.5234
 11  7 24  1 40  0.0000000  0  8G17G10G12G05G04G09G02G27
 118809537.558 7                  22608693.875
 111286397.49948  86716809.04945  21177089.8444                   21177097.5274
 116424151.210 7                  22154788.852
 122275822.528 7                  23268319.016
 109194730.59748  85086851.77846  20779028.1954                   20779036.6724
 120272825.11747  93719188.10445  22887172.4224                   22887181.9844
 108741022.74848  84733411.93946  20692722.3364                   20692727.3554
 122205718.08347  95225296.57944  23254981.7974                   23254990.7234
 11  7 24  1 40 30.0000000  0  8G17G10G12G05G04G09G02G27
 118857286.399 7                  22617780.289
 111243318.00148  86683240.64045  21168892.0554                   21168899.3874
 116344978.214 7                  22139723.469
 122171462.551 7                  23248459.938
 109256666.14848  85135113.24346  20790814.7114                   20790822.1134
 120338125.49047  93770071.43845  22899599.2664                   22899608.0004
 108719206.18948  84716412.04246  20688570.9454                   20688576.1564
 122261975.18547  95269133.19444  23265687.0084                   23265696.5704
 11  7 24  1 41  0.0000000  0  8G17G10G12G05G04G09G02G27
 118905161.042 7                  22626890.117
 111200787.27148  86650099.85045  21160798.6884                   21160806.0044
 116266100.178 7                  22124712.820
 122067211.519 7                  23228621.938
 109318895.39148  85183603.56746  20802656.2894                   20802663.8954
 120403788.62247  93821237.48745  22912094.8674                   22912103.6484
 108697742.66448  84699687.23546  20684486.6884                   20684491.5474
 122318461.53147  95313148.45944  23276436.4224                   23276445.5554
 11  7 24  1 41 30.0000000  0  8G17G10G12G05G04G09G02G27
 118953162.184 7                  22636023.883
 111158808.03348  86617388.77845  21152810.3134                   21152817.8754
 116187519.984 7                  22109759.891
 121963072.769 7                  23208804.984
 109381416.20948  85232321.10046  20814553.2424                   20814561.4884
 120469811.85147  93872684.13044  22924658.1954                   22924667.0744
 108676631.90848  84683237.31446  20680469.2814                   20680474.4144
 122375174.95747  95357340.66044  23287229.0864                   23287238.0314
 11  7 24  1 42  0.0000000  0  8G17G10G12G05G04G09G02G27
 119001290.510 7                  22645182.844
 111117382.33747  86585109.04745  21144927.1254                   21144934.5124
 116109240.210 7                  22094863.086
 121859049.388 7                  23189010.359
 109444226.86448  85281264.46646  20826506.0234                   20826513.7384
 120536191.71846  93924408.70244  22937289.4224                   22937298.9454
 108655873.69348  84667062.11046  20676518.9614                   20676523.8914
 122432112.91347  95401707.84744  23298064.3054                   23298072.9774
 11  7 24  1 42 30.0000000  0  8G17G10G12G05G04G09G02G27
 119049546.467 7                  22654365.898
 111076511.79647  86553261.90445  21137149.7274                   21137157.0944
 116031263.461 7                  22080025.141
 121755144.141 7                  23169237.344
 109507324.45148  85330431.42246  20838513.1334                   20838520.1564
 120602925.07647  93976408.73944  22949988.2814                   22949997.9964
 108635467.08848  84651160.88346  20672635.7664                   20672641.1094
 122489272.50647  95446247.70044  23308941.8444                   23308950.2624
 11  7 24  1 43  0.0000000  0  8G17G10G12G05G04G09G02G27
 119097930.154 7                  22663572.852
 111036198.57548  86521849.02045  21129478.4144                   21129485.8754
 115953592.085 7                  22065244.695
 121651360.050 7                  23149486.672
 109570706.46348  85379820.01846  20850574.0864                   20850581.8954
 120670008.04147  94028681.18744  22962753.3984                   22962763.0004
 108615410.95948  84635532.76046  20668819.4384                   20668824.6524
 122546650.88547  95490958.05444  23319860.2894                   23319869.5904
 11  7 24  1 43 30.0000000  0  8G17G10G12G05G04G09G02G27
 119146442.728 7                  22672804.977
 110996445.12647  86490872.34045  21121913.4534                   21121921.2384
 115876229.073 7                  22050522.898
 121547700.121 7                  23129761.156
 109634371.21348  85429428.92246  20862688.9774                   20862696.8444
 120737438.12247  94081224.10844  22975585.8984                   22975594.3834
 108595705.74148  84620178.06546  20665069.6884                   20665074.6764
 122604245.94146  95535837.29844  23330818.6484                   23330829.1134
 11  7 24  1 44  0.0000000  0  8G17G10G12G05G04G09G02G27
 119195084.515 7                  22682061.570
 110957253.11448  86460333.13846  21114455.4694                   21114462.8054
 115799176.710 7                  22035860.859
 121444166.962 7                  23110059.305
 109698315.99648  85479256.03246  20874857.4844                   20874865.6374
 120805211.64547  94134034.66344  22988482.6884                   22988490.9024
 108576350.10648  84605095.78146  20661386.0394                   20661391.2074
 122662054.58946  95580882.95644  23341820.2344                   23341829.5744
 11  7 24  1 44 30.0000000  0  8G17G10G12G05G04G09G02G27
 119243855.714 7                  22691341.953
 110918623.88548  86430232.47046  21107104.3284                   21107112.3094
 115722437.035 7                  22021257.141
 121340763.407 7                  23090381.969
 109762538.17348  85529299.29046  20887078.7734                   20887086.2114
 120873324.92447  94187109.94444  23001443.2504                   23001452.6294
 108557342.88348  84590284.98746  20657769.2504                   20657774.0124
 122720073.57147  95626092.50844  23352861.5084                   23352871.4024
 11  7 24  1 45  0.0000000  0  8G17G10G12G05G04G09G02G27
 119292756.768 7                  22700647.492
 110880559.77348  86400572.15446  21099861.6414                   21099869.0164
 115646013.044 7                  22006714.430
 121237492.618 7                  23070730.828
 109827035.73548  85579557.13146  20899352.0234                   20899360.6054
 120941774.78847  94240447.49144  23014469.5474                   23014478.3794
 108538683.60948  84575745.31746  20654218.4924                   20654223.6254
 122778300.61946  95671464.22444  23363941.9924                   23363951.4144
 11  7 24  1 45 30.0000000  0  8G17G10G12G05G04G09G02G27
 119341788.590 7                  22709978.117
 110843063.27848  86371354.14346  21092725.8524                   21092733.3674
 115569908.059 7                  21992232.297
 121134357.804 7                  23051103.727
 109891806.40748  85630027.79146  20911677.5474                   20911685.5514
 121010558.32546  94294045.02144  23027558.2424                   23027567.5434
 108520372.38048  84561476.85846  20650733.7664                   20650738.7344
 122836733.45547  95716996.24844  23375062.1094                   23375070.6884
 11  7 24  1 46  0.0000000  0  8G17G10G12G05G04G09G02G27
 119390951.439 7                  22719333.695
 110806135.68148  86342579.42946  21085699.2894                   21085706.2034
 115494123.727 7                  21977810.539
 121031361.762 7                  23031504.734
 109956847.67548  85680709.28146  20924054.4774                   20924062.4734
 121079671.67147  94347899.56744  23040710.2814                   23040719.2274
 108502407.70548  84547478.44446  20647314.9304                   20647320.0704
 122895368.79647  95762686.06144  23386219.8364                   23386228.4384
 11  7 24  1 46 30.0000000  0  8G17G10G12G05G04G09G02G27
 119440246.419 7                  22728713.578
 110769779.61248  86314250.06246  21078780.3364                   21078788.0274
 115418662.698 7                  21963450.930
 120928507.960 7                  23011932.016
 110022157.52248  85731600.05346  20936482.3984                   20936490.1414
 121149112.08347  94402008.98144  23053924.6644                   23053933.3754
 108484789.44648  84533749.96046  20643962.7584                   20643967.5784
 122954204.51347  95808532.00244  23397415.1724                   23397424.0984
 11  7 24  1 47  0.0000000  0  8G17G10G12G05G04G09G02G27
 119489673.388 7                  22738119.344
 110733996.34848  86286367.02946  21071971.0634                   21071978.1374
 115343527.533 8                  21949153.633
 120825798.640 7                  22992387.203
 110087733.43348  85782698.16546  20948961.4384                   20948968.5234
 121218875.75147  94456370.24444  23067199.9304                   23067208.8284
 108467516.24148  84520290.37246  20640675.4384                   20640680.6764
 123013237.31747  95854531.59244  23408648.7814                   23408657.9844
 11  7 24  1 47 30.0000000  0  8G17G10G12G05G04G09G02G27
 119539233.050 7                  22747550.289
 110698787.86948  86258931.88346  21065270.8444                   21065278.7854
 115268721.214 7                  21934917.914
 120723237.063 7                  22972870.734
 110153573.10348  85834001.80346  20961489.7034                   20961497.7074
 121288959.56647  94510980.99744  23080536.9224                   23080545.5124
 108450588.00548  84507099.58146  20637454.1334                   20637459.1804
 123072464.91446  95900682.90444  23419919.2734                   23419928.8054
 11  7 24  1 48  0.0000000  0  8G17G10G12G05G04G09G02G27
 119588925.966 7                  22757006.188
 110664155.74848  86231945.85646  21058680.4534                   21058688.1994
 115194246.132 7                  21920746.500
 120620826.263 7                  22953382.961
 110219674.38748  85885509.30946  20974068.7114                   20974075.4694
 121359360.06047  94565838.46844  23093932.9614                   23093942.1844
 108434003.88448  84494176.91846  20634298.6804                   20634303.4454
 123131884.49946  95946983.78144  23431227.1804                   23431235.6804
 11  7 24  1 48 30.0000000  0  8G17G10G12G05G04G09G02G27
 119638752.806 7                  22766488.055
 110630101.98048  86205410.48446  21052200.6564                   21052208.2344
 115120104.611 7                  21906637.414
 120518569.271 7                  22933923.984
 110286034.67548  85937218.61246  20986696.7424                   20986703.8874
 121430073.84847  94620940.09044  23107390.6804                   23107397.8524
 108417762.86048  84481521.60946  20631207.8524                   20631212.6684
 123191493.12746  95993432.02544  23442569.7894                   23442579.2584
 11  7 24  1 49  0.0000000  0  8G17G10G12G05G04G09G02G27
 119688714.079 7                  22775996.672
 110596628.66648  86179327.40746  21045830.8674                   21045838.1884
 115046299.492 7                  21892592.266
 120416469.171 7                  22914494.547
 110352652.38948  85989128.53646  20999373.5164                   20999380.8244
 121501097.77847  94676283.33844  23120905.5784                   23120914.0274
 108401864.51248  84469133.31246  20628182.5474                   20628187.1844
 123251288.33746  96040025.63044  23453947.9844                   23453958.6294
 11  7 24  1 49 30.0000000  0  8G17G10G12G05G04G09G02G27
 119738810.407 7                  22785528.273
 110563737.42348  86153697.90446  21039571.4694                   21039579.0554
 114972833.319 7                  21878612.016
 120314528.707 7                  22895096.633
 110419524.85748  86041236.95446  21012099.0704                   21012106.9224
 121572428.50347  94731865.67444  23134480.1484                   23134488.7344
 108386308.21248  84457011.55546  20625221.7974                   20625227.0944
 123311267.33746  96086762.44944  23465362.1644                   23465371.6484
 11  7 24  1 50  0.0000000  0  8G17G10G12G05G04G09G02G27
 119789042.254 7                  22795087.367
 110531429.65548  86128523.05146  21033423.8364                   21033431.0554
 114899708.473 7                  21864696.961
 120212751.147 7                  22875728.242
 110486649.80448  86093542.09946  21024872.2274                   21024880.3834
 121644062.40847  94787684.25744  23148110.4924                   23148119.6254
 108371093.03948  84445155.59846  20622326.7814                   20622331.7854
 123371427.35046  96133640.37444  23476810.5864                   23476820.1054
 11  7 24  1 50 30.0000000  0  8G17G10G12G05G04G09G02G27
 119839409.924 7                  22804671.469
 110499707.30348  86103804.36646  21027386.8834                   21027394.3324
 114826927.530 7                  21850846.961
 120111139.159 7                  22856392.320
 110554025.04048  86146042.27446  21037693.8364                   21037702.2274
 121715996.40247  94843736.66444  23161799.1954                   23161808.2584
 108356218.17348  84433564.81846  20619496.2894                   20619501.1844
 123431766.00546  96180657.39144  23488291.6094                   23488301.6804
 11  7 24  1 51  0.0000000  0  8G17G10G12G05G04G09G02G27
 119889914.004 7                  22814282.375
 110468572.05048  86079543.15946  21021462.5944                   21021469.7464
 114754493.231 7                  21837063.047
 120009695.937 7                  22837087.891
 110621648.20848  86198735.61846  21050561.3364                   21050569.8204
 121788227.19647  94900020.36844  23175544.1094                   23175553.4384
 108341682.73148  84422238.52346  20616729.9304                   20616735.1484
 123492280.22346  96227811.28243  23499807.8594                   23499817.7464
 11  7 24  1 51 30.0000000  0  8G17G10G12G05G04G09G02G27
 119940555.014 7                  22823919.023
 110438025.31648  86055740.54246  21015649.3524                   21015656.2974
 114682408.103 7                  21823345.406
 119908424.525 7                  22817816.117
 110689517.05848  86251620.44946  21063476.9064                   21063484.5354
 121860751.42647  94956532.69244  23189345.6254                   23189354.3954
 108327485.93248  84411176.09846  20614028.2814                   20614033.6174
 123552967.24846  96275099.89244  23511355.3914                   23511366.3674
 11  7 24  1 52  0.0000000  0  8G17G10G12G05G04G09G02G27
 119991333.894 7                  22833582.281
 110408068.99448  86032397.99646  21009948.4384                   21009956.0474
 114610674.672 8                  21809695.398
 119807327.705 7                  22798577.469
 110757629.30548  86304694.93046  21076438.3674                   21076445.6564
 121933565.57647  95013270.90544  23203201.8834                   23203210.6374
 108313627.22248  84400377.11546  20611391.0234                   20611396.4574
 123613824.61746  96322521.19544  23522936.7344                   23522947.3484
 11  7 24  1 52 30.0000000  0  8G17G10G12G05G04G09G02G27
 120042251.240 7                  22843270.836
 110378704.86648  86009516.89246  21004360.9224                   21004367.9614
 114539295.581 8                  21796112.523
 119706409.009 7                  22779373.469
 110825983.01248  86357957.55246  21089445.3054                   21089452.3874
 122006666.38447  95070232.51444  23217112.6174                   23217121.5554
 108300106.30548  84389841.35946  20608818.6094                   20608823.3674
 123674849.83346  96370073.24844  23534549.5864                   23534559.9614
 11  7 24  1 53  0.0000000  0  8G17G10G12G05G04G09G02G27
 120093307.117 7                  22852986.563
 110349933.71548  85987097.83746  20998885.8134                   20998893.4694
 114468272.909 7                  21782597.406
 119605670.782 7                  22760204.047
 110894575.33748  86411406.12446  21102497.8834                   21102505.3714
 122080049.89447  95127414.40144  23231076.8364                   23231086.0864
 108286921.33548  84379567.35646  20606309.4534                   20606314.1844
 123736039.28446  96417753.29744  23546194.3754                   23546203.2424
 11  7 24  1 53 30.0000000  0  8G17G10G12G05G04G09G02G27
 120144502.452 7                  22862728.859
 110321757.84248  85965142.64846  20993524.0554                   20993531.6644
 114397609.719 7                  21769150.250
 119505116.470 7                  22741069.008
 110963404.59748  86465039.30846  21115595.5784                   21115603.4184
 122153713.29847  95184814.41044  23245094.7504                   23245104.4064
 108274072.32648  84369555.14646  20603864.0704                   20603868.9224
 123797390.93247  96465559.73944  23557868.7034                   23557877.7854
 11  7 24  1 54  0.0000000  0  8G17G10G12G05G04G09G02G27
 120195837.505 7                  22872498.242
 110294178.46748  85943652.24646  20988276.5864                   20988283.4224
 114327308.339 7                  21755771.625
 119404748.966 7                  22721969.492
 111032468.18848  86518855.08846  21128738.0314                   21128745.7074
 122227652.99147  95242429.72144  23259165.1954                   23259173.9964
 108261558.32848  84359803.99346  20601482.6024                   20601487.6134
 123858901.86846  96513490.28544  23569573.9384                   23569582.7544
 11  7 24  1 54 30.0000000  0  8G17G10G12G05G04G09G02G27
 120247312.450 7                  22882293.531
 110267196.82348  85922627.61546  20983141.8054                   20983148.9384
 114257370.702 7                  21742463.617
 119304570.667 7                  22702907.148
 111101763.96348  86572851.77146  21141924.5394                   21141932.7854
 122301865.49247  95300257.61144  23273287.5084                   23273296.6604
 108249377.64848  84350312.57246  20599165.2034                   20599169.7584
 123920569.16846  96561542.65144  23581308.8134                   23581317.2544
 11  7 24  1 55  0.0000000  0  8G17G10G12G05G04G09G02G27
 120298928.028 7                  22892115.719
 110240814.56447  85902070.04046  20978121.0164                   20978128.8014
 114187799.726 8                  21729224.773
 119204584.906 7                  22683879.227
 111171289.50548  86627027.50946  21155155.1174                   21155162.2074
 122376347.47047  95358295.48644  23287460.5634                   23287469.8674
 108237529.96548  84341080.62746  20596910.2344                   20596914.9414
 123982390.27746  96609714.80344  23593073.3054                   23593081.7624
 11  7 24  1 55 30.0000000  0  8G17G10G12G05G04G09G02G27
 120350685.061 7                  22901964.875
 110215033.50248  85881980.93646  20973215.3134                   20973222.5984
 114118598.248 7                  21716055.922
 119104795.133 7                  22664890.359
 111241042.85748  86681380.76346  21168428.5474                   21168436.4064
 122451095.94147  95416541.00244  23301685.4224                   23301693.7074
 108226014.93848  84332107.89046  20594719.2584                   20594723.4964
 124044362.55246  96658004.83644  23604866.4064                   23604875.4924
 11  7 24  1 56  0.0000000  0  9G17G10G12G05G04G09G25G02G27
 120402583.733 7                  22911840.531
 110189854.30348  85862360.79546  20968424.0164                   20968431.2854
 114049768.504 7                  21702958.297
 119005203.612 7                  22645937.977
 111311021.62348  86735909.67446  21181745.3754                   21181752.5474
 122526106.80946  95474991.00744  23315959.3984                   23315968.1214
 129512311.73416                  24645382.023
 108214831.16948  84323393.28546  20592591.0394                   20592595.3874
 124106482.82346  96706410.20043  23616687.4064                   23616696.8484
 11  7 24  1 56 30.0000000  0  9G17G10G12G05G04G09G25G02G27
 120454624.708 7                  22921743.273
 110165278.75348  85843211.03946  20963747.5084                   20963754.8444
 113981312.945 8                  21689931.352
 118905813.905 7                  22627024.773
 111381223.61848  86790612.53846  21195104.3594                   21195111.4304
 122601377.03747  95533643.11944  23330281.7424                   23330291.7894
 129409041.978 6                  24625729.359
 108203977.83648  84314936.16046  20590525.6254                   20590530.6294
 124168748.60946  96754928.92643  23628535.8364                   23628546.1214
 11  7 24  1 57  0.0000000  0  9G17G10G12G05G04G09G25G02G27
 120506808.744 7                  22931673.578
 110141308.57448  85824533.00646  20959185.6954                   20959193.1804
 113913234.349 7                  21676976.602
 118806628.952 7                  22608150.063
 111451646.85348  86845487.78346  21208505.3674                   21208512.5084
 122676903.28347  95592494.71444  23344655.1564                   23344663.4964
 129305882.349 5                  24606099.141
 108193454.42348  84306736.12946  20588523.2034                   20588528.2154
 124231157.20246  96803558.93843  23640411.5084                   23640421.9964
 11  7 24  1 57 30.0000000  0  9G17G10G12G05G04G09G25G02G27
 120559136.344 7                  22941631.336
 110117944.77248  85806327.46446  20954739.9384                   20954747.0164
 113845535.262 7                  21664093.797
 118707651.827 7                  22589315.922
 111522289.44148  86900533.97046  21221948.4614                   21221955.2584
 122752682.06947  95651543.05144  23359075.7894                   23359083.8984
 129202835.482 5                  24586488.922
 108183260.18048  84298792.57647  20586583.6564                   20586587.8444
 124293705.94846  96852298.11643  23652314.7274                   23652325.0204
 11  7 24  1 58  0.0000000  0  9G17G10G12G05G04G09G25G02G27
 120611607.858 7                  22951616.297
 110095188.62648  85788595.43246  20950409.2894                   20950416.6374
 113778217.749 7                  21651283.836
 118608885.376 7                  22570521.961
 111593148.61248  86955748.91546  21235432.4694                   21235440.2424
 122828709.73247  95710785.36744  23373542.7504                   23373550.9964
 129099903.422 6                  24566903.961
 108173393.87148  84291104.57647  20584705.9224                   20584710.3284
 124356391.88746  96901144.26543  23664243.0314                   23664253.7464
 11  7 24  1 58 30.0000000  0  9G17G10G12G05G04G09G25G02G27
 120664223.496 7                  22961629.063
 110073041.16448  85771337.68846  20946194.8984                   20946202.3444
 113711284.311 7                  21638546.195
 118510332.256 7                  22551767.930
 111664221.89648  87011130.69846  21248957.1484                   21248964.7734
 122904982.87947  95770218.94444  23388056.3754                   23388065.3714
 128997088.512 6                  24547338.453
 108163854.30748  84283671.18247  20582890.1564                   20582895.1024
 124419212.02246  96950094.98843  23676196.5084                   23676207.4964
 11  7 24  1 59  0.0000000  0  9G17G10G12G05G04G09G25G02G27
 120716983.876 7                  22971669.375
 110051503.65648  85754555.24746  20942096.6484                   20942103.2664
 113644737.318 7                  21625883.227
 118411995.473 7                  22533054.563
 111735507.21248  87066677.69746  21262522.3984                   21262529.6884
 122981497.93747  95829841.01044  23402616.5944                   23402626.2774
 128894393.302 6                  24527796.086
 108154640.75748  84276491.82447  20581136.9224                   20581141.7624
 124482163.66446  96999148.15743  23688176.8444                   23688186.8404
 11  7 24  1 59 30.0000000  0  9G17G10G12G05G04G09G25G02G27
 120769889.521 7                  22981736.977
 110030577.34648  85738249.05646  20938114.3204                   20938121.6054
 113578579.388 7                  21613294.055
 118313877.913 7                  22514383.703
 111807002.52847  87122388.31346  21276127.6724                   21276134.8324
 123058251.60047  95889649.05944  23417222.6954                   23417231.3284
 128791820.125 6                  24508276.398
 108145752.26648  84269565.75147  20579445.6254                   20579450.4264
 124545244.01746  97048301.59543  23700179.6954                   23700190.3244
 11  7 24  2  0  0.0000000  0  9G17G10G12G05G04G09G25G02G27
 120822940.981 7                  22991830.898
 110010263.11148  85722419.80946  20934248.8364                   20934256.1024
 113512812.757 7                  21600778.922
 118215982.705 7                  22495754.359
 111878705.57448  87178260.81646  21289772.4064                   21289779.2274
 123135240.55647  95949640.41943  23431873.4694                   23431882.1604
 128689371.627 6                  24488781.320
 108137187.93148  84262892.27147  20577815.9224                   20577820.3484
 124608450.27346  97097553.10743  23712208.9144                   23712217.7774
 11  7 24  2  0 30.0000000  0  9G17G10G12G05G04G09G25G02G27
 120876138.926 7                  23001953.914
 109990562.51947  85707068.72046  20930499.6804                   20930506.7194
 113447440.183 7                  21588338.773
 118118312.713 7                  22477167.938
 111950614.33447  87234293.62646  21303455.4534                   21303463.0984
 123212461.31147  96009812.42544  23446567.6564                   23446577.1374
 128587050.557 7                  24469310.539
 108128947.08948  84256470.86647  20576247.6094                   20576252.5434
 124671779.83746  97146900.73543  23724260.0554                   23724269.9654
 11  7 24  2  1  0.0000000  0  9G17G10G12G05G04G09G25G02G27
 120929483.787 7                  23012106.469
 109971476.57248  85692196.58746  20926867.5944                   20926874.9884
 113382463.909 7                  21575974.086
 118020871.415 7                  22458625.523
 112022726.51147  87290484.92746  21317178.5784                   21317185.4884
 123289910.34947  96070162.32444  23461305.3054                   23461315.2424
 128484859.179 7                  24449863.680
 108121028.57148  84250300.62047  20574740.9384                   20574745.4384
 124735229.97647  97196342.32143  23736334.3674                   23736344.0784
 11  7 24  2  1 30.0000000  0  9G17G10G12G05G04G09G25G02G27
 120982975.809 7                  23022285.703
 109953006.35847  85677804.22946  20923353.2344                   20923359.9494
 113317886.440 7                  21563685.148
 117923661.580 7                  22440127.953
 112095039.99647  87346833.12245  21330938.3984                   21330946.4304
 123367584.38547  96130687.49044  23476087.5314                   23476096.1294
 128382800.013 7                  24430442.281
 108113431.51848  84244380.86247  20573295.2114                   20573299.6524
 124798797.82247  97245875.66444  23748431.4224                   23748440.7114
 11  7 24  2  2  0.0000000  0  9G17G10G12G05G04G09G25G02G27
 121036615.544 7                  23032492.492
 109935152.71348  85663892.32846  20919955.9924                   20919962.6604
 113253709.839 7                  21551472.859
 117826685.696 7                  22421673.703
 112167552.50247  87403336.37145  21344736.8914                   21344745.3244
 123445479.86847  96191385.18144  23490909.8754                   23490919.7344
 128280875.428 7                  24411047.555
 108106154.83548  84238710.75146  20571910.1484                   20571914.8284
 124862480.38247  97295498.38444  23760550.1254                   23760559.5204
 11  7 24  2  2 30.0000000  0  9G17G10G12G05G04G09G25G02G27
 121090403.528 7                  23042727.938
 109917916.79248  85650461.76245  20916675.6724                   20916682.6564
 113189937.024 7                  21539337.617
 117729946.833 7                  22403264.742
 112240261.95348  87459993.09246  21358573.2504                   21358581.7344
 123523593.29147  96252252.72244  23505775.1254                   23505784.5164
 128179088.045 7                  24391678.023
 108099197.70548  84233289.63647  20570586.1334                   20570591.2234
 124926275.10547  97345208.50944  23772689.7034                   23772699.1334
 11  7 24  2  3  0.0000000  0  9G17G10G12G05G04G09G25G02G27
 121144340.228 7                  23052991.883
 109901299.59948  85637513.32545  20913513.4614                   20913520.4964
 113126570.045 7                  21527279.148
 117633448.040 7                  22384900.906
 112313166.06747  87516801.47045  21372447.1884                   21372454.6024
 123601921.17747  96313287.38744  23520680.0864                   23520689.3984
 128077440.336 7                  24372334.672
 108092559.21048  84228116.79247  20569323.1564                   20569327.7624
 124990179.27947  97395003.90344  23784850.2664                   23784859.9734
 11  7 24  2  3 30.0000000  0  9G17G10G12G05G04G09G25G02G27
 121198426.148 7                  23063283.930
 109885301.91848  85625047.62245  20910469.2424                   20910475.9694
 113063611.150 7                  21515298.570
 117537192.429 7                  22366583.602
 112386262.60947  87573759.81545  21386356.8914                   21386364.2854
 123680459.99647  96374486.43444  23535624.8204                   23535635.1094
 127975934.803 7                  24353019.797
 108086238.22248  84223191.36847  20568120.2734                   20568125.1604
 125054189.84947  97444882.23843  23797030.2114                   23797040.5664
 11  7 24  2  4  0.0000000  0  9G17G10G12G05G04G09G25G02G27
 121252661.707 7                  23073605.383
 109869924.68647  85613065.38945  20907543.1414                   20907549.8164
 113001062.852 7                  21503395.906
 117441182.345 7                  22348314.180
 112459549.42647  87630866.39845  21400302.8914                   21400310.8284
 123759206.43947  96435847.29544  23550609.8834                   23550620.1334
 127874573.942 7                  24333731.766
 108080233.63648  84218512.48947  20566977.1334                   20566982.4734
 125118304.03346  97494841.28243  23809231.4304                   23809241.0204
 11  7 24  2  4 30.0000000  0  9G17G10G12G05G04G09G25G02G27
 121307047.251 7                  23083954.492
 109855169.23448  85601567.64645  20904734.5004                   20904742.0234
 112938927.621 7                  21491571.961
 117345421.197 7                  22330091.914
 112533024.58447  87688119.76745  21414284.9384                   21414291.7974
 123838157.12847  96497367.26044  23565633.9384                   23565644.0234
 127773360.283 7                  24314469.711
 108074544.42348  84214079.34447  20565894.9304                   20565899.7774
 125182519.13446  97544878.96743  23821451.3594                   23821460.9614
 11  7 24  2  5  0.0000000  0  9G17G10G12G05G04G09G25G02G27
 121361583.562 7                  23094331.875
 109841036.04047  85590554.78945  20902045.4454                   20902052.2704
 112877207.773 7                  21479826.156
 117249911.888 8                  22311917.070
 112606685.85747  87745518.18545  21428301.7344                   21428309.2114
 123917308.49847  96559043.59944  23580695.4844                   23580706.0084
 127672296.435 6                  24295238.234
 108069169.82648  84209891.36446  20564872.4064                   20564877.5354
 125246832.35646  97594993.07843  23833690.1024                   23833699.1884
 11  7 24  2  5 30.0000000  0  9G17G10G12G05G04G09G25G02G27
 121416270.889 7                  23104738.250
 109827526.11547  85580027.60445  20899474.4064                   20899481.7274
 112815905.835 7                  21468161.227
 117154657.624 7                  22293789.922
 112680531.39547  87803060.15845  21442353.8364                   21442361.9844
 123996657.44447  96620873.94844  23595795.6804                   23595805.3524
 127571385.121 6                  24276036.172
 108064108.95848  84205947.84946  20563909.0784                   20563913.5704
 125311241.19146  97645181.74944  23845945.5554                   23845955.8874
 11  7 24  2  6  0.0000000  0  9G17G10G12G05G04G09G25G02G27
 121471109.922 7                  23115173.289
 109814640.44747  85569986.84245  20897022.6804                   20897029.5784
 112755024.192 8                  21456576.000
 117059661.433 8                  22275713.445
 112754559.05547  87860744.07445  21456441.2034                   21456448.8914
 124076200.48747  96682855.48444  23610932.6804                   23610942.0904
 127470628.890 6                  24256862.227
 108059361.05048  84202248.20546  20563005.7344                   20563010.3984
 125375742.75546  97695442.69143  23858219.5234                   23858229.7464
 11  7 24  2  6 30.0000000  0  9G17G10G12G05G04G09G25G02G27
 121526100.962 7                  23125638.297
 109802379.42648  85560432.83245  20894689.3594                   20894696.7194
 112694564.930 7                  21445071.352
 116964925.756 7                  22257685.117
 112828766.22147  87918567.82345  21470562.9144                   21470570.5474
 124155933.83247  96744985.29544  23626106.0784                   23626114.6994
 127370030.025 7                  24237718.570
 108054924.43648  84198791.11946  20562161.2274                   20562165.6644
 125440333.88446  97745773.37843  23870511.1334                   23870521.5474
 11  7 24  2  7  0.0000000  0  9G17G10G12G05G04G09G25G02G27
 121581244.689 7                  23136132.148
 109790744.22048  85551366.46045  20892475.2194                   20892482.3984
 112634530.159 8                  21433646.813
 116870453.538 7                  22239708.102
 112903151.18448  87976530.13945  21484717.4454                   21484725.1884
 124235854.06647  96807260.73244  23641314.0084                   23641323.0434
 127269591.346 7                  24218605.906
 108050798.43948  84195576.07146  20561375.8914                   20561380.7584
 125505012.17646  97796171.98043  23882818.0864                   23882829.0984
 11  7 24  2  7 30.0000000  0  9G17G10G12G05G04G09G25G02G27
 121636541.388 7                  23146654.461
 109779735.58548  85542788.34445  20890380.0944                   20890387.3874
 112574922.403 8                  21422303.648
 116776247.644 7                  22221781.156
 112977711.80048  88034629.35845  21498906.0314                   21498913.5084
 124315958.05647  96869679.32044  23656557.0084                   23656566.3524
 127169315.251 7                  24199524.453
 108046981.98348  84192602.22246  20560650.1094                   20560654.4414
 125569774.69946  97846636.23043  23895142.2664                   23895153.6294
 11  7 24  2  8  0.0000000  0  9G17G10G12G05G04G09G25G02G27
 121691991.637 7                  23157206.266
 109769354.12447  85534698.92145  20888404.5394                   20888412.1804
 112515744.439 7                  21411042.453
 116682311.547 7                  22203905.422
 113052446.18247  88092863.94945  21513127.2344                   21513135.1884
 124396242.34047  96932238.45243  23671835.0234                   23671843.7544
 127069204.651 7                  24180473.625
 108043474.55448  84189869.17446  20559982.1644                   20559987.0044
 125634618.96946  97897164.17743  23907482.1724                   23907492.5664
 11  7 24  2  8 30.0000000  0  9G17G10G12G05G04G09G25G02G27
 121747595.914 7                  23167787.055
 109759600.65448  85527098.85645  20886548.6254                   20886556.0314
 112456998.243 7                  21399863.523
 116588648.018 8                  22186082.633
 113127352.09747  88151232.19245  21527381.4144                   21527388.8054
 124476703.30647  96994935.21944  23687146.0864                   23687154.8834
 126969261.983 7                  24161454.719
 108040274.92048  84187375.97046  20559373.8364                   20559378.4144
 125699542.11646  97947753.58243  23919837.4614                   23919846.5394
 11  7 24  2  9  0.0000000  0  9G17G10G12G05G04G09G25G02G27
 121803354.603 7                  23178397.531
 109750475.54248  85519988.40045  20884812.4384                   20884819.4964
 112398686.248 8                  21388766.445
 116495259.913 7                  22168311.352
 113202427.57847  88209732.59245  21541667.8834                   21541675.3204
 124557337.41647  97057766.94944  23702490.3134                   23702499.0514
 126869489.797 7                  24142469.164
 108037381.74148  84185121.56046  20558822.8984                   20558827.6484
 125764541.31946  97998402.25543  23932206.2274                   23932215.8164
 11  7 24  2  9 30.0000000  0  9G17G10G12G05G04G09G25G02G27
 121859268.162 7                  23189038.063
 109741979.39948  85513368.04345  20883195.3914                   20883202.6054
 112340810.484 7                  21377753.039
 116402149.876 7                  22150592.664
 113277670.33547  88268363.31045  21555985.9844                   21555994.2584
 124638141.50847  97120731.10744  23717866.9844                   23717875.2624
 126769890.641 7                  24123515.914
 108034794.08748  84183105.21446  20558330.4224                   20558335.7504
 125829613.69646  98049107.92843  23944588.7734                   23944598.1174
 11  7 24  2 10  0.0000000  0  9G17G10G12G05G04G09G25G02G27
 121915337.075 7                  23199708.242
 109734112.63548  85507238.12445  20881698.5234                   20881705.3754
 112283373.229 7                  21366823.320
 116309320.844 8                  22132927.805
 113353078.15847  88327122.68245  21570335.3674                   21570343.0904
 124719112.16846  97183825.06843  23733275.1174                   23733284.5004
 126670466.869 7                  24104596.086
 108032510.68348  84181325.96046  20557895.7814                   20557900.7114
 125894756.04046  98099868.12543  23956985.8914                   23956995.0984
 11  7 24  2 10 30.0000000  0  9G17G10G12G05G04G09G25G02G27
 121971562.054 6                  23210406.344
 109726876.58747  85501599.66145  20880321.6414                   20880328.8364
 112226376.976 7                  21355977.289
 116216775.996 7                  22115316.391
 113428649.58448  88386009.51045  21584716.7034                   21584723.9654
 124800246.16947  97247046.33644  23748714.4694                   23748722.8444
 126571221.510 7                  24085710.711
 108030531.21348  84179783.53146  20557519.2194                   20557524.0984
 125959966.27946  98150681.27143  23969394.2894                   23969404.2774
 11  7 24  2 11  0.0000000  0  9G17G10G12G05G04G09G25G02G27
 122027943.270 6                  23221135.844
 109720271.32747  85496452.73445  20879064.6174                   20879071.4574
 112169823.801 7                  21345215.531
 116124518.216 7                  22097760.578
 113504382.31348  88445022.05245  21599127.8674                   21599135.4884
 124881539.71546  97310391.91343  23764184.9144                   23764192.2974
 126472157.118 7                  24066859.211
 108028854.35348  84178476.88846  20557200.3674                   20557205.1414
 126025241.70446  98201545.23743  23981815.4534                   23981826.9574
 11  7 24  2 11 30.0000000  0  9G17G10G12G05G04G09G25G02G27
 122084480.953 6                  23231894.461
 109714297.07247  85491797.50345  20877928.0084                   20877934.5514
 112113716.026 7                  21334538.883
 116032550.220 7                  22080259.219
 113580274.26948  88504158.66045  21613569.7344                   21613577.0864
 124962989.38946  97373859.19543  23779682.9844                   23779692.4884
 126373276.076 7                  24048042.711
 108027478.70048  84177404.96946  20556938.5634                   20556943.1024
 126090579.25647  98252457.58543  23994249.1254                   23994260.4844
 11  7 24  2 12  0.0000000  0  9G17G10G12G05G04G09G25G02G27
 122141175.986 6                  23242682.617
 109708954.71947  85487634.64245  20876910.8834                   20876918.4264
 112058056.030 8                  21323946.859
 115940875.042 7                  22062814.523
 113656323.43548  88563417.75945  21628041.2664                   21628048.7774
 125044591.92847  97437445.54844  23795212.5394                   23795221.2234
 126274581.170 7                  24029261.258
 108026403.59048  84176567.22246  20556733.5864                   20556738.5354
 126155976.38747  98303416.38644  24006695.0234                   24006704.8834
 11  7 24  2 12 30.0000000  0  9G17G10G12G05G04G09G25G02G27
 122198028.832 6                  23253501.313
 109704244.82947  85483964.63445  20876014.9454                   20876022.2774
 112002845.988 7                  21313440.281
 115849495.545 7                  22045425.727
 113732528.09148  88622797.98845  21642542.4924                   21642549.8284
 125126343.95346  97501148.40643  23810767.9924                   23810777.6134
 126176074.979 7                  24010515.711
 108025628.02347  84175962.90646  20556586.2664                   20556590.5594
 126221430.34647  98354419.35144  24019151.0704                   24019161.3164
 11  7 24  2 13  0.0000000  0  9G17G10G12G05G04G09G25G02G27
 122255039.710 7                  23264350.750
 109700167.13347  85480787.22145  20875239.0234                   20875245.6484
 111948087.971 7                  21303020.352
 115758414.627 7                  22028093.352
 113808885.69148  88682297.44445  21657073.0944                   21657079.8204
 125208242.10147  97564965.09343  23826352.8284                   23826362.8914
 126077760.001 7                  23991806.953
 108025150.47548  84175590.79546  20556495.4774                   20556499.9804
 126286938.11346  98405464.29143  24031615.6094                   24031626.6214
 11  7 24  2 13 30.0000000  0  9G17G10G12G05G04G09G25G02G27
 122312209.138 6                  23275229.125
 109696722.80947  85478103.36645  20874583.9224                   20874590.3094
 111893784.425 7                  21292686.805
 115667635.442 7                  22010818.836
 113885394.81348  88741914.95445  21671632.2894                   21671639.8754
 125290283.04347  97628893.02243  23841965.7194                   23841973.6134
 125979639.035 7                  23973135.656
 108024970.40548  84175450.49346  20556461.2504                   20556466.2344
 126352497.19346  98456549.31743  24044090.3914                   24044102.4304
 11  7 24  2 14  0.0000000  0  9G17G10G12G05G04G09G25G02G27
 122369537.520 6                  23286138.602
 109693912.07247  85475913.20345  20874048.3284                   20874055.2504
 111839937.527 8                  21282439.727
 115577160.557 7                  21993602.164
 113962053.30648  88801648.84045  21686219.6414                   21686227.5474
 125372463.19347  97692929.45644  23857603.6804                   23857612.2934
 125881714.706 7                  23954500.336
 108025086.52148  84175540.97746  20556483.2424                   20556487.6054
 126418104.85146  98507672.06143  24056574.2034                   24056587.4734
 11  7 24  2 14 30.0000000  0  9G17G10G12G05G04G09G25G02G27
 122427025.373 6                  23297077.945
 109691735.03947  85474216.83845  20873634.5314                   20873641.2194
 111786549.196 8                  21272280.500
 115486992.762 8                  21976444.039
 114038859.15948  88861497.54645  21700835.5554                   21700842.6884
 125454779.37047  97757071.88144  23873267.9534                   23873277.0664
 125783989.618 7                  23935904.281
 108025497.88648  84175861.53646  20556561.5084                   20556566.5124
 126483758.26246  98558830.53943  24069068.8594                   24069079.9454
 11  7 24  2 15  0.0000000  0  9G17G10G12G05G04G09G25G02G27
 122484672.995 6                  23308048.023
 109690191.72748  85473014.28245  20873340.8364                   20873347.5554
 111733621.476 8                  21262209.188
 115397134.911 8                  21959344.680
 114115810.31748  88921459.50845  21715478.7194                   21715485.6564
 125537228.12247  97821317.63344  23888957.3524                   23888966.2894
 125686466.271 7                  23917345.625
 108026203.23047  84176411.16446  20556695.4454                   20556700.2544
 126549454.44646  98610022.32443  24081570.4614                   24081581.5004
 11  7 24  2 15 30.0000000  0  9G17G10G12G05G04G09G25G02G27
 122542480.740 6                  23319048.297
 109689282.73247  85472306.01145  20873167.7664                   20873174.3404
 111681156.719 8                  21252225.336
 115307589.575 8                  21942304.523
 114192904.84648  88981533.17845  21730149.0704                   21730156.8674
 125619806.01846  97885663.95944  23904671.4304                   23904681.2304
 125589147.330 7                  23898826.281
 108027201.40348  84177188.97946  20556885.2894                   20556889.7974
 126615190.78046  98661245.35543  24094079.5634                   24094090.6724
 11  7 24  2 16  0.0000000  0  9G17G10G12G05G04G09G25G02G27
 122600449.361 6                  23330079.773
 109689008.68448  85472092.49345  20873115.7344                   20873122.0664
 111629157.170 8                  21242329.781
 115218360.281 8                  21925324.594
 114270141.02348  89041717.21445  21744846.3984                   21744854.6724
 125702509.82646  97950108.40344  23920409.1644                   23920419.4104
 125492035.725 7                  23880346.891
 108028491.81748  84178194.49546  20557131.0864                   20557135.7704
 126680964.81146  98712497.72443  24106595.6954                   24106606.6054
 11  7 24  2 16 30.0000000  0  9G17G10G12G05G04G09G25G02G27
 122658579.184 7                  23341142.000
 109689369.28848  85472373.50945  20873184.6644                   20873191.0004
 111577624.991 8                  21232523.711
 115129449.744 7                  21908405.219
 114347516.48548  89102009.78545  21759570.5164                   21759577.6024
 125785336.03647  98014648.28244  23936170.5084                   23936180.9534
 125395133.865 7                  23861907.500
 108030073.11248  84179426.68946  20557432.1954                   20557436.7234
 126746773.49046  98763777.21543  24119119.5944                   24119129.8284
 11  7 24  2 17  0.0000000  0  9G17G10G12G05G04G09G25G02G27
 122716870.162 7                  23352233.852
 109690364.47248  85473148.99545  20873373.0314                   20873380.2194
 111526562.193 8                  21222806.789
 115040860.768 7                  21891547.516
 114425029.54048  89162409.57745  21774321.6334                   21774328.1134
 125868281.12846  98079280.75043  23951953.9774                   23951964.8874
 125298444.323 7                  23843508.758
 108031943.88648  84180884.45446  20557787.9774                   20557792.7074
 126812614.15946  98815081.51343  24131648.8984                   24131659.0664
 11  7 24  2 17 30.0000000  0  9G17G10G12G05G04G09G25G02G27
 122775323.020 7                  23363357.047
 109691994.67348  85474419.30845  20873683.4534                   20873690.4884
 111475970.760 8                  21213179.766
 114952595.566 7                  21874750.500
 114502678.18948  89222915.03645  21789097.5004                   21789104.2894
 125951341.84246  98144003.31644  23967761.2114                   23967771.3164
 125201969.848 7                  23825149.594
 108034103.34248  84182567.16446  20558199.2974                   20558203.5044
 126878483.97046  98866408.64243  24144183.1334                   24144193.1804
 11  7 24  2 18  0.0000000  0  9G17G10G12G05G04G09G25G02G27
 122833938.168 7                  23374511.336
 109694260.05548  85476184.56845  20874114.6484                   20874121.1764
 111425852.750 8                  21203642.570
 114864657.309 7                  21858016.375
 114580460.37148  89283524.53745  21803898.2894                   21803905.9534
 126034514.43047  98208813.07544  23983589.6484                   23983598.4774
 125105712.979 7                  23806832.867
 108036549.85948  84184473.55246  20558664.2664                   20558669.6094
 126944380.14546  98917756.22043  24156723.4224                   24156733.0164
 11  7 24  2 18 30.0000000  0  9G17G10G12G05G04G09G25G02G27
 122892716.168 7                  23385696.195
 109697160.65447  85478444.80045  20874666.2974                   20874673.9224
 111376210.476 8                  21194195.898
 114777048.989 7                  21841345.250
 114658374.47848  89344236.80945  21818725.5634                   21818733.0394
 126117795.96346  98273707.72444  23999435.9924                   23999446.6414
 125009676.575 7                  23788557.672
 108039283.17448  84186603.42846  20559184.5554                   20559189.3554
 127010300.04846  98969122.27843  24169267.5944                   24169276.7664
 11  7 24  2 19  0.0000000  0  9G17G10G12G05G04G09G25G02G27
 122951657.199 7                  23396912.438
 109700696.75948  85481200.21845  20875339.1024                   20875346.7774
 111327045.906 8                  21184840.508
 114689773.355 7                  21824737.117
 114736418.59048  89405050.41345  21833576.6954                   21833583.8164
 126201183.04747  98338684.62544  24015304.2344                   24015313.9344
 124913863.299 7                  23770324.398
 108042301.98848  84188955.76146  20559759.0944                   20559763.9804
 127076241.13046  99020504.85943  24181816.0704                   24181825.6804
 11  7 24  2 19 30.0000000  0  9G17G10G12G05G04G09G25G02G27
 123010761.728 7                  23408159.680
 109704868.33448  85484450.81645  20876133.3054                   20876140.1564
 111278361.079 8                  21175575.938
 114602833.422 7                  21808193.500
 114814590.77947  89465963.81545  21848451.8834                   21848459.1954
 126284672.38447  98403741.19343  24031191.7194                   24031201.3524
 124818275.849 7                  23752134.922
 108045605.16248  84191529.67446  20560387.5554                   20560392.7074
 127142200.76546  99071901.87444  24194367.4534                   24194377.3324
 11  7 24  2 20  0.0000000  0  9G17G10G12G05G04G09G25G02G27
 123070030.147 7                  23419438.438
 109709675.21248  85488196.44545  20877048.3204                   20877054.7074
 111230158.010 8                  21166402.977
 114516231.754 7                  21791713.648
 114892889.11548  89526975.52145  21863351.5474                   21863359.2584
 126368260.74047  98468874.91843  24047099.0394                   24047107.2234
 124722916.620 7                  23733988.016
 108049191.52748  84194324.26446  20561069.9144                   20561074.9264
 127208175.96346  99123311.05843  24206922.8914                   24206932.2114
 11  7 24  2 20 30.0000000  0  9G17G10G12G05G04G09G25G02G27
 123129462.778 6                  23430747.156
 109715117.16748  85492436.93945  20878083.5394                   20878090.6954
 111182438.615 8                  21157322.484
 114429970.848 7                  21775298.516
 114971311.56148  89588083.91045  21878275.2114                   21878282.8554
 126451944.49647  98534082.98144  24063022.9614                   24063032.0784
 124627788.340 7                  23715886.297
 108053059.61048  84197338.36346  20561805.8754                   20561811.0354
 127274163.98146  99174730.22743  24219478.9774                   24219489.2544
 11  7 24  2 21  0.0000000  0  9G17G10G12G05G04G09G25G02G27
 123189059.956 7                  23442088.141
 109721194.31747  85497172.40645  20879240.0944                   20879247.3054
 111135205.103 8                  21148334.094
 114344053.727 8                  21758949.531
 115049856.46348  89649287.71945  21893221.8914                   21893229.8914
 126535720.37347  98599362.80143  24078964.9924                   24078975.4574
 124532893.846 7                  23697828.570
 108057208.71647  84200571.45046  20562595.6414                   20562600.4734
 127340162.27046  99226157.42643  24232037.6024                   24232048.8094
 11  7 24  2 21 30.0000000  0  9G17G10G12G05G04G09G25G02G27
 123248822.210 7                  23453461.125
 109727906.62947  85502402.78945  20880517.0554                   20880524.3164
 111088459.130 8                  21139438.461
 114258483.011 8                  21742665.664
 115128521.69648  89710585.30645  21908191.2734                   21908198.6374
 126619585.05047  98664711.83544  24094924.8204                   24094933.7234
 124438235.587 7                  23679815.461
 108061637.24948  84204022.28246  20563438.5004                   20563443.4614
 127406167.91346  99277590.32243  24244597.5634                   24244609.5474
 11  7 24  2 22  0.0000000  0  9G17G10G12G05G04G09G25G02G27
 123308749.916 6                  23464864.844
 109735254.04147  85508128.06945  20881915.3674                   20881922.4264
 111042203.276 8                  21130636.195
 114173261.889 8                  21726448.570
 115207305.78247  89771975.51645  21923183.0704                   21923190.7234
 126703535.26547  98730127.54944  24110899.9304                   24110908.6884
 124343816.522 7                  23661848.367
 108066344.79748  84207690.50846  20564334.4844                   20564338.7114
 127472178.36046  99329027.03142  24257159.9144                   24257169.6374
 11  7 24  2 22 30.0000000  0  9G17G10G12G05G04G09G25G02G27
 123368843.178 6                  23476299.898
 109743236.21747  85514347.95645  20883433.8754                   20883441.5944
 110996438.658 8                  21121927.641
 114088392.559 8                  21710298.055
 115286206.53848  89833456.59645  21938197.8984                   21938204.9574
 126787567.43347  98795607.10243  24126889.9614                   24126900.0744
 124249638.946 7                  23643926.938
 108071329.61448  84211574.80146  20565282.5784                   20565287.3834
 127538190.86545  99380465.27642  24269721.0864                   24269731.4774
 11  7 24  2 23  0.0000000  0  9G17G10G12G05G04G09G25G02G27
 123429102.584 6                  23487766.555
 109751852.96747  85521062.31645  20885073.8594                   20885080.9144
 110951167.500 8                  21113312.344
 114003877.794 8                  21694215.867
 115365222.22248  89895027.26545  21953233.9454                   21953240.9414
 126871678.46947  98861148.07243  24142896.0004                   24142904.6174
 124155705.694 7                  23626051.422
 108076590.94547  84215674.56346  20566284.2194                   20566289.0634
 127604202.86446  99431903.09742  24282283.5314                   24282293.2734
 11  7 24  2 23 30.0000000  0  9G17G10G12G05G04G09G25G02G27
 123489528.512 7                  23499266.539
 109761104.36947  85528271.20145  20886834.9694                   20886841.3794
 110906392.019 8                  21104791.891
 113919720.833 8                  21678201.055
 115444351.26748  89956686.26545  21968291.4144                   21968298.9654
 126955865.27047  98926748.10643  24158916.6024                   24158924.9964
 124062019.616 7                  23608224.078
 108082127.72148  84219988.94246  20567337.8524                   20567342.2584
 127670211.60046  99483338.39343  24294845.3594                   24294854.5204
 11  7 24  2 24  0.0000000  0  9G17G10G12G05G04G09G25G02G27
 123550121.260 7                  23510796.328
 109770989.86347  85535974.20345  20888715.8054                   20888722.5474
 110862114.174 8                  21096366.047
 113835924.112 8                  21662255.055
 115523591.69147  90018432.02045  21983370.8444                   21983378.2974
 127040124.08147  98992404.28244  24174950.7894                   24174959.0864
 123968583.236 6                  23590442.570
 108087938.59948  84224516.91446  20568443.5634                   20568447.8674
 127736214.51346  99534769.12643  24307405.0634                   24307415.9654
 11  7 24  2 24 30.0000000  0  9G17G10G12G05G04G09G25G02G27
 123610881.278 7                  23522358.539
 109781509.74348  85544171.52845  20890717.6484                   20890724.5314
 110818336.416 8                  21088035.547
 113752490.625 8                  21646378.188
 115602942.10147  90080263.50945  21998470.7344                   21998477.8984
 127124451.87346  99058114.22543  24190997.1174                   24191006.4694
 123875399.513 7                  23572711.383
 108094022.74748  84229257.83246  20569601.0864                   20569606.0204
 127802209.11046  99586193.44343  24319962.7814                   24319974.6334
 11  7 24  2 25  0.0000000  0  9G17G10G12G05G04G09G25G02G27
 123671808.753 7                  23533953.039
 109792663.23748  85552862.55545  20892839.8364                   20892846.7074
 110775059.224 8                  21079800.086
 113669422.580 8                  21630570.711
 115682400.06847  90142178.82045  22013591.3984                   22013598.7774
 127208845.11246  99123875.20043  24207055.9614                   24207065.7584
 123782470.654 7                  23555027.227
 108100378.65148  84234210.49246  20570810.8524                   20570815.2074
 127868192.49646  99637609.00043  24332519.5234                   24332530.5434
 11  7 24  2 25 30.0000000  0  9G17G10G12G05G04G09G25G02G27
 123732904.124 7                  23545579.625
 109804450.14648  85562047.17145  20895083.0234                   20895089.6844
 110732284.977 8                  21071660.836
 113586722.783 8                  21614833.227
 115761963.99447  90204176.68145  22028731.0004                   22028739.0824
 127293300.70946  99189684.68643  24223126.9144                   24223137.3094
 123689799.500 7                  23537391.945
 108107005.49248  84239374.27246  20572071.4924                   20572076.0784
 127934161.81646  99689013.56743  24345072.7114                   24345084.3714
 11  7 24  2 26  0.0000000  0  9G17G10G12G05G04G09G25G02G27
 123794167.799 7                  23557236.852
 109816870.04348  85571725.02245  20897446.5234                   20897453.2074
 110690015.438 8                  21063616.711
 113504393.907 7                  21599166.352
 115841632.19547  90266255.81045  22043891.1334                   22043899.2424
 127377815.41945  99255540.25743  24239207.7424                   24239219.9184
 123597388.631 7                  23519806.078
 108113901.73948  84244747.98846  20573384.2274                   20573388.5164
 128000114.20546  99740404.94443  24357624.2034                   24357633.8164
 11  7 24  2 26 30.0000000  0  9G17G10G12G05G04G09G25G02G27
 123855600.104 7                  23568927.461
 109829922.55348  85581895.82445  20899929.8834                   20899937.2774
 110648253.055 7                  21055669.867
 113422438.948 7                  21583570.891
 115921403.01447  90328414.89745  22059071.1414                   22059078.7154
 127462386.29146  99321439.48142  24255303.2894                   24255313.7424
 123505240.988 7                  23502271.289
 108121066.80148  84250331.18346  20574747.5314                   20574752.0744
 128066047.37547  99791781.33143  24370170.8914                   24370179.9304
 11  7 24  2 27  0.0000000  0  9G17G10G12G05G04G09G25G02G27
 123917201.217 6                  23580649.820
 109843607.20348  85592559.18545  20902534.6174                   20902541.3634
 110606999.539 8                  21047819.328
 113340860.485 7                  21568046.305
 116001274.79047  90390652.63445  22074270.6884                   22074277.9844
 127547009.65146  99387379.72943  24271405.8984                   24271416.1724
 123413359.129 7                  23484787.055
 108128499.18048  84256122.66846  20576162.1644                   20576166.6454
 128131958.70546  99843140.71144  24382713.1884                   24382722.8164
 11  7 24  2 27 30.0000000  0  9G17G10G12G05G04G09G25G02G27
 123978971.544 7                  23592404.398
 109857923.58248  85603714.82945  20905258.2734                   20905264.8834
 110566256.188 8                  21040066.164
 113259660.898 7                  21552595.086
 116081245.39147  90452967.40645  22089488.6804                   22089495.7934
 127631682.06945  99453358.12643  24287519.4614                   24287529.6094
 123321745.618 7                  23467353.164
 108136197.71548  84262121.54746  20577626.9454                   20577631.4454
 128197845.35046  99894480.84244  24395251.1174                   24395261.3014
 11  7 24  2 28  0.0000000  0  9G17G10G12G05G04G09G25G02G27
 124040911.650 7                  23604190.914
 109872871.67248  85615362.70145  20908103.0314                   20908110.3524
 110526025.271 8                  21032410.141
 113178842.999 8                  21537215.969
 116161313.31147  90515357.99145  22104724.9454                   22104731.6414
 127716400.53046  99519372.38143  24303641.2274                   24303650.9264
 123230403.225 7                  23449971.281
 108144161.64948  84268327.22146  20579142.5394                   20579146.9224
 128263704.85146  99945799.84843  24407783.1954                   24407793.6134
 11  7 24  2 28 30.0000000  0  9G17G10G12G05G04G09G25G02G27
 124103021.475 7                  23616010.805
 109888450.40448  85627501.99045  20911067.7894                   20911074.3554
 110486308.448 8                  21024852.641
 113098409.626 8                  21521910.438
 116241476.92547  90577823.14745  22119979.7114                   22119987.2504
 127801161.71446  99585419.91143  24319770.7974                   24319780.3524
 123139334.739 7                  23432641.852
 108152389.66948  84274738.68246  20580707.5394                   20580712.6094
 128329534.61746  99997095.71243  24420310.1414                   24420320.8594
 11  7 24  2 29  0.0000000  0  9G17G10G12G05G04G09G25G02G27
 124165301.292 7                  23627861.570
 109904659.55148  85640132.51445  20914152.1174                   20914158.9064
 110447107.174 8                  21017393.375
 113018363.311 8                  21506678.289
 116321734.30847  90640361.38645  22135252.4384                   22135259.6374
 127885962.53946  99651498.42143  24335908.4064                   24335917.4344
 123048542.721 7                  23415363.750
 108160880.41148  84281354.87046  20582323.7664                   20582328.5434
 128395331.86246 100048366.20743  24432830.7344                   24432841.5634
 11  7 24  2 29 30.0000000  0  9G17G10G12G05G04G09G25G02G27
 124227751.493 7                  23639744.820
 109921498.69448  85653253.93645  20917356.5474                   20917363.2424
 110408423.700 8                  21010032.063
 112938706.702 8                  21491519.867
 116402083.90147  90702971.46745  22150542.2194                   22150550.1294
 127970800.00246  99717605.43843  24352052.1804                   24352062.5784
 122958029.884 7                  23398140.711
 108169632.97748  84288175.07346  20583989.4844                   20583993.9774
 128461094.06246 100099609.38943  24445344.3674                   24445355.7194
 11  7 24  2 30  0.0000000  0  9G17G10G12G05G04G09G25G02G27
 124290372.353 7                  23651661.797
 109938966.49248  85666865.22145  20920680.4224                   20920687.2194
 110370258.664 8                  21002769.320
 112859441.814 8                  21476436.258
 116482523.68247  90765651.80445  22165849.0784                   22165857.8164
 128055670.11746  99783737.93443  24368202.3914                   24368212.4774
 122867798.599 7                  23380970.047
 108178645.72447  84295198.00946  20585704.3444                   20585709.2114
 128526818.21146 100150822.91742  24457851.0164                   24457863.3324
 11  7 24  2 30 30.0000000  0  9G17G10G12G05G04G09G25G02G27
 124353164.227 7                  23663610.406
 109957062.80247  85680966.26746  20924124.2664                   20924130.7934
 110332614.413 8                  20995605.500
 112780571.497 8                  21461427.984
 116563052.28547  90828401.39145  22181173.3444                   22181180.8094
 128140570.01246  99849893.60243  24384359.2664                   24384368.8714
 122777851.778 7                  23363853.047
 108187917.91248  84302423.09946  20587468.8204                   20587473.5204
 128592502.06545 100202005.12542  24470350.0314                   24470362.8834
 11  7 24  2 31  0.0000000  0  9G17G10G12G05G04G09G25G02G27
 124416127.545 7                  23675591.961
 109975786.83748  85695556.45146  20927686.9774                   20927694.1484
 110295492.982 8                  20988541.680
 112702098.847 8                  21446494.680
 116643668.09447  90891218.90645  22196514.1724                   22196520.9614
 128225496.58646  99916070.11444  24400519.7734                   24400530.2934
 122688192.298 7                  23346792.250
 108197448.64748  84309849.66746  20589282.5784                   20589286.6094
 128658143.21545 100253153.87342  24482841.5944                   24482855.2814
 11  7 24  2 31 30.0000000  0  9G17G10G12G05G04G09G25G02G27
 124479262.445 6                  23687605.781
 109995138.02148  85710635.31646  20931369.6884                   20931376.2774
 110258895.683 8                  20981577.750
 112624026.097 7                  21431638.117
 116724369.43447  90954103.08445  22211871.4224                   22211878.0514
 128310446.72847  99982264.94844  24416686.0944                   24416695.9024
 122598822.783 7                  23329785.758
 108207236.32748  84317476.45146  20591145.0394                   20591149.7034
                                  24495323.0784                   24495337.5864
 11  7 24  2 32  0.0000000  0  8G17G10G12G05G04G09G25G02
 124542569.439 7                  23699653.398
 110015116.07147  85726202.64146  20935170.8204                   20935178.0704
 110222824.480 8                  20974713.281
 112546355.847 8                  21416857.695
 116805154.67147  91017052.62745  22227243.5474                   22227250.6024
 128395417.17947 100048475.64144  24432855.2814                   24432864.5124
 122509745.971 7                  23312834.516
 108217280.22848  84325302.89046  20593056.3204                   20593061.0044
 11  7 24  2 32 30.0000000  0  8G17G10G12G05G04G09G25G02
 124606048.515 6                  23711732.844
 110035720.18147  85742257.81346  20939091.7814                   20939098.7624
 110187280.879 8                  20967949.570
 112469090.851 8                  21402154.672
 116886022.18947  91080066.28545  22242631.7584                   22242639.5314
 128480404.63247 100114699.53244  24449027.5864                   24449037.5824
 122420964.448 7                  23295939.602
 108227578.98148  84333327.91446  20595015.4844                   20595021.0594
 11  7 24  2 33  0.0000000  0  8G17G10G12G05G04G09G25G02
 124669699.665 6                  23723844.891
 110056948.96448  85758799.74246  20943131.6954                   20943138.6914
 110152265.958 8                  20961286.109
 112392233.010 8                  21387529.078
 116966969.83647  91143142.38345  22258036.5084                   22258043.2854
 128565406.01846 100180934.33343  24465202.5234                   24465212.6524
 122332480.515 7                  23279101.617
 108238131.26348  84341550.48546  20597023.7664                   20597028.7464
 11  7 24  2 33 30.0000000  0  8G17G10G12G05G04G09G25G02
 124733523.466 7                  23735990.117
 110078801.95748  85775828.06946  20947290.0784                   20947296.8524
 110117781.662 8                  20954724.563
 112315785.047 8                  21372981.352
 117047996.30047  91206279.87845  22273454.8054                   22273462.9734
 128650418.01246 100247177.38543  24481380.0784                   24481390.2624
 122244297.005 7                  23262321.539
 108248936.07448  84349969.84246  20599080.1804                   20599084.3674
 11  7 24  2 34  0.0000000  0  8G17G10G12G05G04G09G25G02
 124797520.254 7                  23748168.180
 110101278.07847  85793341.96446  20951566.9844                   20951574.3244
 110083829.662 8                  20948263.594
 112239749.482 8                  21358512.625
 117129099.81647  91269477.37445  22288888.9454                   22288895.6844
 128735437.10146 100313425.99743  24497558.1724                   24497569.2194
 122156416.580 7                  23245598.086
 108259992.08048  84358584.93246  20601183.7114                   20601188.8014
 11  7 24  2 34 30.0000000  0  8G17G10G12G05G04G09G25G02
 124861690.036 6                  23760379.672
 110124376.43848  85811340.69246  20955962.4774                   20955969.5204
 110050410.884 8                  20941904.023
 112164128.837 8                  21344122.219
 117210279.01647  91332733.90545  22304336.7114                   22304344.2624
 128820460.26245 100379677.73443  24513737.1564                   24513748.6094
 122068841.809 7                  23228933.336
 108271298.19947  84367394.91846  20603335.2894                   20603340.3054
 11  7 24  2 35  0.0000000  0  8G17G10G12G05G04G09G25G02
 124926033.108 6                  23772623.320
 110148096.61348  85829823.96946  20960476.4614                   20960483.3444
 110017527.443 8                  20935646.492
 112088925.915 8                  21329811.461
 117291532.20847  91396048.07945  22319798.2894                   22319806.0744
 128905484.76145 100445930.55242  24529916.2344                   24529927.9414
 121981575.623 7                  23212326.500
 108282853.31548  84376398.92346  20605533.9694                   20605538.7624
 11  7 24  2 35 30.0000000  0  8G17G10G12G05G04G09G25G02
 124990550.028 6                  23784900.531
 110172437.69347  85848791.07145  20965107.8754                   20965115.3054
 109985180.744 8                  20929491.203
 112014142.932 8                  21315580.570
 117372858.02547  91459418.86045  22335274.3754                   22335281.8444
 128990507.15445 100512181.75042  24546096.2194                   24546107.0554
 121894620.653 7                  23195779.203
 108294656.49148  84385596.21746  20607780.3524                   20607784.9574
 11  7 24  2 36  0.0000000  0  8G17G10G12G05G04G09G25G02
 125055240.451 6                  23797211.719
 110197398.37047  85868240.96445  20969858.0394                   20969864.9804
 109953372.208 7                  20923437.914
 111939782.241 7                  21301430.359
 117454254.63547  91522844.79344  22350763.8054                   22350770.7854
 129075524.55446 100578428.94443  24562276.4304                   24562284.8014
 121807979.256 7                  23179292.438
 108306706.36447  84394985.73946  20610073.2584                   20610078.1994
 11  7 24  2 36 30.0000000  0  8G17G10G12G05G04G09G25G02
 125120104.914 7                  23809554.828
 110222977.94647  85888173.12045  20974725.7034                   20974732.6254
 109922103.463 8                  20917487.531
 111865846.215 8                  21287360.766
 117535720.35247  91586324.59445  22366266.1334                   22366273.3914
 129160533.53346 100644669.66242  24578450.4614                   24578462.1024
 121721654.187 7                  23162865.023
 108319001.64748  84404566.48246  20612413.0784                   20612417.8094
 11  7 24  2 37  0.0000000  0  8G17G10G12G05G04G09G25G02
 125185143.530 7                  23821930.906
 110249175.34647  85908586.69545  20979710.8054                   20979717.7504
 109891375.696 8                  20911640.875
 111792337.492 8                  21273372.547
 117617253.58747  91649856.99644  22381780.9534                   22381788.6134
 129245531.09146 100710901.45643  24594625.9534                   24594636.3054
 121635648.144 7                  23146498.852
 108331541.17348  84414337.55646  20614798.9224                   20614803.5084
 11  7 24  2 37 30.0000000  0  8G17G10G12G05G04G09G25G02
 125250356.605 7                  23834341.508
 110275989.60247  85929480.92545  20984813.8054                   20984820.3914
 109861190.042 8                  20905896.234
 111719258.595 8                  21259465.938
 117698853.05547  91713440.99445  22397308.2664                   22397315.6804
 129330514.02146 100777121.87043  24610797.9694                   24610807.5394
 121549963.973 7                  23130193.820
 108344324.08748  84424298.28146  20617231.3284                   20617236.0234
 11  7 24  2 38  0.0000000  0  8G17G10G12G05G04G09G25G02
 125315744.357 7                  23846783.938
 110303419.78647  85950855.11946  20990033.1884                   20990039.8984
 109831548.419 8                  20900255.438
 111646611.925 8                  21245641.586
 117780517.29747  91777075.50345  22412849.1804                   22412855.7584
 129415479.31646 100843328.51743  24626966.7814                   24626976.1454
 121464604.113 7                  23113949.328
 108357349.35848  84434447.85346  20619710.1564                   20619714.4534
 11  7 24  2 38 30.0000000  0  8G17G10G12G05G04G09G25G02
 125381306.782 7                  23859259.781
 110331464.30147  85972708.00346  20995370.2894                   20995376.2544
 109802451.844 8                  20894718.680
 111574399.276 8                  21231900.141
 117862244.36647  91840758.90544  22428401.4924                   22428408.2974
 129500423.77946 100909518.96643  24643131.0864                   24643140.1484
 121379571.041 7                  23097768.250
 108370615.20148  84444784.87946  20622234.7034                   20622239.1484
 11  7 24  2 39  0.0000000  0  8G17G10G12G05G04G09G25G02
 125447044.282 7                  23871769.406
 110360122.57347  85995039.15745  21000823.2584                   21000830.0824
 109773902.023 8                  20889285.930
 111502623.359 8                  21218241.203
 117944033.03147  91904490.34445  22443965.3134                   22443972.3714
 129585344.38946 100975690.84743  24659290.0474                   24659300.0634
 121294867.618 7                  23081650.203
 108384120.87148  84455308.78346  20624805.0704                   20624809.1454
 11  7 24  2 39 30.0000000  0  8G17G10G12G05G04G09G25G02
 125512957.157 7                  23884312.211
 110389393.79148  86017847.89645  21006393.7504                   21006400.2194
 109745900.380 8                  20883957.289
 111431286.759 8                  21204666.383
 118025881.76247  91968268.61245  22459540.6174                   22459547.8324
 129670238.09446 101041841.72643  24675445.5084                   24675455.8754
 121210496.616 7                  23065594.703
 108397865.43148  84466018.83546  20627420.0004                   20627424.9024
 11  7 24  2 40  0.0000000  0  8G17G10G12G05G04G09G25G02
 125579045.462 7                  23896888.664
 110419276.53147  86041133.17345  21012079.8754                   21012087.0514
 109718447.915 8                  20878733.336
 111360391.543 8                  21191175.453
 118107789.26347  92032092.62845  22475126.7114                   22475134.7934
 129755101.52846 101107969.06943  24691593.4614                   24691605.5124
 121126460.517 7                  23049603.578
 108411847.48848  84476913.93746  20630081.4384                   20630085.0744
 11  7 24  2 40 30.0000000  0  8G17G10G12G05G04G09G25G02
 125645309.436 7                  23909497.430
 110449769.51948  86064893.94945  21017882.6954                   21017889.4804
 109691546.175 8                  20873613.875
 111289940.463 8                  21177769.125
 118189753.86947  92095961.18145  22490724.2504                   22490731.9844
 129839931.96746 101174070.74843  24707736.9924                   24707747.9304
 121042762.026 7                  23033676.148
 108426066.04848  84487993.36246  20632786.5234                   20632790.8094
 11  7 24  2 41  0.0000000  0  8G17G10G12G05G04G09G25G02
 125711749.039 6                  23922140.406
 110480871.67348  86089129.38646  21023801.3284                   21023808.0904
 109665196.344 8                  20868599.688
 111219935.508 8                  21164447.797
 118271774.10347  92159873.05645  22506332.3984                   22506339.4414
 129924726.40046 101240144.17143  24723873.6804                   24723882.8404
 120959403.706 7                  23017813.125
 108440519.92748  84499256.13846  20635537.2274                   20635541.4184
 11  7 24  2 41 30.0000000  0  8G17G10G12G05G04G09G25G02
 125778364.711 6                  23934817.367
 110512581.72547  86113838.52646  21029835.5474                   21029842.6484
 109639400.209 8                  20863690.883
 111150379.354 8                  21151211.758
 118353848.65047  92223827.24145  22521950.3524                   22521958.6414
 130009481.71346 101306187.27543  24740000.5474                   24740010.7464
 120876388.258 7                  23002015.852
 108455208.12448  84510701.51346  20638332.1484                   20638336.3954
 11  7 24  2 42  0.0000000  0  8G17G10G12G05G04G09G25G02
 125845156.439 6                  23947527.570
 110544898.25647  86139020.23646  21035985.3364                   21035992.0984
 109614158.026 8                  20858887.711
 111081273.700 8                  21138061.531
 118435975.71447  92287822.36345  22537578.9614                   22537585.8164
 130094194.55946 101372197.29843  24756121.9614                   24756131.6254
 120793718.150 7                  22986284.367
 108470128.99748  84522328.17246  20641171.9694                   20641175.8524
 11  7 24  2 42 30.0000000  0  8G17G10G12G05G04G09G25G02
 125912124.449 6                  23960270.234
 110577820.24247  86164673.74446  21042249.7584                   21042257.2194
 109589471.493 8                  20854189.805
 111012621.050 8                  21124996.906
 118518154.10347  92351857.46444  22553216.2504                   22553224.0634
 130178862.21946 101438171.99043  24772233.6804                   24772244.6334
 120711395.975 7                  22970618.992
 108485281.79148  84534135.56446  20644054.8594                   20644059.1804
 11  7 24  2 43  0.0000000  0  8G17G10G12G05G04G09G25G02
 125979268.747 6                  23973048.813
 110611346.20048  86190797.87446  21048629.8674                   21048636.5944
 109565341.368 8                  20849597.617
 110944423.518 8                  21112019.820
 118600382.23547  92415931.31544  22568864.5314                   22568872.4384
 130263481.57046 101504109.13643  24788337.1884                   24788346.1884
 120629424.273 7                  22955020.133
 108500665.03048  84546122.52246  20646982.2584                   20646986.3444
 11  7 24  2 43 30.0000000  0  8G17G10G12G05G04G09G25G02
 126046589.560 6                  23985858.211
 110645474.87848  86217391.64746  21055124.3594                   21055131.7384
 109541769.393 8                  20845112.742
 110876683.487 8                  21099128.406
 118682658.83747  92480042.93944  22584521.3364                   22584528.5124
 130348049.67445 101570006.28343  24804428.7814                   24804439.4964
 120547805.753 7                  22939488.156
 108516277.94548  84558288.44746  20649953.4144                   20649957.1524
 11  7 24  2 44  0.0000000  0  8G17G10G12G05G04G09G25G02
 126114086.989 6                  23998703.422
 110680205.20248  86244454.24346  21061733.3674                   21061740.5164
 109518756.560 8                  20840733.438
 110809403.660 7                  21086325.781
 118764982.64047  92544191.36744  22600186.9224                   22600193.9614
 130432563.52346 101635861.20842  24820512.6024                   24820522.8914
 120466543.189 7                  22924024.523
 108532119.56748  84570632.59146  20652967.9924                   20652972.2384
 11  7 24  2 44 30.0000000  0  8G17G10G12G05G04G09G25G02
 126181761.062 7                  24011580.516
 110715535.38348  86271984.26146  21068455.8914                   21068462.9024
 109496303.783 8                  20836460.586
 110742585.493 7                  21073610.398
 118847351.82447  92608375.15544  22615861.2114                   22615868.5784
 130517019.63446 101701671.14342  24836583.9304                   24836594.0634
 120385638.823 7                  22908628.766
 108548188.16148  84583153.60746  20656025.6484                   20656029.7074
 11  7 24  2 45  0.0000000  0  8G17G10G12G05G04G09G25G02
 126249612.525 7                  24024492.977
 110751464.42147  86299980.91846  21075293.6254                   21075300.4224
 109474412.744 8                  20832295.000
 110676231.564 7                  21060983.188
 118929765.55647  92672593.65944  22631543.3364                   22631551.6914
 130601416.00945 101767434.50742  24852643.2344                   24852653.9774
 120305095.755 7                  22893302.367
 108564483.19448  84595851.07046  20659126.5704                   20659130.3594
 11  7 24  2 45 30.0000000  0  7G17G10G12G05G04G25G02
 126317641.994 7                  24037439.055
 110787991.79648  86328443.81746  21082244.1024                   21082250.8404
 109453085.011 8                  20828236.578
 110610345.095 7                  21048445.742
 119012222.97347  92736846.18144  22647234.7034                   22647242.5434
 120224917.187 7                  22878045.180
 108581004.24348  84608724.63346  20662270.2344                   20662274.7504
 11  7 24  2 46  0.0000000  0  7G17G10G12G05G04G25G02
 126385848.287 7                  24050417.813
 110825115.03148  86357371.03146  21089308.6804                   21089314.9414
 109432321.020 8                  20824285.016
 110544926.943 8                  21035997.523
 119094721.98547  92801131.13544  22662933.8524                   22662941.2304
 120145104.676 7                  22862856.422
 108597749.07248  84621772.58146  20665456.5474                   20665461.0824
 11  7 24  2 46 30.0000000  0  7G17G10G12G05G04G25G02
 126454231.448 7                  24063431.320
 110862831.85148  86386760.77046  21096485.4774                   21096492.5944
 109412120.834 8                  20820440.773
 110479979.070 8                  21023638.164
 119177260.43847  92865446.81244  22678640.6414                   22678647.6644
 120065660.359 7                  22847738.898
 108614716.15648  84634993.69046  20668685.6024                   20668689.4614
 11  7 24  2 47  0.0000000  0  7G17G10G12G05G04G25G02
 126522791.748 7                  24076477.133
 110901141.44348  86416612.41446  21103775.9454                   21103782.5824
 109392486.084 8                  20816704.383
 110415503.841 8                  21011368.984
 119259837.62947  92929792.70444  22694354.7814                   22694361.4024
 119986587.206 7                  22832691.172
 108631904.70448  84648387.38846  20671956.5234                   20671960.1334
 11  7 24  2 47 30.0000000  0  7G17G10G12G05G04G25G02
 126591529.327 7                  24089558.320
 110940042.24348  86446924.74246  21111178.3284                   21111184.7734
 109373417.912 8                  20813076.438
 110351503.468 8                  20999190.250
 119342452.15047  92994167.68644  22710075.6024                   22710082.7854
 119907887.846 7                  22817715.656
 108649314.01848  84661953.10646  20675268.7344                   20675273.5354
 11  7 24  2 48  0.0000000  0  7G17G10G12G05G04G25G02
 126660444.456 6                  24102671.133
 110979532.58247  86477696.45746  21118693.2194                   21118699.4534
 109354916.928 8                  20809555.641
 110287979.759 8                  20987102.219
 119425102.51947  93058570.59344  22725802.8284                   22725810.4884
 119829564.583 7                  22802811.406
 108666942.51148  84675689.61446  20678624.1644                   20678628.3014
 11  7 24  2 48 30.0000000  0  7G17G10G12G05G04G25G02
 126729536.731 6                  24115819.320
 111019610.81548  86508926.25846  21126320.0634                   21126326.9224
 109336984.176 8                  20806143.109
 110224934.785 8                  20975105.086
 119507787.38847  93123000.41444  22741536.9694                   22741544.4964
 119751619.953 7                  22787979.063
 108684788.86448  84689595.88346  20682019.5554                   20682024.1724
 11  7 24  2 49  0.0000000  0  7G17G10G12G05G04G25G02
 126798806.464 6                  24129000.953
 111060275.38048  86540612.96346  21134058.2584                   21134064.6214
 109319620.470 8                  20802838.852
 110162370.733 8                  20963199.438
 119590505.47247  93187456.08344  22757277.9384                   22757285.7114
 119674056.576 7                  22773218.758
 108702852.20948  84703671.23246  20685456.7424                   20685461.1524
 11  7 24  2 49 30.0000000  0  7G17G10G12G05G04G25G02
 126868253.834 6                  24142214.539
 111101524.79847  86572755.38446  21141907.5634                   21141914.2544
 109302826.710 8                  20799643.109
 110100289.650 8                  20951385.484
 119673255.54947  93251936.66844  22773024.3914                   22773033.0164
 119596876.960 7                  22758532.414
 108721131.34248  84717914.72246  20688935.4304                   20688939.8954
 11  7 24  2 50  0.0000000  0  7G17G10G12G05G04G25G02
 126937878.994 6                  24155465.195
 111143357.82648  86605352.56146  21149867.8674                   21149875.0634
 109286604.342 8                  20796556.211
 110038693.859 8                  20939663.984
 119756036.64247  93316441.42244  22788777.1564                   22788785.8794
 119520083.886 7                  22743918.984
 108739625.63348  84732325.87546  20692454.8444                   20692459.4614
 11  7 24  2 50 30.0000000  0  7G17G10G12G05G04G25G02
 127007681.556 6                  24168749.023
 111185772.12247  86638402.66446  21157938.9304                   21157946.1804
 109270953.630 8                  20793577.930
 109977584.936 8                  20928035.117
 119838847.07247  93380969.02144  22804536.9694                   22804544.0904
 119443679.702 7                  22729379.805
 108758333.50548  84746903.44946  20696014.4924                   20696019.0784
 11  7 24  2 51  0.0000000  0  7G17G10G12G05G04G25G02
 127077661.808 6                  24182065.703
 111228766.33447  86671904.66946  21166120.7034                   21166127.7974
 109255875.683 8                  20790708.875
 109916965.028 8                  20916499.602
 119921685.64147  93445518.56444  22820300.1414                   22820307.2274
 119367666.824 7                  22714914.859
 108777254.00948  84761646.70946  20699614.9844                   20699619.9774
 11  7 24  2 51 30.0000000  0  7G17G10G12G05G04G25G02
 127147819.891 7                  24195417.555
 111272339.45247  86705857.74846  21174412.0314                   21174419.3754
 109241371.390 8                  20787948.352
 109856836.223 8                  20905057.742
 120004551.47147  93510089.37844  22836068.3834                   22836075.5664
 119292048.104 7                  22700525.320
 108796386.30848  84776555.01046  20703255.8674                   20703260.7624
 11  7 24  2 52  0.0000000  0  7G17G10G12G05G04G25G02
 127218155.693 6                  24208799.648
 111316488.71048  86740259.77746  21182813.2034                   21182820.8794
 109227441.300 8                  20785297.641
 109797200.511 8                  20893709.477
 120087443.00147  93574680.16744  22851842.7894                   22851849.6174
 119216825.760 7                  22686210.672
 108815729.22748  84791627.42546  20706936.9064                   20706941.5904
 11  7 24  2 52 30.0000000  0  7G17G10G12G05G04G25G02
 127288669.053 6                  24222218.945
 111361212.59848  86775109.57146  21191324.9304                   21191331.2704
 109214086.274 8                  20782756.359
 109738059.436 8                  20882455.031
 120170358.80647  93639289.91044  22867621.2424                   22867627.8554
 119142002.099 7                  22671972.000
 108835280.91148  84806862.51646  20710657.4304                   20710662.0944
 11  7 24  2 53  0.0000000  0  7G17G10G12G05G04G25G02
 127359359.980 6                  24235670.586
 111406509.23447  86810405.66746  21199944.4924                   21199951.2384
 109201306.894 8                  20780324.273
 109679415.017 8                  20871295.633
 120253297.46147  93703917.46945  22883404.5084                   22883410.2664
 119067579.575 7                  22657810.406
 108855040.42047  84822259.55246  20714417.3284                   20714421.7624
 11  7 24  2 53 30.0000000  0  7G17G10G12G05G04G25G02
 127430228.888 6                  24249156.508
 111452377.30447  86846147.00046  21208672.0634                   21208679.4774
 109189103.826 8                  20778002.000
 109621269.387 8                  20860230.703
 120336258.40247  93768562.40344  22899190.1644                   22899197.8134
 118993561.034 7                  22643724.992
 108875007.52747  84837818.35046  20718217.1564                   20718221.9844
 11  7 24  2 54  0.0000000  0  8G17G10G12G05G04G29G25G02
 127501275.450 6                  24262676.828
 111498814.82747  86882332.07646  21217509.3204                   21217515.9384
 109177477.792 8                  20775790.008
 109563623.999 8                  20849260.914
 120419240.12447  93833223.48144  22914981.5634                   22914988.7934
 129542671.42916                  24651159.523
 118919948.546 7                  22629716.805
 108895180.36648  84853537.47346  20722056.0234                   20722060.4304
 11  7 24  2 54 30.0000000  0  8G17G10G12G05G04G29G25G02
 127572499.475 6                  24276229.703
 111545819.72147  86918959.29045  21226454.0554                   21226460.6564
 109166429.605 8                  20773687.711
 109506480.929 8                  20838387.516
 120502241.48447  93897899.89344  22930776.3284                   22930783.6914
 129462487.387 6                  24635899.773
 118846744.705 7                  22615785.992
 108915558.12847  84869416.26846  20725933.8984                   20725938.6374
 11  7 24  2 55  0.0000000  0  8G17G10G12G05G04G29G25G02
 127643901.542 6                  24289816.867
 111593390.39447  86956027.39446  21235506.1644                   21235513.2504
 109155960.004 8                  20771695.273
 109449842.322 8                  20827609.039
 120585261.19647  93962590.61144  22946573.9304                   22946581.6884
 129382235.839 6                  24620628.875
 118773952.004 7                  22601934.586
 108936139.67648  84885453.87046  20729849.8914                   20729854.6884
 11  7 24  2 55 30.0000000  0  8G17G10G12G05G04G29G25G02
 127715481.443 6                  24303437.578
 111641524.92547  86993534.83745  21244665.7194                   21244672.2234
 109146069.261 8                  20769813.281
 109393709.587 8                  20816927.445
 120668298.02546  94027294.61144  22962374.3594                   22962382.9534
 129301917.241 6                  24605344.422
 118701572.900 7                  22588161.016
 108956923.95248  84901649.42946  20733805.1024                   20733809.7584
 11  7 24  2 56  0.0000000  0  8G17G10G12G05G04G29G25G02
 127787238.804 6                  24317093.438
 111690221.26447  87031480.03545  21253932.7584                   21253939.0394
 109136758.028 8                  20768041.281
 109338084.657 8                  20806341.875
 120751350.96746  94092011.18144  22978178.6564                   22978186.7774
 129221532.237 6                  24590047.570
 118629609.729 7                  22574467.031
 108977910.04647  84918002.24446  20737798.6724                   20737803.2074
 11  7 24  2 56 30.0000000  0  8G17G10G12G05G04G29G25G02
 127859173.732 6                  24330781.891
 111739477.55747  87069861.58746  21263305.4694                   21263312.8324
 109128027.142 8                  20766379.789
 109282969.310 8                  20795854.125
 120834418.80946  94156739.37344  22993986.8054                   22993994.2194
 129141081.082 6                  24574738.773
 118558064.911 7                  22560852.750
 108999096.47948  84934511.17446  20741830.0474                   20741834.8484
 11  7 24  2 57  0.0000000  0  8G17G10G12G05G04G29G25G02
 127931286.158 6                  24344504.820
 111789291.75447  87108677.85645  21272785.1884                   21272791.4184
 109119876.707 8                  20764828.656
 109228365.415 8                  20785463.320
 120917500.38847  94221478.22344  23009797.1804                   23009804.8444
 129060564.518 7                  24559416.914
 118486940.800 7                  22547318.031
 109020482.73348  84951175.79646  20745899.7894                   20745903.8674
 11  7 24  2 57 30.0000000  0  8G17G10G12G05G04G29G25G02
 128003576.242 6                  24358260.961
 111839662.30147  87147927.67145  21282370.1094                   21282376.7774
 109112307.453 8                  20763388.563
 109174274.654 8                  20775170.008
 121000594.70747  94286227.04544  23025609.2424                   23025617.1054
 128979983.118 6                  24544082.125
 118416239.941 7                  22533863.906
 109042067.60348  84967995.18746  20750007.1644                   20750011.5904
 11  7 24  2 58  0.0000000  0  8G17G10G12G05G04G29G25G02
 128076043.842 5                  24372050.805
 111890587.23147  87187609.45545  21292061.4224                   21292068.1804
 109105319.876 8                  20762058.922
 109120698.636 8                  20764974.961
 121083700.46247  94350984.75744  23041424.5084                   23041431.4694
 128899337.486 6                  24528736.273
 118345964.610 7                  22520490.758
 109063849.78847  84984968.33446  20754152.3054                   20754156.6954
 11  7 24  2 58 30.0000000  0  8G17G10G12G05G04G29G25G02
 128148688.72316                  24385875.195
 111942064.43348  87227721.58145  21301857.3834                   21301863.4414
 109098914.462 8                  20760839.875
 109067638.977 8                  20754878.328
 121166816.50647  94415750.48644  23057240.5554                   23057247.4574
 128818628.010 7                  24513377.344
 118276117.160 7                  22507199.094
 109085828.11548  85002094.30446  20758334.9144                   20758338.7704
 11  7 24  2 59  0.0000000  0  8G17G10G12G05G04G29G25G02
 128221510.629 6                  24399733.094
 111994091.55748  87268262.19145  21311757.2584                   21311764.4224
 109093091.285 8                  20759731.703
 109015097.302 8                  20744879.891
 121249941.81347  94480523.45145  23073059.0704                   23073065.6334
 128737855.228 7                  24498006.750
 118206699.755 7                  22493989.320
 109108001.12248  85019371.99246  20762553.8524                   20762558.2664
 11  7 24  2 59 30.0000000  0  8G17G10G12G05G04G29G25G02
 128294509.463 6                  24413623.992
 112046666.34747  87309229.58545  21321761.5554                   21321768.7584
 109087851.023 8                  20758734.547
 108963075.651 8                  20734980.445
 121333075.05247  94545302.61044  23088878.6254                   23088885.2384
 128657020.155 7                  24482624.383
 118137714.827 7                  22480861.828
 109130368.64447  85036801.23946  20766810.9534                   20766814.6564
 11  7 24  3  0  0.0000000  0  8G17G10G12G05G04G29G25G02
 128367685.713 6                  24427548.633
 112099787.20147  87350622.45945  21331869.9774                   21331877.6024
 109083194.174 7                  20757848.109
 108911575.478 8                  20725180.141
 121416215.54447  94610087.39644  23104699.3364                   23104706.5514
 128576122.476 7                  24467229.383
 118069164.937 7                  22467817.688
 109152929.51247  85054381.14546  20771103.6024                   20771107.9804
 11  7 24  3  0 30.0000000  0  8G17G10G12G05G04G29G25G02
 128441038.987 6                  24441507.586
 112153452.24347  87392439.37045  21342082.3594                   21342089.9654
 109079120.959 7                  20757073.047
 108860598.291 8                  20715479.148
 121499362.15547  94674876.98544  23120521.4064                   23120528.8164
 128495163.629 6                  24451823.477
 118001052.396 7                  22454855.906
 109175682.66347  85072110.88546  20775433.5944                   20775437.8594
 11  7 24  3  1  0.0000000  0  8G17G10G12G05G04G29G25G02
 128514569.088 6                  24455500.141
 112207659.36447  87434678.70345  21352397.5784                   21352405.2384
 109075632.224 7                  20756409.297
 108810145.809 8                  20705878.945
 121582513.76047  94739670.44844  23136344.4064                   23136351.6334
 128414144.070 6                  24436406.414
 117933379.633 7                  22441978.180
 109198626.89748  85089989.51246  20779799.3754                   20779804.1724
 11  7 24  3  1 30.0000000  0  8G17G10G12G05G04G29G25G02
 128588276.159 6                  24469526.328
 112262406.66147  87477338.92545  21362816.3054                   21362822.5784
 109072727.922 7                  20755857.055
 108760219.728 8                  20696377.813
 121665669.46547  94804467.07444  23152169.1254                   23152175.6524
 128333064.124 6                  24420975.734
 117866148.938 7                  22429184.422
 109221761.43548  85108016.41446  20784201.8054                   20784206.3594
 11  7 24  3  2  0.0000000  0  8G17G10G12G05G04G29G25G02
 128662159.769 6                  24483585.367
 112317691.24747  87520417.85745  21373336.2584                   21373342.6804
 109070408.102 8                  20755414.844
 108710821.103 8                  20686977.664
 121748827.82347  94869265.78843  23167993.1174                   23168000.3204
 128251924.644 6                  24405537.000
 117799362.094 8                  22416475.891
 109245084.52348  85126190.25046  20788639.6094                   20788644.6414
 11  7 24  3  2 30.0000000  0  8G17G10G12G05G04G29G25G02
 128736219.742 6                  24497678.125
 112373511.31047  87563914.01945  21383958.5704                   21383964.5904
 109068673.080 8                  20755085.195
 108661951.798 8                  20677678.367
 121831988.02847  94934065.99144  23183818.2424                   23183824.5004
 128170726.022 6                  24390085.156
 117733021.644 7                  22403850.984
 109268595.56848  85144510.54446  20793114.0864                   20793118.1644
 11  7 24  3  3  0.0000000  0  8G17G10G12G05G04G29G25G02
 128810455.826 6                  24511805.680
 112429864.08247  87607825.30745  21394681.5864                   21394687.8014
 109067522.619 8                  20754865.773
 108613613.203 8                  20668479.516
 121915148.88347  94998866.67543  23199642.7814                   23199649.2894
 128089468.900 6                  24374621.922
 117667129.677 7                  22391312.773
 109292293.18748  85162976.20446  20797623.5634                   20797628.1334
 11  7 24  3  3 30.0000000  0  7G10G12G05G04G29G25G02
 112486748.57847  87652150.90145  21405506.2344                   21405513.5204
 109066957.749 8                  20754758.703
 108565807.352 8                  20659382.359
 121998309.75446  95063667.39644  23215467.1334                   23215475.3204
 128008154.646 6                  24359148.711
 117601689.055 7                  22378859.289
 109316177.44148  85181587.33246  20802168.6254                   20802173.1024
 11  7 24  3  4  0.0000000  0  7G10G12G05G04G29G25G02
 112544161.98047  87696888.64545  21416431.9064                   21416439.1564
 109066978.551 8                  20754762.688
 108518535.281 8                  20650386.836
 122081469.72547  95128467.33744  23231293.4614                   23231299.9344
 127926783.297 6                  24343663.531
 117536701.894 7                  22366493.000
 109340246.74048  85200342.64946  20806748.7424                   20806753.4924
 11  7 24  3  4 30.0000000  0  7G10G12G05G04G29G25G02
 112602102.10947  87742036.79045  21427457.4384                   21427464.0944
 109067584.993 8                  20754878.008
 108471798.111 8                  20641493.047
 122164627.25647  95193265.40544  23247118.0944                   23247124.6524
 127845355.550 6                  24328168.359
 117472169.967 7                  22354212.734
 109364499.57948  85219240.98846  20811364.0394                   20811368.3134
 11  7 24  3  5  0.0000000  0  7G10G12G05G04G29G25G02
 112660566.73147  87787593.65145  21438583.1254                   21438590.3244
 109068777.723 8                  20755105.016
 108425597.856 8                  20632701.656
 122247781.84047  95258061.20744  23262941.2034                   23262948.2664
 127763872.238 7                  24312662.766
 117408095.928 7                  22342020.563
 109388935.59448  85238282.03646  20816014.2504                   20816018.6334
 11  7 24  3  5 30.0000000  0  7G10G12G05G04G29G25G02
 112719552.93247  87833556.90645  21449807.7114                   21449814.4614
 109070554.946 8                  20755443.125
 108379934.907 8                  20624011.750
 122330931.64647  95322853.25344  23278763.7584                   23278771.8284
 127682333.108 7                  24297146.250
 117344480.973 7                  22329914.578
 109413552.62748  85257464.17046  20820698.6484                   20820703.0084
 11  7 24  3  6  0.0000000  0  7G10G12G05G04G29G25G02
 112779059.26547  87879925.49545  21461131.3444                   21461138.3284
 109072918.035 8                  20755892.992
 108334811.217 8                  20615425.164
 122414076.30547  95387641.27344  23294586.7584                   23294593.6954
 127600739.789 7                  24281619.023
 117281328.128 7                  22317896.430
 109438350.61248  85276787.26746  20825417.5944                   20825421.9104
 11  7 24  3  6 30.0000000  0  7G10G12G05G04G29G25G02
 112839082.94147  87926697.19645  21472553.6804                   21472560.5204
 109075866.940 8                  20756454.219
 108290228.184 8                  20606941.492
 122497214.47647  95452424.28144  23310406.9774                   23310414.5434
 127519092.763 7                  24266082.961
 117218639.174 7                  22305967.531
 109463328.06448  85296250.21846  20830171.0234                   20830175.0594
 11  7 24  3  7  0.0000000  0  7G10G12G05G04G29G25G02
 112899622.20147  87973870.65445  21484073.5004                   21484080.1684
 109079401.934 8                  20757126.547
 108246187.156 8                  20598560.578
 122580345.54147  95517201.76445  23326226.0234                   23326233.4924
 127437392.712 6                  24250535.484
 117156416.635 7                  22294126.781
 109488484.35748  85315852.53246  20834957.7424                   20834962.1644
 11  7 24  3  7 30.0000000  0  7G10G12G05G04G29G25G02
 112960674.39547  88021443.81345  21495691.4304                   21495698.3204
 109083522.602 8                  20757910.594
 108202689.192 8                  20590283.141
 122663468.85647  95581973.18244  23342043.6724                   23342051.6804
 127355640.453 6                  24234978.445
 117094662.492 7                  22282375.242
 109513818.59048  85335593.51046  20839778.4774                   20839782.8984
 11  7 24  3  8  0.0000000  0  7G10G12G05G04G29G25G02
 113022237.52647  88069415.09545  21507406.4844                   21507413.3094
 109088229.296 8                  20758806.031
 108159735.807 8                  20582109.641
 122746583.15447  95646737.57744  23357860.0394                   23357867.6884
 127273836.900 6                  24219411.938
 117033379.178 7                  22270714.219
 109539329.77548  85355472.35546  20844633.1884                   20844637.6294
 11  7 24  3  8 30.0000000  0  7G10G12G05G04G29G25G02
 113084308.83547  88117782.35945  21519217.9454                   21519224.9534
 109093522.018 8                  20759813.461
 108117328.405 8                  20574039.570
 122829687.47847  95711494.21444  23373674.1564                   23373681.4384
 127191982.488 6                  24203835.367
 116972568.423 7                  22259141.531
 109565016.78148  85375488.21346  20849521.2114                   20849525.5984
 11  7 24  3  9  0.0000000  0  7G10G12G05G04G29G25G02
 113146885.81547  88166543.64945  21531126.2894                   21531133.2504
 109099399.909 8                  20760931.688
 108075467.913 8                  20566073.648
 122912780.67547  95776242.17544  23389486.5394                   23389493.4494
 127110077.892 6                  24188249.234
 116912232.220 7                  22247660.102
 109590878.26648  85395640.02346  20854442.3834                   20854446.8984
 11  7 24  3  9 30.0000000  0  7G10G12G05G04G29G25G02
 113209966.38748  88215697.36045  21543130.2584                   21543137.0474
 109105863.187 8                  20762161.961
 108034155.435 8                  20558212.188
 122995861.94547  95840980.85144  23405296.1724                   23405303.1684
 127028123.895 6                  24172653.164
 116852372.637 7                  22236269.297
 109616913.23848  85415927.01946  20859396.6254                   20859400.9734
 11  7 24  3 10  0.0000000  0  7G10G12G05G04G29G25G02
 113273548.34547  88265241.72045  21555229.5704                   21555236.5124
 109112912.197 8                  20763503.164
 107993392.683 8                  20550455.484
 123078931.13447  95905710.11943  23421103.5004                   23421109.6054
 126946121.748 6                  24157049.445
 116792992.362 7                  22224969.234
 109643121.73148  85436349.22546  20864384.0394                   20864388.5234
 11  7 24  3 10 30.0000000  0  7G10G12G05G04G29G25G02
 113337629.22347  88315174.89745  21567423.4694                   21567429.9884
 109120546.139 8                  20764955.633
 107953180.477 8                  20542803.328
 123161986.73546  95970428.77543  23436908.1884                   23436913.6484
 126864071.829 6                  24141434.891
 116734093.006 7                  22213761.180
 109669502.06748  85456905.33746  20869403.9224                   20869408.0634
 11  7 24  3 11  0.0000000  0  7G10G12G05G04G29G25G02
 113402206.63747  88365494.97445  21579712.1484                   21579719.5594
 109128765.829 8                  20766520.219
 107913520.212 8                  20535255.734
 123245028.10846  96035136.38943  23452710.1174                   23452716.2774
 126781975.462 6                  24125812.445
 116675676.938 7                  22202645.266
 109696053.75748  85477594.97646  20874456.4924                   20874460.9304
 11  7 24  3 11 30.0000000  0  7G10G12G05G04G29G25G02
 113467277.90947  88416199.84445  21592094.6484                   21592101.1844
 109137570.178 8                  20768195.531
 107874412.939 8                  20527813.844
 123328054.31446  96099832.16043  23468510.4454                   23468516.3634
 126699832.987 6                  24110181.773
 116617746.132 7                  22191621.445
 109722775.56248  85498417.17746  20879541.7504                   20879546.0004
 11  7 24  3 12  0.0000000  0  7G10G12G05G04G29G25G02
 113532840.71147  88467287.76945  21604570.8364                   21604578.4804
 109146959.317 8                  20769981.953
 107835859.798 8                  20520477.727
 123411064.72946  96164515.56943  23484307.3524                   23484313.1484
 126617644.935 7                  24094542.086
 116560302.518 7                  22180689.852
 109749666.66348  85519371.30246  20884658.7814                   20884662.5434
 11  7 24  3 12 30.0000000  0  7G10G12G05G04G29G25G02
 113598891.92947  88518756.23845  21617139.8984                   21617146.6454
 109156932.380 8                  20771880.148
 107797861.204 8                  20513246.938
 123494057.95747  96229185.65943  23500100.3524                   23500106.4454
 126535412.182 6                  24078893.313
 116503347.598 7                  22169851.641
 109776725.39848  85540456.05046  20889807.2344                   20889811.6564
 11  7 24  3 13  0.0000000  0  7G10G12G05G04G29G25G02
 113665429.89347  88570604.02645  21629801.8364                   21629808.5944
 109167489.911 8                  20773889.031
 107760418.959 8                  20506121.617
 123577033.64147  96293842.05543  23515889.6024                   23515896.2974
 126453136.270 7                  24063236.516
 116446883.971 7                  22159106.992
 109803951.92148  85561671.53546  20894988.7734                   20894992.4384
 11  7 24  3 13 30.0000000  0  7G10G12G05G04G29G25G02
 113732451.35147  88622828.55445  21642556.0944                   21642562.3984
 109178630.530 8                  20776008.883
 107723533.332 8                  20499102.711
 123659990.34047  96358483.69543  23531675.1414                   23531682.3754
 126370817.230 7                  24047571.602
 116390912.900 7                  22148456.484
 109831344.06248  85583016.07446  20900201.4224                   20900205.4574
 11  7 24  3 14  0.0000000  0  7G10G12G05G04G29G25G02
 113799954.47447  88675428.39745  21655401.5944                   21655407.7304
 109190354.333 8                  20778239.641
 107687205.826 8                  20492189.523
 123742927.32647  96423109.91343  23547457.1254                   23547465.1844
 126288455.915 6                  24031898.680
 116335436.623 7                  22137898.844
 109858901.15548  85604489.14846  20905445.3364                   20905449.3324
 11  7 24  3 14 30.0000000  0  7G10G12G05G04G29G25G02
 113867936.34247  88728401.30245  21668337.9064                   21668344.3794
 109202661.175 8                  20780581.773
 107651437.122 8                  20485383.039
 123825844.13746  96487720.43144  23563235.5084                   23563243.8984
 126206053.341 7                  24016218.211
 116280457.155 7                  22127437.406
 109886622.49148  85626090.19946  20910720.6954                   20910724.3594
 11  7 24  3 15  0.0000000  0  7G10G12G05G04G29G25G02
 113936395.08747  88781745.80645  21681365.0944                   21681371.8404
 109215550.640 8                  20783034.602
 107616228.734 8                  20478682.594
 123908740.13747  96552314.74944  23579010.5634                   23579018.2234
 126123610.774 7                  24000529.188
 116225976.721 7                  22117069.734
 109914507.65048  85647818.91746  20916026.7344                   20916030.9454
 11  7 24  3 15 30.0000000  0  7G10G12G05G04G29G25G02
 114005328.13247  88835459.90045  21694482.1884                   21694489.8524
 109229022.784 8                  20785598.461
 107581581.501 8                  20472090.078
 123991614.84547  96616892.46743  23594781.0164                   23594788.2384
 126041129.171 7                  23984833.250
 116171997.508 7                  22106797.836
 109942555.97848  85669674.76746  20921364.4534                   20921368.7114
 11  7 24  3 16  0.0000000  0  7G10G12G05G04G29G25G02
 114074731.98347  88889540.82645  21707689.2814                   21707696.6094
 109243076.188 8                  20788272.672
 107547495.607 8                  20465603.344
 124074466.73646  96681452.39544  23610548.0234                   23610554.6024
 125958608.778 6                  23969130.945
 116118520.408 7                  22096620.953
 109970765.36848  85691656.12846  20926732.6334                   20926736.7584
 11  7 24  3 16 30.0000000  0  7G10G12G05G04G29G25G02
 114144604.98747  88943987.31845  21720986.2194                   21720992.6564
 109257711.107 8                  20791057.625
 107513972.945 8                  20459224.359
 124157295.49246  96745994.35943  23626308.6174                   23626316.5234
 125876051.019 6                  23953420.336
 116065548.166 7                  22086541.492
 109999136.10348  85713763.20946  20932131.4064                   20932135.8244
 11  7 24  3 17  0.0000000  0  7G10G12G05G04G29G25G02
 114214944.03247  88998796.98945  21734370.8674                   21734377.9804
 109272926.822 8                  20793953.031
 107481013.593 8                  20452952.438
 124240100.06646  96810517.41943  23642066.2114                   23642072.9064
 125793456.216 6                  23937702.891
 116013081.848 7                  22076557.320
 110027666.29048  85735994.54246  20937560.8444                   20937565.3714
 11  7 24  3 17 30.0000000  0  7G10G12G05G04G29G25G02
 114285746.81647  89053967.98645  21747844.1884                   21747850.3364
 109288722.810 8                  20796959.031
 107448618.815 8                  20446787.859
 124322880.25046  96875021.45443  23657818.3054                   23657826.5164
 125710826.181 6                  23921977.539
 115961124.033 7                  22066670.133
 110056356.06948  85758350.23446  20943019.7664                   20943024.7234
 11  7 24  3 18  0.0000000  0  7G10G12G05G04G29G25G02
 114357010.47748  89109498.13545  21761405.8524                   21761411.5744
 109305098.095 8                  20800074.953
 107416789.053 8                  20440730.938
 124405634.71646  96939505.50243  23673565.3754                   23673573.4064
 125628161.192 6                  23906248.188
 115909676.040 8                  22056879.852
 110085203.59748  85780828.83246  20948509.0004                   20948513.8524
 11  7 24  3 18 30.0000000  0  7G10G12G05G04G29G25G02
 114428732.89748  89165385.75645  21775053.5704                   21775060.3794
 109322052.706 8                  20803301.398
 107385525.720 8                  20434781.773
 124488363.12046  97003969.20143  23689309.5474                   23689316.7424
 125545462.317 6                  23890511.188
 115858739.962 8                  22047187.641
 110114208.69548  85803430.22646  20954028.7194                   20954033.2934
 11  7 24  3 19  0.0000000  0  7G10G12G05G04G29G25G02
 114500910.94548  89221628.40345  21788788.2664                   21788795.8404
 109339585.320 8                  20806637.703
 107354828.827 8                  20428940.039
 124571064.31246  97068411.74643  23705045.8834                   23705053.9534
 125462730.281 7                  23874767.617
 115808317.201 7                  22037591.461
 110143369.73748  85826153.11446  20959577.7274                   20959582.1804
 11  7 24  3 19 30.0000000  0  7G10G12G05G04G29G25G02
 114573541.87347  89278223.89945  21802609.5394                   21802617.1844
 109357695.842 8                  20810084.055
 107324699.382 8                  20423206.844
 124653737.77747  97132832.67743  23720778.8914                   23720786.4654
 125379965.984 7                  23859017.820
 115758409.561 7                  22028094.734
 110172686.23148  85848997.16246  20965156.1174                   20965161.2584
 11  7 24  3 20  0.0000000  0  7G10G12G05G04G29G25G02
 114646622.87548  89335170.15745  21816516.2974                   21816523.1604
 109376383.314 8                  20813640.195
 107295137.947 8                  20417581.375
 124736382.77747  97197231.40644  23736505.5004                   23736513.5124
 125297170.793 7                  23843262.703
 115709018.773 8                  22018695.594
 110202157.36148  85871961.67246  20970765.1174                   20970768.6604
 11  7 24  3 20 30.0000000  0  7G10G12G05G04G29G25G02
 114720151.83747  89392465.42745  21830508.6094                   21830515.6914
 109395647.718 8                  20817306.070
 107266144.929 8                  20412064.008
 124818998.61846  97261607.43043  23752227.2974                   23752234.8484
 125214345.456 7                  23827501.859
 115660146.632 8                  22009395.758
 110231782.17848  85895045.96746  20976401.8054                   20976406.2734
 11  7 24  3 21  0.0000000  0  7G10G12G05G04G29G25G02
 114794126.35148  89450107.87145  21844586.7114                   21844592.5204
 109415487.547 8                  20821081.359
 107237721.726 8                  20406655.672
 124901584.82347  97325960.34643  23767942.8524                   23767949.8484
 125131491.091 7                  23811734.695
 115611795.052 8                  22000194.539
 110261560.10848  85918249.54646  20982068.5004                   20982072.8444
 11  7 24  3 21 30.0000000  0  7G10G12G05G04G29G25G02
 114868543.50148  89508095.25945  21858747.2344                   21858753.4344
 109435902.152 8                  20824966.070
 107209868.904 8                  20401355.258
 124984140.57847  97390289.55443  23783652.4064                   23783659.0784
 125048608.808 7                  23795963.203
 115563965.551 8                  21991092.789
 110291490.20648  85941571.70846  20987763.8594                   20987768.2304
 11  7 24  3 22  0.0000000  0  7G10G12G05G04G29G25G02
 114943400.18647  89566425.15745  21872991.1564                   21872998.1684
 109456890.983 8                  20828960.047
 107182586.552 8                  20396163.758
 125066664.77047  97454594.12043  23799356.3754                   23799362.8834
 124965699.233 7                  23780186.523
 115516659.382 8                  21982090.539
 110321571.11648  85965011.38946  20993488.0554                   20993492.1024
 11  7 24  3 22 30.0000000  0  7G10G12G05G04G29G25G02
 115018694.10947  89625095.75745  21887319.1954                   21887325.7274
 109478453.212 8                  20833063.406
 107155875.336 8                  20391080.422
 125149157.28247  97518874.03043  23815054.6334                   23815060.8984
 124882763.514 7                  23764403.484
 115469878.640 8                  21973188.586
 110351802.39448  85988568.23246  20999241.4064                   20999245.3324
 11  7 24  3 23  0.0000000  0  7G10G12G05G04G29G25G02
 115094422.56147  89684104.92845  21901730.0004                   21901736.8284
 109500588.044 8                  20837275.313
 107129736.007 8                  20386106.195
 125231617.37647  97583128.69743  23830746.5554                   23830752.3014
 124799802.710 7                  23748616.461
 115423624.856 8                  21964386.914
 110382183.23248  86012241.60546  21005022.8524                   21005027.1804
 11  7 24  3 23 30.0000000  0  7G10G12G05G04G29G25G02
 115170582.91647  89743450.69644  21916223.0394                   21916229.0234
 109523294.837 8                  20841596.461
 107104169.304 8                  20381241.086
 125314044.45047  97647357.62343  23846431.3524                   23846437.6054
 124716817.961 6                  23732824.852
 115377899.712 8                  21955685.578
 110412712.94148  86036030.99246  21010832.4304                   21010837.1334
 11  7 24  3 24  0.0000000  0  7G10G12G05G04G29G25G02
 115247172.37747  89803130.77445  21930797.3834                   21930804.1454
 109546572.743 8                  20846026.516
 107079175.837 8                  20376485.242
 125396438.05246  97711560.38443  23862110.2194                   23862116.6564
 124633810.394 6                  23717028.539
 115332705.124 8                  21947085.906
 110443390.98048  86059935.96146  21016670.1644                   21016674.4304
 11  7 24  3 24 30.0000000  0  7G10G12G05G04G29G25G02
 115324188.64447  89863143.44845  21945453.2584                   21945459.3834
 109570420.981 8                  20850564.250
 107054756.039 8                  20371837.984
 125478797.63046  97775736.65343  23877782.4224                   23877789.3444
 124550781.368 7                  23701229.375
 115288042.759 8                  21938586.492
 110474216.62148  86083955.94746  21022535.7974                   21022540.0474
 11  7 24  3 25  0.0000000  0  7G10G12G05G04G29G25G02
 115401627.40847  89923485.33445  21960189.6024                   21960196.1884
 109594837.691 8                  20855210.672
 107030909.364 8                  20367300.242
 125561121.98846  97839885.47343  23893448.2424                   23893454.9344
 124467730.888 7                  23685424.875
 115243913.051 8                  21930188.805
 110505187.86848  86108089.38646  21028429.1644                   21028433.5514
 11  7 24  3 25 30.0000000  0  7G10G12G05G04G29G25G02
 115479487.31847  89984155.41045  21975005.7344                   21975012.8054
 109619822.612 8                  20859965.188
 107007636.981 8                  20362871.773
 125643410.70346  97904006.57843  23909107.3524                   23909113.8794
 124384660.525 7                  23669616.711
 115200318.102 8                  21921893.227
 110536304.44748  86132336.07146  21034350.8754                   21034355.5944
 11  7 24  3 26  0.0000000  0  7G10G12G05G04G29G25G02
 115557765.76947  90045151.59245  21989900.7584                   21989908.5744
 109645375.005 8                  20864827.859
 106984939.744 8                  20358552.023
 125725663.48847  97968099.65544  23924758.6174                   23924766.4184
 124301571.952 7                  23653806.586
 115157259.765 8                  21913699.219
 110567566.21348  86156695.89046  21040299.6564                   21040303.2154
 11  7 24  3 26 30.0000000  0  7G10G12G05G04G29G25G02
 115636459.27647  90106471.19945  22004876.5704                   22004883.7234
 109671493.186 8                  20869797.820
 106962817.080 8                  20354342.664
 125807879.49947  98032164.04744  23940404.9924                   23940411.7424
 124218465.511 7                  23637990.477
 115114738.970 8                  21905607.719
 110598971.50648  86181167.55746  21046275.5944                   21046280.0824
 11  7 24  3 27  0.0000000  0  7G10G12G05G04G29G25G02
 115715565.34547  90168112.29845  22019929.7894                   22019936.5084
 109698176.814 8                  20874875.578
 106941270.189 8                  20350242.289
 125890058.26147  98096199.44344  23956042.6484                   23956050.4184
 124135342.403 6                  23622171.703
 115072757.612 8                  21897619.117
 110630520.12548  86205750.89546  21052279.2814                   21052283.4884
 11  7 24  3 27 30.0000000  0  7G10G12G05G04G29G25G02
 115795080.91947  90230072.51645  22035061.4774                   22035067.4774
 109725424.923 8                  20880060.664
 106920298.971 8                  20346251.398
 125972199.19347  98160205.35944  23971673.4694                   23971680.5784
 124052203.867 7                  23606351.766
 115031316.908 8                  21889733.055
 110662211.15748  86230445.20446  21058310.1804                   21058314.4224
 11  7 24  3 28  0.0000000  0  7G10G12G05G04G29G25G02
 115875003.65647  90292349.97745  22050269.8834                   22050276.4774
 109753236.045 8                  20885353.180
 106899904.238 8                  20342370.758
 126054302.03347  98224181.58344  23987296.9304                   23987304.0744
 123969051.442 7                  23590529.438
 114990418.552 8                  21881950.328
 110694044.31248  86255250.27246  21064367.8364                   21064371.7774
 11  7 24  3 28 30.0000000  0  7G10G12G05G04G29G25G02
 115955331.18148  90354942.87245  22065555.9844                   22065562.4224
 109781609.212 8                  20890752.641
 106880085.767 8                  20338599.086
 126136366.06547  98288127.55344  24002914.4454                   24002919.8054
 123885886.170 7                  23574703.453
 114950064.002 8                  21874271.719
 110726018.57748  86280165.28946  21070452.5474                   21070456.5434
 11  7 24  3 29  0.0000000  0  7G10G12G05G04G29G25G02
 116036060.20747  90417848.60145  22080918.2584                   22080924.4104
 109810543.426 7                  20896258.438
 106860843.847 8                  20334937.336
 126218390.72147  98352042.88444  24018522.3364                   24018529.8524
 123802708.841 7                  23558875.805
 114910254.453 8                  21866695.602
 110758133.10347  86305189.59946  21076563.4614                   21076567.9344
 11  7 24  3 29 30.0000000  0  7G10G12G05G04G29G25G02
 116117187.27547  90481064.51345  22096355.2504                   22096362.7814
 109840037.249 8                  20901870.453
 106842178.875 8                  20331385.656
 126300375.11547  98415926.79544  24034123.6414                   24034130.6524
 123719520.495 7                  23543044.906
 114870990.875 8                  21859223.641
 110790386.70448  86330322.27246  21082700.9924                   21082704.9654
 11  7 24  3 30  0.0000000  0  7G10G12G05G04G29G25G02
 116198709.96447  90544588.71945  22111867.6564                   22111876.0234
 109870089.312 8                  20907589.578
 106824090.769 8                  20327943.742
 126382318.90447  98479779.08544  24049717.6564                   24049724.2584
 123636322.168 7                  23527211.914
 114832274.631 8                  21851857.078
 110822778.56448  86355562.68046  21088864.9144                   21088869.1094
 11  7 24  3 30 30.0000000  0  7G10G12G05G04G29G25G02
 116280625.72547  90608419.17845  22127456.4924                   22127463.4304
 109900699.072 8                  20913414.383
 106806579.605 8                  20324611.492
 126464221.69447  98543599.46244  24065302.4224                   24065309.2424
 123553115.395 7                  23511378.188
 114794107.399 8                  21844593.625
 110855308.61547  86380910.79046  21095054.8834                   21095059.1374
 11  7 24  3 31  0.0000000  0  7G10G12G05G04G29G25G02
 116362931.60747  90672553.63845  22143118.6644                   22143125.7774
 109931864.939 8                  20919344.695
 106789645.665 8                  20321389.141
 126546082.92647  98607387.43743  24080880.4064                   24080887.7154
 123469901.402 7                  23495543.258
 114756490.363 8                  21837435.211
 110887975.70848  86406365.67546  21101271.3594                   21101275.6214
 11  7 24  3 31 30.0000000  0  7G10G12G05G04G29G25G02
 116445625.24347  90736990.24045  22158855.7114                   22158861.7704
 109963585.590 8                  20925380.852
 106773289.665 8                  20318276.742
 126627902.16246  98671142.65944  24096450.1564                   24096457.0594
 123386681.234 7                  23479706.930
 114719424.786 8                  21830381.875
 110920779.18248  86431926.83146  21107513.0164                   21107518.2774
 11  7 24  3 32  0.0000000  0  7G10G12G05G04G29G25G02
 116528703.05647  90801726.21345  22174664.7974                   22174670.6914
 109995859.944 8                  20931523.008
 106757511.009 8                  20315274.117
 126709678.49846  98734864.49043  24112010.6954                   24112019.3834
 123303455.804 7                  23463869.641
 114682911.673 8                  21823433.750
 110953718.04048  86457593.47346  21113781.7424                   21113786.4614
 11  7 24  3 32 30.0000000  0  7G10G12G05G04G29G25G02
 116612162.68747  90866759.72045  22190545.8284                   22190552.9774
 110028686.786 8                  20937769.477
 106742310.070 8                  20312381.703
 126791412.15046  98798553.02043  24127564.4144                   24127572.2934
 123220226.943 7                  23448032.469
 114646952.649 8                  21816590.547
 110986792.34048  86483365.65946  21120075.4614                   21120080.0314
 11  7 24  3 33  0.0000000  0  7G10G12G05G04G29G25G02
 116696001.64847  90932088.79544  22206500.5944                   22206507.1914
 110062065.093 8                  20944121.000
 106727687.121 8                  20309598.578
 126873102.71446  98862207.98343  24143109.9224                   24143117.2734
 123136995.988 6                  23432193.211
 114611549.221 8                  21809853.867
 111020001.69248  86509243.08746  21126395.3524                   21126399.4104
 11  7 24  3 33 30.0000000  0  7G10G12G05G04G29G25G02
 116780216.07447  90997710.43145  22222526.1174                   22222532.2894
 110095993.089 8                  20950577.305
 106713642.038 8                  20306925.453
 126954749.11446  98925828.52343  24158646.8284                   24158653.8014
 123053763.704 6                  23416353.836
 114576701.911 8                  21803222.758
 111053344.43148  86535224.46746  21132740.2974                   21132744.9344
 11  7 24  3 34  0.0000000  0  7G10G12G05G04G29G25G02
 116864803.72447  91063622.90644  22238622.2424                   22238629.6054
 110130469.710 8                  20957138.047
 106700174.774 8                  20304363.289
 127036351.15946  98989414.57043  24174175.5004                   24174182.1054
 122970531.327 6                  23400515.070
 114542412.115 8                  21796697.281
 111086820.20348  86561309.47546  21139110.7734                   21139114.5704
 11  7 24  3 34 30.0000000  0  7G10G12G05G04G29G25G02
 116949761.73447  91129823.92445  22254789.9304                   22254796.1644
 110165493.130 7                  20963803.023
 106687285.034 8                  20301910.336
 127117908.44246  99052965.68743  24189695.3914                   24189701.9884
 122887300.052 7                  23384677.805
 114508680.824 8                  21790278.523
 111120428.15547  86587497.50246  21145505.5864                   21145509.9884
 11  7 24  3 35  0.0000000  0  7G10G12G05G04G29G25G02
 117035087.28147  91196311.32645  22271026.3754                   22271033.0594
 110201062.164 8                  20970571.492
 106674972.753 8                  20299567.156
 127199420.28446  99116481.39043  24205206.3284                   24205212.9264
 122804071.225 7                  23368840.398
 114475509.140 8                  21783966.078
 111154167.55248  86613787.97746  21151926.2584                   21151930.1134
 11  7 24  3 35 30.0000000  0  7G10G12G05G04G29G25G02
 117120777.46947  91263082.90245  22287333.0704                   22287339.8874
 110237175.290 8                  20977443.203
 106663238.435 8                  20297334.164
 127280886.78246  99179961.80143  24220709.0864                   24220715.7734
 122720846.429 7                  23353003.250
 114442898.513 8                  21777760.773
 111188038.11748  86640180.63946  21158371.4924                   21158375.8244
 11  7 24  3 36  0.0000000  0  7G10G12G05G04G29G25G02
 117206829.55647  91330136.45245  22303708.1484                   22303715.1214
 110273831.261 8                  20984418.664
 106652081.586 8                  20295211.383
 127362307.15846  99243406.25343  24236203.2584                   24236209.2854
 122637626.732 7                  23337166.398
 114410849.789 8                  21771661.508
 111222039.11347  86666674.92546  21164841.4614                   21164845.7894
 11  7 24  3 36 30.0000000  0  7G10G12G05G04G29G25G02
 117293240.35147  91397469.56344  22320151.2274                   22320157.6094
 110311028.789 7                  20991497.320
 106641501.586 8                  20293198.164
 127443680.77346  99306814.23543  24251688.0944                   24251694.5044
 122554413.073 7                  23321331.016
 114379363.747 8                  21765670.008
 111256169.78247  86693270.27546  21171336.3444                   21171340.3484
 11  7 24  3 37  0.0000000  0  7G10G12G05G04G29G25G02
 117380007.93547  91465080.66944  22336661.8984                   22336668.5984
 110348766.464 8                  20998678.508
 106631499.986 8                  20291294.898
 127525007.87345  99370186.05042  24267163.6414                   24267169.9884
 122471207.703 7                  23305497.617
 114348442.299 8                  21759786.531
 111290429.96947  86719966.54646  21177855.8204                   21177859.8984
 11  7 24  3 37 30.0000000  0  7G10G12G05G04G29G25G02
 117467128.74147  91532966.98644  22353241.0704                   22353247.4804
 110387042.093 8                  21005962.539
 106622075.039 8                  20289501.570
 127606287.27446  99433520.65942  24282630.5634                   24282637.1374
 122388011.017 6                  23289665.242
 114318085.284 8                  21754009.508
 111324818.00047  86746762.42345  21184399.3594                   21184403.5664
 11  7 24  3 38  0.0000000  0  7G10G12G05G04G29G25G02
 117554599.50847  91601126.02844  22369886.8134                   22369892.2274
 110425854.229 7                  21013348.141
 106613226.841 7                  20287817.578
 127687518.90145  99496818.11342  24298086.9064                   24298095.1214
 122304824.647 6                  23273835.203
 114288294.103 7                  21748339.797
 111359333.53147  86773657.64945  21190967.9144                   21190971.6414
 11  7 24  3 38 30.0000000  0  7G10G12G05G04G29G25G02
 117642417.37647  91669555.50844  22386597.4844                   22386603.9774
 110465201.438 8                  21020835.563
 106604954.849 8                  20286243.539
 127768702.21446  99560077.77342  24313536.8284                   24313544.6094
 122221649.571 7                  23258008.352
 114259069.538 8                  21742778.953
 111393975.90247  86800651.72146  21197559.4844                   21197563.7854
 11  7 24  3 39  0.0000000  0  7G10G12G05G04G29G25G02
 117730580.08247  91738253.70345  22403374.5554                   22403380.9654
 110505082.689 8                  21028424.375
 106597259.927 8                  20284779.125
 127849837.53146  99623300.08942  24328975.9304                   24328984.3754
 122138487.887 7                  23242182.867
 114230413.097 8                  21737325.813
 111428745.23048  86827744.70646  21204176.3984                   21204180.6724
 11  7 24  3 39 30.0000000  0  7G10G12G05G04G29G25G02
 117819084.63047  91807218.32145  22420216.3364                   22420223.0004
 110545495.924 8                  21036114.898
 106590141.321 8                  20283424.570
 127930923.64145  99686484.05842  24344407.0944                   24344414.8594
 122055340.613 7                  23226361.164
 114202325.320 8                  21731981.156
 111463640.44248  86854935.77946  21210816.7114                   21210821.5044
 11  7 24  3 40  0.0000000  0  8G26G10G12G05G04G29G25G02
 130281336.93856 101517990.06353  24791722.4144                   24791729.9534
 117907928.40047  91876447.24145  22437122.6334                   22437129.4344
 110586439.950 8                  21043906.477
 106583598.769 8                  20282179.313
 128011961.18945  99749630.24242  24359828.1724                   24359834.9534
 121972209.263 7                  23210540.766
 114174807.451 8                  21726744.461
 111498661.36548  86882224.81346  21217480.3134                   21217485.9774
 11  7 24  3 40 30.0000000  0  7G26G10G12G05G29G25G02
 130185976.10646 101443683.11643  24773574.6024                   24773583.4654
 117997108.01247  91945937.83345  22454092.9224                   22454100.0274
 110627912.748 8                  21051798.414
 106577631.495 8                  20281044.133
 121889094.897 7                  23194725.070
 114147859.904 8                  21721616.359
 111533806.76148  86909610.81246  21224168.9844                   21224173.6294
 11  7 24  3 41  0.0000000  0  8G26G10G12G05G04G29G25G02
 130090499.52746 101369285.85243  24755406.5164                   24755415.1764
 118086620.72047  92015687.96944  22471127.1954                   22471133.3594
 110669912.848 8                  21059790.508
 106572239.842 8                  20280017.898
 128173891.27915                  24390641.703
 121805999.201 7                  23178912.352
 114121483.798 8                  21716597.234
 111569076.44948  86937093.69646  21230880.5704                   21230885.5594
 11  7 24  3 41 30.0000000  0  8G26G10G12G05G04G29G25G02
 129994910.16746 101294800.70243  24737215.9774                   24737225.4414
 118176463.65847  92085695.45344  22488223.3134                   22488229.1414
 110712438.385 8                  21067883.094
 106567423.076 8                  20279101.039
 128254779.535 4                  24406031.164
 121722923.615 7                  23163103.734
 114095679.846 8                  21711686.711
 111604469.83248  86964672.94946  21237615.3364                   21237620.6994
 11  7 24  3 42  0.0000000  0  7G26G10G12G05G29G25G02
 129899210.74146 101220229.82643  24719005.6174                   24719013.6484
 118266633.59847  92155957.72744  22505382.2504                   22505388.3874
 110755487.433 8                  21076074.500
 106563180.440 8                  20278293.859
 121639869.036 7                  23147299.016
 114070448.481 8                  21706885.813
 111639985.96148  86992347.82046  21244374.4774                   21244379.0004
 11  7 24  3 42 30.0000000  0  7G26G10G12G05G29G25G02
 129803404.11046 101145575.37643  24700775.1644                   24700782.1604
 118357128.01747  92226472.86544  22522602.1414                   22522608.4924
 110799058.370 8                  21084365.906
 106559511.892 8                  20277595.820
 121556837.104 7                  23131497.859
 114045790.675 8                  21702193.766
 111675624.31448  87020117.96846  21251155.5784                   21251160.1914
 11  7 24  3 43  0.0000000  0  8G26G10G12G05G04G29G25G02
 129707492.99846 101070839.51842  24682523.1954                   24682530.2664
 118447943.48247  92297238.14244  22539883.6484                   22539890.8914
 110843149.426 8                  21092756.367
 106556416.266 8                  20277006.898
 128496889.38815                  24452152.742
 121473829.203 6                  23115702.445
 114021706.813 8                  21697610.234
 111711384.23948  87047982.84946  21257960.8914                   21257964.9344
 11  7 24  3 43 30.0000000  0  8G26G10G12G05G04G29G25G02
 129611480.76546 100996024.86742  24664250.8524                   24664259.1994
 118539077.75147  92368251.84444  22557226.0004                   22557232.3874
 110887758.788 8                  21101245.617
 106553894.111 8                  20276526.477
 128577573.05115                  24467507.227
 121390846.815 7                  23099910.891
 113998197.987 8                  21693136.516
 111747265.41548  87075942.21446  21264789.0474                   21264792.7464
 11  7 24  3 44  0.0000000  0  8G26G10G12G05G04G29G25G02
 129515370.883 6                  24645962.711
 118630528.21147  92439511.91644  22574628.6644                   22574635.3874
 110932885.170 8                  21109832.547
 106551944.959 8                  20276155.930
 128658205.25015                  24482847.953
 121307891.743 7                  23084125.586
 113975265.263 8                  21688772.789
 111783267.77548  87103995.99046  21271640.0944                   21271643.6094
 11  7 24  3 44 30.0000000  0  8G26G10G12G05G04G29G25G02
 129419165.88946 100846158.29053  24627655.0004                   24627662.7304
 118722291.42447  92511015.72144  22592090.2974                   22592097.0784
 110978526.341 8                  21118518.250
 106550568.064 8                  20275893.734
 128738785.46314                  24498184.453
 121224965.293 7                  23068345.211
 113952908.944 8                  21684518.203
 111819390.26848  87132143.38946  21278513.4144                   21278517.7584
 11  7 24  3 45  0.0000000  0  8G26G10G12G05G04G29G25G02
 129322868.68446 100771121.57243  24609330.5474                   24609338.3874
 118814364.82646  92582761.24044  22609610.8444                   22609618.5474
 111024680.569 8                  21127300.844
 106549762.899 8                  20275740.398
 128819313.618 5                  24513509.047
 121142068.811 7                  23052570.586
 113931129.620 8                  21680373.797
 111855632.49648  87160384.08546  21285410.5944                   21285414.5474
 11  7 24  3 45 30.0000000  0  8G26G10G12G05G04G29G25G02
 129226482.49746 100696015.47643  24590988.2814                   24590997.0274
 118906745.14247  92654745.85944  22627191.3204                   22627198.0864
 111071345.900 8                  21136180.805
 106549528.724 8                  20275696.078
 128899788.984 5                  24528823.305
 121059203.688 7                  23036802.289
 113909927.877 8                  21676339.711
 111891993.76648  87188717.55146  21292330.1174                   21292334.6254
 11  7 24  3 46  0.0000000  0  8G26G10G12G05G04G29G25G02
 129130010.06046 100620842.20143  24572630.5084                   24572639.4804
 118999429.34846  92726967.33244  22644828.5004                   22644835.3714
 111118520.678 8                  21145158.156
 106549864.930 8                  20275759.977
 128980211.53446 100504123.68352  24544125.6724                   24544133.9804
 120976371.667 7                  23021039.281
 113889304.285 8                  21672414.578
 111928473.78748  87217143.52746  21299271.3754                   21299276.0864
 11  7 24  3 46 30.0000000  0  8G26G10G12G05G04G29G25G02
 129033454.65547 100545604.33543  24554257.0234                   24554265.1804
 119092415.21247  92799423.85744  22662522.6334                   22662529.1374
 111166203.043 8                  21154231.758
 106550771.134 8                  20275932.336
 129060581.10945 100566749.35242  24559419.8204                   24559427.9654
 120893574.027 7                  23005283.227
 113869259.615 8                  21668600.281
 111965072.20448  87245661.76946  21306235.7194                   21306240.4734
 11  7 24  3 47  0.0000000  0  8G26G10G12G05G04G29G25G02
 128936819.21747 100470304.05143  24535867.4614                   24535875.2934
 119185699.20446  92872112.68844  22680274.1094                   22680281.3484
 111214390.697 8                  21163401.680
 106552246.467 8                  20276212.695
 129140897.13745 100629333.26242  24574702.1024                   24574711.4414
 120810812.190 7                  22989534.453
 113849794.051 8                  21664896.375
 112001787.95848  87274271.44846  21313222.7344                   21313227.0664
 11  7 24  3 47 30.0000000  0  8G26G10G12G05G04G29G25G02
 128840106.79647 100394943.79743  24517463.5864                   24517471.8834
 119279278.76146  92945031.80644  22698081.8054                   22698088.6334
 111263081.820 8                  21172667.258
 106554290.267 8                  20276601.695
 129221159.64745 100691875.54552  24589976.6254                   24589984.6334
 120728087.761 7                  22973791.836
 113830908.245 8                  21661302.656
 112038620.78148  87302972.35546  21320231.6254                   21320236.1334
 11  7 24  3 48  0.0000000  0  8G26G10G12G05G04G29G25G02
 128743320.17147 100319525.71643  24499045.9224                   24499054.2234
 119373151.09746  93018179.07544  22715945.2274                   22715951.7424
 111312274.499 8                  21182028.039
 106556901.858 8                  20277098.914
 129301368.33655 100754375.58652  24605243.0474                   24605248.9224
 120645402.240 7                  22958057.875
 113812602.601 8                  21657819.133
 112075569.85448  87331763.84346  21327263.1804                   21327267.6134
 11  7 24  3 48 30.0000000  0  8G26G10G12G05G04G29G25G02
 128646462.70446 100244052.47043  24480614.3134                   24480622.0084
 119467312.88247  93091551.90344  22733863.6884                   22733870.3094
 111361966.862 8                  21191484.164
 106560080.325 8                  20277703.945
                                  24620493.3834                   24620500.9494
 120562756.973 7                  22942331.297
 113794877.402 8                  21654445.773
 112112635.23148  87360645.94946  21334316.3594                   21334320.6374
 11  7 24  3 49  0.0000000  0  8G26G10G12G05G04G29G25G02
 128549537.60046 100168526.49043  24462170.0004                   24462177.7114
 119561761.67047  93165148.33744  22751837.0314                   22751843.3134
 111412156.668 8                  21201035.133
 106563825.398 8                  20278416.727
 129461622.71956 100879249.08652  24635735.4384                   24635744.3954
 120480153.902 7                  22926612.266
 113777733.409 8                  21651183.742
 112149816.27948  87389618.20246  21341392.0634                   21341395.4884
 11  7 24  3 49 30.0000000  0  8G26G10G12G05G04G29G25G02
 128452547.59046 100092949.92843  24443713.3834                   24443721.4494
 119656494.36147  93238965.98644  22769863.3444                   22769870.5044
 111462841.780 8                  21210680.094
 106568136.087 8                  20279236.680
 129541668.388 5                  24650966.734
 120397594.436 7                  22910901.922
 113761170.775 8                  21648032.141
 112187112.14548  87418679.93846  21348488.9774                   21348493.0394
 11  7 24  3 50  0.0000000  0  8G26G10G12G05G04G29G25G02
 128355496.11446 100017325.49843  24425245.0474                   24425253.3984
 119751508.00747  93313002.59944  22787944.3674                   22787951.0124
 111514020.383 8                  21220419.336
 106573011.744 8                  20280164.516
 129621659.52315                  24666190.234
 120315080.132 7                  22895199.391
 113745190.072 8                  21644990.703
 112224522.80548  87447831.11046  21355607.8674                   21355612.2384
 11  7 24  3 50 30.0000000  0  8G26G10G12G05G04G29G25G02
 128258386.26846  99941655.59743  24406765.6804                   24406773.4734
 119846799.64547  93387255.81344  22806077.7114                   22806084.4964
 111565690.538 8                  21230251.992
 106578451.467 8                  20281199.883
 129701595.63315                  24681404.992
 120232612.655 7                  22879506.242
 113729791.617 8                  21642060.547
 112262047.53348  87477071.14846  21362748.6254                   21362752.6174
 11  7 24  3 51  0.0000000  0  7G26G10G12G05G29G25G02
 128161221.31946  99865942.70543  24388277.1334                   24388283.7894
 119942366.62247  93461723.52844  22824263.2664                   22824269.7664
 111617850.387 8                  21240177.555
 106584454.861 8                  20282341.953
 120150193.521 7                  22863822.867
 113714975.862 8                  21639241.289
 112299686.42348  87506400.15846  21369911.0004                   21369914.9804
 11  7 24  3 51 30.0000000  0  7G26G10G12G05G29G25G02
 128064004.08846  99790189.10143  24369775.2034                   24369784.5354
 120038206.35947  93536403.92645  22842500.6954                   22842507.5084
 111670497.530 8                  21250196.070
 106591020.690 8                  20283591.578
 120067824.289 7                  22848148.563
 113700742.913 8                  21636532.406
 112337438.54548  87535817.40546  21377095.0314                   21377099.0394
 11  7 24  3 52  0.0000000  0  7G26G10G12G05G29G25G02
 127966737.69846  99714397.19742  24351265.2814                   24351274.5354
 120134315.33547  93611294.05544  22860790.2424                   22860796.5314
 111723629.810 8                  21260307.039
 106598147.779 8                  20284947.617
 119985506.597 7                  22832483.820
 113687092.866 8                  21633934.883
 112375303.43148  87565322.49346  21384300.5634                   21384304.7504
 11  7 24  3 52 30.0000000  0  7G26G10G12G05G29G25G02
 127869425.57546  99638569.57643  24332748.1954                   24332756.6844
 120230691.22847  93686392.20744  22879129.7034                   22879136.2304
 111777245.474 8                  21270509.633
 106605835.790 8                  20286410.789
 119903241.941 7                  22816828.336
 113674026.263 8                  21631449.039
 112413280.72848  87594915.20246  21391526.9844                   21391531.3754
 11  7 24  3 53  0.0000000  0  7G26G10G12G05G29G25G02
 127772070.70646  99562708.69443  24314221.9454                   24314230.5984
 120327330.77947  93761695.74244  22897519.7734                   22897526.5864
 111831341.797 8                  21280803.641
 106614083.169 8                  20287979.703
 119821031.770 7                  22801184.953
 113661543.061 8                  21629073.242
 112451370.13548  87624595.25646  21398775.7894                   21398780.4454
 11  7 24  3 53 30.0000000  0  7G26G10G12G05G29G25G02
 127674676.20246  99486816.91743  24295688.6414                   24295696.7624
 120424231.25547  93837202.57944  22915959.0084                   22915966.1644
 111885916.725 8                  21291189.281
 106622889.238 8                  20289655.672
 119738877.898 7                  22785551.563
 113649643.452 8                  21626809.063
 112489570.99048  87654362.15246  21406044.9534                   21406049.2034
 11  7 24  3 54  0.0000000  0  7G26G10G12G05G29G25G02
 127577245.29446  99410896.83143  24277148.3674                   24277156.5234
 120521389.54846  93912910.36844  22934447.6644                   22934454.2734
 111940968.153 8                  21301664.563
 106632252.774 8                  20291437.734
 119656781.908 7                  22769928.852
 113638327.636 8                  21624655.859
 112527882.95448  87684215.62446  21413335.3204                   21413339.8674
 11  7 24  3 54 30.0000000  0  7G26G10G12G05G29G25G02
 127479781.47047  99334951.00343  24258601.7664                   24258609.9414
 120618803.42947  93988817.27044  22952984.9614                   22952992.3364
 111996494.193 8                  21312230.516
 106642174.069 8                  20293325.563
 119574746.001 7                  22754317.297
 113627596.195 8                  21622613.633
 112566306.06948  87714155.68846  21420647.3674                   21420651.6294
 11  7 24  3 55  0.0000000  0  7G26G10G12G05G29G25G02
 127382288.01046  99258982.09843  24240049.5784                   24240056.9574
 120716469.58847  94064920.75544  22971570.8984                   22971577.8794
 112052492.418 8                  21322886.875
 106652651.547 8                  20295319.219
 119492771.441 7                  22738719.438
 113617449.037 8                  21620682.727
 112604839.66248  87744181.89146  21427979.5394                   21427983.6644
 11  7 24  3 55 30.0000000  0  7G26G10G12G05G29G25G02
 127284767.82846  99182992.40143  24221492.4924                   24221499.4654
 120814385.00347  94141218.44444  22990202.4224                   22990210.2624
 112108960.561 8                  21333632.320
 106663683.756 8                  20297418.578
 119410859.798 7                  22723132.094
 113607886.196 8                  21618862.680
 112643483.37548  87774293.86246  21435333.3054                   21435337.7704
 11  7 24  3 56  0.0000000  0  7G26G10G12G05G29G25G02
 127187224.14746  99106984.35643  24202928.7424                   24202936.5864
 120912547.11447  94217708.38344  23008882.9844                   23008889.1604
 112165896.383 8                  21344467.125
 106675269.697 8                  20299623.461
 119329012.755 7                  22707557.008
 113598907.593 8                  21617153.992
 112682236.76448  87804491.32146  21442708.2344                   21442712.3634
 11  7 24  3 56 30.0000000  0  7G26G10G12G05G29G25G02
 127089660.27746  99030960.60643  24184363.6334                   24184370.8674
 121010952.89847  94294388.22543  23027608.3594                   23027614.3984
 112223297.403 8                  21355390.023
 106687408.248 8                  20301933.289
 119247232.089 7                  22691994.094
 113590513.099 8                  21615556.578
 112721099.31248  87834773.82446  21450102.9844                   21450107.7424
 11  7 24  3 57  0.0000000  0  7G26G10G12G05G29G25G02
 126992079.39046  98954923.58943  24165794.3524                   24165802.2304
 121109599.55246  94371255.75743  23046380.0234                   23046386.2114
 112281161.769 8                  21366401.789
 106700098.588 8                  20304347.891
 119165519.618 7                  22676444.539
 113582703.060 8                  21614070.594
 112760070.76448  87865141.19546  21457519.5784                   21457523.1174
 11  7 24  3 57 30.0000000  0  7G26G10G12G05G29G25G02
 126894484.96546  98878876.03243  24147223.3594                   24147231.4494
 121208484.38347  94448308.80843  23065197.7424                   23065203.5514
 112339487.011 8                  21377500.594
 106713339.488 8                  20306867.906
 119083876.738 7                  22660908.867
 113575477.295 8                  21612695.438
 112799150.82548  87895593.20246  21464956.0704                   21464959.7894
 11  7 24  3 58  0.0000000  0  7G26G10G12G05G29G25G02
 126796879.94246  98802820.24743  24128648.9534                   24128657.4144
 121307604.17047  94525545.08243  23084059.0554                   23084065.3364
 112398270.606 8                  21388686.867
 106727129.571 8                  20309492.328
 119002305.260 7                  22645386.195
 113568835.708 8                  21611431.352
 112838338.85748  87926129.34646  21472412.8914                   21472417.2074
 11  7 24  3 58 30.0000000  0  7G26G10G12G05G29G25G02
 126699267.78246  98726758.87843  24110074.1564                   24110082.9414
 121406956.37147  94602962.41143  23102965.1724                   23102971.3914
 112457510.431 8                  21399959.758
 106741468.011 8                  20312220.344
 118920807.145 7                  22629877.539
 113562778.479 8                  21610279.016
 112877634.85248  87956749.60446  21479890.8984                   21479895.2234
 11  7 24  3 59  0.0000000  0  7G26G10G12G05G29G25G02
 126601651.79046  98650694.55843  24091498.3834                   24091506.5984
 121506537.99147  94680558.49543  23121915.2114                   23121921.4844
 112517204.118 8                  21411318.938
 106756353.536 8                  20315053.328
 118839383.936 7                  22614383.547
 113557305.267 8                  21609237.336
 112917038.33248  87987453.62846  21487389.1024                   21487393.3134
 11  7 24  3 59 30.0000000  0  7G26G10G12G05G29G25G02
 126504035.39646  98574629.84743  24072923.8754                   24072929.5434
 121606346.40047  94758331.25443  23140908.1564                   23140914.9614
 112577349.656 8                  21422764.438
 106771785.154 8                  20317989.719
 118758037.280 7                  22598903.266
 113552416.042 8                  21608307.195
 112956549.00748  88018241.16146  21494907.9304                   21494911.9694
 11  7 24  4  0  0.0000000  0  7G26G10G12G05G29G25G02
 126406421.46547  98498567.16944  24054348.4534                   24054354.9384
 121706378.62947  94836278.44944  23159943.1954                   23159950.1294
 112637943.969 8                  21434294.930
 106787761.035 8                  20321030.008
 118676768.949 7                  22583438.797
 113548110.552 8                  21607487.711
 112996166.41248  88049111.88946  21502446.6954                   21502451.1994
 11  7 24  4  0 30.0000000  0  7G26G10G12G05G29G25G02
 126308813.84247  98422509.37444  24035773.9144                   24035780.9694
 121806631.83747  94914397.82144  23179020.4844                   23179027.7974
 112698984.820 7                  21445910.266
 106804280.606 8                  20324173.320
 118595580.662 7                  22567988.453
 113544388.687 8                  21606779.414
 113035890.35848  88080065.59546  21510005.9534                   21510010.1724
 11  7 24  4  1  0.0000000  0  7G26G10G12G05G29G25G02
 126211215.56647  98346458.83044  24017201.3134                   24017208.4694
 121907103.27547  94992687.22644  23198140.2814                   23198146.7384
 112760470.276 8                  21457611.055
 106821342.544 8                  20327420.328
 118514474.573 7                  22552554.672
 113541250.318 8                  21606182.023
 113075720.57948  88111102.14546  21517584.7974                   21517589.6254
 11  7 24  4  1 30.0000000  0  7G26G10G12G05G29G25G02
 126113630.07347  98270418.23443  23998631.5084                   23998639.2074
 122007789.93847  95071144.40944  23217300.8594                   23217306.0084
 112822397.292 8                  21469395.609
 106838945.245 8                  20330769.883
 118433452.067 7                  22537136.367
 113538695.059 8                  21605695.805
 113115656.53948  88142221.05246  21525185.4064                   21525189.3444
 11  7 24  4  2  0.0000000  0  7G26G10G12G05G29G25G02
 126016060.76046  98194390.27243  23980063.7734                   23980072.0554
 122108689.13247  95149767.15243  23236501.3914                   23236507.3674
 112884763.709 8                  21481263.852
 106857087.767 8                  20334222.508
 118352515.363 7                  22521734.883
 113536722.830 8                  21605320.734
 113155698.15948  88173422.31946  21532804.7274                   21532808.9694
 11  7 24  4  2 30.0000000  0  7G26G10G12G05G29G25G02
 125918510.90646  98118377.46043  23961500.7734                   23961508.6414
 122209798.51747  95228553.66044  23255741.0944                   23255748.1024
 112947567.220 7                  21493214.148
 106875768.868 8                  20337777.219
 118271665.969 7                  22506349.656
 113535333.481 8                  21605056.453
 113195845.15848  88204705.71646  21540444.3674                   21540448.4884
 11  7 24  4  3  0.0000000  0  7G26G10G12G05G29G25G02
 125820984.00846  98042382.49343  23942941.6724                   23942950.1954
 122311114.57746  95307501.23744  23275021.1094                   23275028.0634
 113010805.305 8                  21505247.563
 106894986.767 8                  20341434.242
 118190905.680 7                  22490982.141
 113534526.344 8                  21604903.109
 113236097.32748  88236071.03646  21548103.8444                   21548108.3954
 11  7 24  4  3 30.0000000  0  7G26G10G12G05G29G25G02
 125723483.03846  97966407.74443  23924388.6334                   23924396.5904
 122412634.78747  95386607.89344  23294339.7814                   23294345.9964
 113074475.315 8                  21517364.086
 106914740.098 8                  20345193.164
 118110236.369 7                  22475630.508
 113534301.124 8                  21604859.672
 113276454.27448  88267517.97946  21555784.1024                   21555788.5944
 11  7 24  4  4  0.0000000  0  7G26G10G12G05G29G25G02
 125626011.76446  97890456.07243  23905840.7584                   23905847.7854
 122514356.52847  95465871.57244  23313696.8364                   23313703.6914
 113138574.652 8                  21529561.523
 106935027.669 8                  20349053.641
 118029659.668 7                  22460297.383
 113534657.448 8                  21604927.672
 113316915.67148  88299046.35046  21563483.4224                   21563487.2304
 11  7 24  4  4 30.0000000  0  7G26G10G12G05G29G25G02
 125528573.52247  97814530.21343  23887298.9534                   23887306.3554
 122616276.97447  95545290.11544  23333091.7974                   23333098.3954
 113203101.132 8                  21541840.836
 106955848.295 8                  20353016.219
 117949177.737 7                  22444982.313
 113535595.125 8                  21605106.117
 113357481.18648  88330655.83546  21571202.6884                   21571207.4224
 11  7 24  4  5  0.0000000  0  7G26G10G12G05G29G25G02
 125431171.73446  97738632.70443  23868763.6884                   23868770.6374
 122718392.91846  95624860.97044  23352523.6174                   23352530.4534
 113268052.029 8                  21554200.734
 106977200.265 8                  20357078.891
 117868792.142 7                  22429685.352
 113537113.656 8                  21605395.367
 113398150.74348  88362346.38846  21578941.6564                   21578945.9454
 11  7 24  4  5 30.0000000  0  7G26G10G12G05G29G25G02
 125333809.95246  97662766.40543  23850236.3284                   23850242.7194
 122820702.10746  95704582.40544  23371992.2894                   23371999.8554
 113333424.863 8                  21566640.609
 106999082.456 8                  20361243.023
 117788504.874 7                  22414407.117
 113539212.722 8                  21605794.547
 113438924.22348  88394117.92146  21586701.3444                   21586705.1054
 11  7 24  4  6  0.0000000  0  7G26G10G12G05G29G25G02
 125236491.13747  97586933.63843  23831716.1414                   23831723.9064
 122923201.60446  95784452.11143  23391497.3984                   23391504.5004
 113399217.070 7                  21579160.469
 107021493.042 8                  20365507.938
 117708317.671 7                  22399147.945
 113541891.610 8                  21606304.180
 113479801.05948  88425969.98546  21594479.5004                   21594483.7424
 11  7 24  4  6 30.0000000  0  7G26G10G12G05G29G25G02
 125139219.08846  97511137.25143  23813205.6804                   23813213.5864
 123025888.56846  95864467.98443  23411037.5784                   23411045.3554
 113465426.211 7                  21591759.508
 107044430.846 8                  20369872.758
 117628232.570 7                  22383907.859
 113545149.930 8                  21606924.336
 113520781.05748  88457902.44946  21602277.8204                   21602281.8094
 11  7 24  4  7  0.0000000  0  7G26G10G12G05G29G25G02
 125041996.96047  97435379.78543  23794705.7034                   23794713.3244
 123128760.08746  95944627.62243  23430612.9924                   23430620.3714
 113532049.358 7                  21604437.758
 107067893.966 8                  20374337.180
 117548251.348 7                  22368688.469
 113548987.061 8                  21607654.344
 113561864.01948  88489915.13546  21610095.8754                   21610099.6054
 11  7 24  4  7 30.0000000  0  7G26G10G12G05G29G25G02
 124944827.91446  97359663.68543  23776215.5634                   23776222.4734
 123231813.57346  96024929.06043  23450224.2344                   23450230.9694
 113599083.750 7                  21617193.773
 107091880.590 8                  20378902.031
 117468375.641 7                  22353488.477
 113553402.236 8                  21608494.516
 113603049.62648  88522007.80945  21617932.8444                   21617937.0234
 11  7 24  4  8  0.0000000  0  7G26G10G12G05G29G25G02
 124847716.14547  97283992.20943  23757735.6484                   23757743.5204
 123335046.59847  96105370.37443  23469869.1414                   23469875.8324
 113666527.530 7                  21630027.813
 107116390.352 8                  20383565.984
 117388607.693 7                  22338309.633
 113558395.409 8                  21609444.734
 113644337.88948  88554180.47045  21625789.6804                   21625794.0474
 11  7 24  4  8 30.0000000  0  7G26G10G12G05G29G25G02
 124750664.70647  97208367.74144  23739267.0234                   23739274.7464
 123438456.09447  96185949.15443  23489547.6174                   23489553.2194
 113734378.143 7                  21642939.547
 107141421.231 8                  20388328.828
 117308949.368 7                  22323150.766
 113563965.672 8                  21610504.813
 113685728.47848  88586432.86245  21633666.2734                   21633670.4774
 11  7 24  4  9  0.0000000  0  7G26G10G12G05G29G25G02
 124653677.46546  97132793.29243  23720810.4304                   23720818.2774
 123542039.59746  96266663.58943  23509257.6334                   23509264.6024
 113802632.338 7                  21655927.391
 107166971.890 8                  20393191.227
 117229402.776 7                  22308013.445
 113570112.707 8                  21611674.266
 113727221.57948  88618765.15045  21641561.7664                   21641566.2234
 11  7 24  4  9 30.0000000  0  7G26G10G12G05G29G25G02
 124556757.20147  97057271.05343  23702367.5784                   23702375.6454
 123645793.62146  96347510.85543  23529001.7814                   23529008.6254
 113871287.277 7                  21668991.883
 107193039.726 8                  20398151.641
 117149969.345 7                  22292897.375
 113576835.323 8                  21612954.156
 113768816.36548  88651176.65646  21649477.6174                   21649481.2934
 11  7 24  4 10  0.0000000  0  7G26G10G12G05G29G25G02
 124459907.92447  96981804.12244  23683938.6724                   23683945.7424
 123749716.09546  96428489.35742  23548777.9844                   23548784.4104
 113940340.769 8                  21682133.133
 107219624.158 8                  20403210.336
 117070651.437 7                  22277804.000
 113584133.291 8                  21614342.438
 113810513.16347  88683667.67646  21657411.5164                   21657415.7974
 11  7 24  4 10 30.0000000  0  7G26G10G12G05G29G25G02
 124363132.67947  96906394.90244  23665522.3284                   23665530.3874
 123853804.10246  96509596.87042  23568583.5634                   23568592.3444
 114009789.843 7                  21695348.602
 107246722.915 8                  20408367.133
 116991450.742 7                  22262732.234
 113592005.511 8                  21615840.508
 113852311.04647  88716237.45246  21665366.0314                   21665370.3094
 11  7 24  4 11  0.0000000  0  7G26G10G12G05G29G25G02
 124266435.30947  96831046.31644  23647121.7584                   23647128.7074
 123958055.13746  96590831.44542  23588423.4774                   23588430.2234
 114079632.079 8                  21708639.047
 107274334.824 8                  20413621.219
 116912369.207 7                  22247684.211
 113600451.524 8                  21617447.852
 113894210.53947  88748886.41546  21673338.8284                   21673343.3634
